Wetterdaten: Samstag, 05.05.2012
Datum Zeit Temp. A. Feuchte A. Regen Wind Richtung Richtung Taupunkt Windchill Windben
05.05.2012 00:03 9,6 C 70 % 0,0 l/m 0,2 km/h (0 Bft) N 360 4,4 C 7,0 C 0,0 km/h (0 Bft)
05.05.2012 00:08 9,6 C 70 % 0,0 l/m 0,2 km/h (0 Bft) N 360 4,4 C 6,9 C 0,0 km/h (0 Bft)
05.05.2012 00:10 9,5 C 70 % 0,0 l/m 0,0 km/h (0 Bft) N 360 4,3 C 6,8 C 0,0 km/h (0 Bft)
05.05.2012 00:11 9,5 C 70 % 0,0 l/m 0,0 km/h (0 Bft) N 360 4,3 C 6,8 C 0,0 km/h (0 Bft)
05.05.2012 00:12 9,5 C 70 % 0,0 l/m 0,0 km/h (0 Bft) N 360 4,3 C 6,8 C 0,0 km/h (0 Bft)
05.05.2012 00:13 9,5 C 70 % 0,0 l/m 0,0 km/h (0 Bft) N 360 4,3 C 6,8 C 0,0 km/h (0 Bft)
05.05.2012 00:14 9,4 C 70 % 0,0 l/m 0,0 km/h (0 Bft) N 360 4,2 C 6,7 C 0,0 km/h (0 Bft)
05.05.2012 00:15 9,4 C 70 % 0,0 l/m 0,0 km/h (0 Bft) N 360 4,2 C 6,7 C 0,0 km/h (0 Bft)
05.05.2012 00:16 9,3 C 70 % 0,0 l/m 0,0 km/h (0 Bft) N-NO 22 4,1 C 6,6 C 0,0 km/h (0 Bft)
05.05.2012 00:17 9,3 C 70 % 0,0 l/m 0,0 km/h (0 Bft) N-NO 22 4,1 C 6,6 C 0,0 km/h (0 Bft)
05.05.2012 00:18 9,3 C 71 % 0,0 l/m 0,0 km/h (0 Bft) N 360 4,3 C 6,6 C 0,0 km/h (0 Bft)
05.05.2012 00:19 9,3 C 71 % 0,0 l/m 0,0 km/h (0 Bft) N 360 4,3 C 6,6 C 0,0 km/h (0 Bft)
05.05.2012 00:20 9,3 C 72 % 0,0 l/m 0,0 km/h (0 Bft) NO 45 4,5 C 6,6 C 0,0 km/h (0 Bft)
05.05.2012 00:21 9,3 C 72 % 0,0 l/m 0,0 km/h (0 Bft) NO 45 4,5 C 6,6 C 0,0 km/h (0 Bft)
05.05.2012 00:22 9,5 C 72 % 0,0 l/m 0,0 km/h (0 Bft) NO 45 4,7 C 6,6 C 0,0 km/h (0 Bft)
05.05.2012 00:23 9,5 C 72 % 0,0 l/m 0,0 km/h (0 Bft) NO 45 4,7 C 6,6 C 0,0 km/h (0 Bft)
05.05.2012 00:24 9,5 C 72 % 0,0 l/m 0,0 km/h (0 Bft) NO 45 4,7 C 6,6 C 0,0 km/h (0 Bft)
05.05.2012 00:25 9,5 C 72 % 0,0 l/m 0,0 km/h (0 Bft) NO 45 4,7 C 6,6 C 0,0 km/h (0 Bft)
05.05.2012 00:26 9,3 C 71 % 0,0 l/m 0,0 km/h (0 Bft) NO 45 4,3 C 6,6 C 0,0 km/h (0 Bft)
05.05.2012 00:27 9,3 C 71 % 0,0 l/m 0,0 km/h (0 Bft) NO 45 4,3 C 6,6 C 0,0 km/h (0 Bft)
05.05.2012 00:28 9,3 C 72 % 0,0 l/m 0,0 km/h (0 Bft) NO 45 4,5 C 6,5 C 0,0 km/h (0 Bft)
05.05.2012 00:29 9,3 C 72 % 0,0 l/m 0,0 km/h (0 Bft) NO 45 4,5 C 6,5 C 0,0 km/h (0 Bft)
05.05.2012 00:30 9,2 C 72 % 0,0 l/m 0,0 km/h (0 Bft) NO 45 4,4 C 6,4 C 0,0 km/h (0 Bft)
05.05.2012 00:31 9,2 C 72 % 0,0 l/m 0,0 km/h (0 Bft) NO 45 4,4 C 6,4 C 0,0 km/h (0 Bft)
05.05.2012 00:32 9,2 C 72 % 0,0 l/m 0,0 km/h (0 Bft) NO 45 4,4 C 6,3 C 0,0 km/h (0 Bft)
05.05.2012 00:33 9,2 C 72 % 0,0 l/m 0,0 km/h (0 Bft) NO 45 4,4 C 6,3 C 0,0 km/h (0 Bft)
05.05.2012 00:34 9,2 C 72 % 0,0 l/m 0,0 km/h (0 Bft) S-SW 202 4,4 C 6,3 C 0,0 km/h (0 Bft)
05.05.2012 00:35 9,2 C 72 % 0,0 l/m 0,0 km/h (0 Bft) S-SW 202 4,4 C 6,3 C 0,0 km/h (0 Bft)
05.05.2012 00:36 9,1 C 72 % 0,0 l/m 0,0 km/h (0 Bft) O-SO 112 4,3 C 6,3 C 0,0 km/h (0 Bft)
05.05.2012 00:37 9,1 C 72 % 0,0 l/m 0,0 km/h (0 Bft) O-SO 112 4,3 C 6,3 C 0,0 km/h (0 Bft)
05.05.2012 00:38 9,1 C 73 % 0,0 l/m 0,0 km/h (0 Bft) W-SW 247 4,5 C 6,3 C 0,0 km/h (0 Bft)
05.05.2012 00:39 9,1 C 73 % 0,0 l/m 0,0 km/h (0 Bft) W-SW 247 4,5 C 6,3 C 0,0 km/h (0 Bft)
05.05.2012 00:40 9,1 C 73 % 0,0 l/m 0,0 km/h (0 Bft) W 270 4,5 C 6,3 C 0,0 km/h (0 Bft)
05.05.2012 00:41 9,1 C 73 % 0,0 l/m 0,0 km/h (0 Bft) W 270 4,5 C 6,3 C 0,0 km/h (0 Bft)
05.05.2012 00:42 8,9 C 73 % 0,0 l/m 0,0 km/h (0 Bft) NW 315 4,3 C 6,2 C 0,0 km/h (0 Bft)
05.05.2012 00:43 8,9 C 73 % 0,0 l/m 0,0 km/h (0 Bft) NW 315 4,3 C 6,2 C 0,0 km/h (0 Bft)
05.05.2012 00:44 8,9 C 73 % 0,0 l/m 0,0 km/h (0 Bft) W-SW 247 4,3 C 6,1 C 0,0 km/h (0 Bft)
05.05.2012 00:45 8,9 C 73 % 0,0 l/m 0,0 km/h (0 Bft) W-SW 247 4,3 C 6,1 C 0,0 km/h (0 Bft)
05.05.2012 00:46 8,8 C 73 % 0,0 l/m 0,0 km/h (0 Bft) N-NW 337 4,2 C 6,0 C 0,0 km/h (0 Bft)
05.05.2012 00:47 8,8 C 73 % 0,0 l/m 0,0 km/h (0 Bft) N-NW 337 4,2 C 6,0 C 0,0 km/h (0 Bft)
05.05.2012 00:48 8,8 C 73 % 0,0 l/m 0,0 km/h (0 Bft) W 270 4,2 C 6,0 C 0,0 km/h (0 Bft)
05.05.2012 00:49 8,8 C 73 % 0,0 l/m 0,0 km/h (0 Bft) W 270 4,2 C 6,0 C 0,0 km/h (0 Bft)
05.05.2012 00:50 8,9 C 73 % 0,0 l/m 0,0 km/h (0 Bft) W 270 4,3 C 6,0 C 0,0 km/h (0 Bft)
05.05.2012 00:51 8,9 C 73 % 0,0 l/m 0,0 km/h (0 Bft) W 270 4,3 C 6,0 C 0,0 km/h (0 Bft)
05.05.2012 00:52 8,8 C 73 % 0,0 l/m 0,0 km/h (0 Bft) W-SW 247 4,2 C 6,0 C 0,0 km/h (0 Bft)
05.05.2012 00:53 8,8 C 73 % 0,0 l/m 0,0 km/h (0 Bft) W-SW 247 4,2 C 6,0 C 0,0 km/h (0 Bft)
05.05.2012 00:54 8,7 C 73 % 0,0 l/m 0,0 km/h (0 Bft) N 360 4,1 C 6,0 C 0,0 km/h (0 Bft)
05.05.2012 00:55 8,7 C 73 % 0,0 l/m 0,0 km/h (0 Bft) N 360 4,1 C 6,0 C 0,0 km/h (0 Bft)
05.05.2012 00:56 8,7 C 73 % 0,0 l/m 0,0 km/h (0 Bft) N 360 4,1 C 5,9 C 0,0 km/h (0 Bft)
05.05.2012 00:57 8,7 C 73 % 0,0 l/m 0,0 km/h (0 Bft) N 360 4,1 C 5,9 C 0,0 km/h (0 Bft)
05.05.2012 00:58 8,7 C 73 % 0,0 l/m 0,0 km/h (0 Bft) N 360 4,1 C 5,8 C 0,0 km/h (0 Bft)
05.05.2012 00:59 8,7 C 73 % 0,0 l/m 0,0 km/h (0 Bft) N 360 4,1 C 5,8 C 0,0 km/h (0 Bft)
05.05.2012 01:00 8,5 C 73 % 0,0 l/m 0,0 km/h (0 Bft) S-SW 202 3,9 C 5,7 C 0,0 km/h (0 Bft)
05.05.2012 01:01 8,5 C 73 % 0,0 l/m 0,0 km/h (0 Bft) S-SW 202 3,9 C 5,7 C 0,0 km/h (0 Bft)
05.05.2012 01:02 8,5 C 73 % 0,0 l/m 0,0 km/h (0 Bft) S-SW 202 3,9 C 5,7 C 0,0 km/h (0 Bft)
05.05.2012 01:03 8,5 C 73 % 0,0 l/m 0,0 km/h (0 Bft) S-SW 202 3,9 C 5,7 C 0,0 km/h (0 Bft)
05.05.2012 01:04 8,4 C 73 % 0,0 l/m 0,0 km/h (0 Bft) N 360 3,8 C 5,5 C 0,0 km/h (0 Bft)
05.05.2012 01:05 8,4 C 73 % 0,0 l/m 0,0 km/h (0 Bft) N 360 3,8 C 5,5 C 0,0 km/h (0 Bft)
05.05.2012 01:06 8,5 C 73 % 0,0 l/m 0,0 km/h (0 Bft) N-NW 337 3,9 C 5,4 C 0,0 km/h (0 Bft)
05.05.2012 01:07 8,5 C 73 % 0,0 l/m 0,0 km/h (0 Bft) N-NW 337 3,9 C 5,4 C 0,0 km/h (0 Bft)
05.05.2012 01:08 8,4 C 73 % 0,0 l/m 0,0 km/h (0 Bft) W 270 3,8 C 5,4 C 0,0 km/h (0 Bft)
05.05.2012 01:09 8,4 C 73 % 0,0 l/m 0,0 km/h (0 Bft) W 270 3,8 C 5,4 C 0,0 km/h (0 Bft)
05.05.2012 01:10 8,4 C 73 % 0,0 l/m 0,0 km/h (0 Bft) W-NW 292 3,8 C 5,3 C 0,0 km/h (0 Bft)
05.05.2012 01:11 8,4 C 73 % 0,0 l/m 0,0 km/h (0 Bft) W-NW 292 3,8 C 5,3 C 0,0 km/h (0 Bft)
05.05.2012 01:12 8,3 C 73 % 0,0 l/m 0,0 km/h (0 Bft) W-SW 247 3,8 C 5,3 C 0,0 km/h (0 Bft)
05.05.2012 01:13 8,3 C 73 % 0,0 l/m 0,0 km/h (0 Bft) W-SW 247 3,8 C 5,3 C 0,0 km/h (0 Bft)
05.05.2012 01:14 8,2 C 73 % 0,0 l/m 0,0 km/h (0 Bft) W-NW 292 3,7 C 5,2 C 0,0 km/h (0 Bft)
05.05.2012 01:15 8,2 C 73 % 0,0 l/m 0,0 km/h (0 Bft) W-NW 292 3,7 C 5,2 C 0,0 km/h (0 Bft)
05.05.2012 01:16 8,3 C 73 % 0,0 l/m 0,0 km/h (0 Bft) W-NW 292 3,8 C 5,2 C 0,0 km/h (0 Bft)
05.05.2012 01:17 8,3 C 73 % 0,0 l/m 0,0 km/h (0 Bft) W-NW 292 3,8 C 5,2 C 0,0 km/h (0 Bft)
05.05.2012 01:18 8,1 C 74 % 0,0 l/m 0,0 km/h (0 Bft) O-SO 112 3,8 C 5,2 C 0,0 km/h (0 Bft)
05.05.2012 01:19 8,1 C 74 % 0,0 l/m 0,0 km/h (0 Bft) O-SO 112 3,8 C 5,2 C 0,0 km/h (0 Bft)
05.05.2012 01:20 8,1 C 74 % 0,0 l/m 0,0 km/h (0 Bft) W-NW 292 3,8 C 5,2 C 0,0 km/h (0 Bft)
05.05.2012 01:21 8,1 C 74 % 0,0 l/m 0,0 km/h (0 Bft) W-NW 292 3,8 C 5,2 C 0,0 km/h (0 Bft)
05.05.2012 01:22 8,1 C 74 % 0,0 l/m 0,0 km/h (0 Bft) N 360 3,8 C 5,1 C 0,0 km/h (0 Bft)
05.05.2012 01:23 8,1 C 74 % 0,0 l/m 0,0 km/h (0 Bft) N 360 3,8 C 5,1 C 0,0 km/h (0 Bft)
05.05.2012 01:24 8,1 C 74 % 0,0 l/m 0,0 km/h (0 Bft) O-SO 112 3,8 C 5,2 C 0,0 km/h (0 Bft)
05.05.2012 01:24 8,0 C 74 % 0,0 l/m 0,0 km/h (0 Bft) W-NW 292 3,7 C 5,1 C 0,0 km/h (0 Bft)
05.05.2012 01:26 8,0 C 74 % 0,0 l/m 0,0 km/h (0 Bft) W-SW 247 3,7 C 5,1 C 0,0 km/h (0 Bft)
05.05.2012 01:27 8,0 C 74 % 0,0 l/m 0,0 km/h (0 Bft) W-SW 247 3,7 C 5,1 C 0,0 km/h (0 Bft)
05.05.2012 01:28 8,0 C 74 % 0,0 l/m 0,0 km/h (0 Bft) W 270 3,7 C 5,1 C 0,0 km/h (0 Bft)
05.05.2012 01:29 8,0 C 74 % 0,0 l/m 0,0 km/h (0 Bft) W 270 3,7 C 5,1 C 0,0 km/h (0 Bft)
05.05.2012 01:30 8,0 C 74 % 0,0 l/m 0,0 km/h (0 Bft) W-NW 292 3,7 C 5,1 C 0,0 km/h (0 Bft)
05.05.2012 01:31 8,0 C 74 % 0,0 l/m 0,0 km/h (0 Bft) W-NW 292 3,7 C 5,1 C 0,0 km/h (0 Bft)
05.05.2012 01:32 7,9 C 74 % 0,0 l/m 0,0 km/h (0 Bft) N-NO 22 3,6 C 5,1 C 0,0 km/h (0 Bft)
05.05.2012 01:33 7,9 C 74 % 0,0 l/m 0,0 km/h (0 Bft) N-NO 22 3,6 C 5,1 C 0,0 km/h (0 Bft)
05.05.2012 01:34 7,9 C 74 % 0,0 l/m 0,0 km/h (0 Bft) W-NW 292 3,6 C 5,1 C 0,0 km/h (0 Bft)
05.05.2012 01:35 7,9 C 74 % 0,0 l/m 0,0 km/h (0 Bft) W-NW 292 3,6 C 5,1 C 0,0 km/h (0 Bft)
05.05.2012 01:36 7,9 C 74 % 0,0 l/m 0,0 km/h (0 Bft) W-NW 292 3,6 C 5,1 C 0,0 km/h (0 Bft)
05.05.2012 01:37 7,9 C 74 % 0,0 l/m 0,0 km/h (0 Bft) W-NW 292 3,6 C 5,1 C 0,0 km/h (0 Bft)
05.05.2012 01:38 7,9 C 74 % 0,0 l/m 0,0 km/h (0 Bft) N 360 3,6 C 5,1 C 0,0 km/h (0 Bft)
05.05.2012 01:39 7,9 C 74 % 0,0 l/m 0,0 km/h (0 Bft) N 360 3,6 C 5,1 C 0,0 km/h (0 Bft)
05.05.2012 01:40 7,9 C 74 % 0,0 l/m 0,0 km/h (0 Bft) N 360 3,6 C 5,1 C 0,0 km/h (0 Bft)
05.05.2012 01:41 7,9 C 74 % 0,0 l/m 0,0 km/h (0 Bft) N 360 3,6 C 5,1 C 0,0 km/h (0 Bft)
05.05.2012 01:42 7,9 C 74 % 0,0 l/m 0,0 km/h (0 Bft) N-NO 22 3,6 C 5,0 C 0,0 km/h (0 Bft)
05.05.2012 01:43 7,9 C 74 % 0,0 l/m 0,0 km/h (0 Bft) N-NO 22 3,6 C 5,0 C 0,0 km/h (0 Bft)
05.05.2012 01:44 7,7 C 74 % 0,0 l/m 0,0 km/h (0 Bft) N-NW 337 3,4 C 5,0 C 0,0 km/h (0 Bft)
05.05.2012 01:45 7,7 C 74 % 0,0 l/m 0,0 km/h (0 Bft) N-NW 337 3,4 C 5,0 C 0,0 km/h (0 Bft)
05.05.2012 01:46 7,7 C 75 % 0,0 l/m 0,0 km/h (0 Bft) N 360 3,6 C 5,1 C 0,0 km/h (0 Bft)
05.05.2012 01:47 7,7 C 75 % 0,0 l/m 0,0 km/h (0 Bft) N 360 3,6 C 5,1 C 0,0 km/h (0 Bft)
05.05.2012 01:48 7,7 C 75 % 0,0 l/m 0,0 km/h (0 Bft) N 360 3,6 C 5,1 C 0,0 km/h (0 Bft)
05.05.2012 01:49 7,7 C 75 % 0,0 l/m 0,0 km/h (0 Bft) N 360 3,6 C 5,1 C 0,0 km/h (0 Bft)
05.05.2012 01:50 7,7 C 75 % 0,0 l/m 0,0 km/h (0 Bft) N 360 3,6 C 5,2 C 1,8 km/h (1 Bft)
05.05.2012 01:51 7,7 C 75 % 0,0 l/m 0,0 km/h (0 Bft) N 360 3,6 C 5,2 C 1,8 km/h (1 Bft)
05.05.2012 01:52 7,7 C 76 % 0,0 l/m 0,2 km/h (0 Bft) N-NW 337 3,7 C 5,4 C 1,8 km/h (1 Bft)
05.05.2012 01:53 7,7 C 76 % 0,0 l/m 0,2 km/h (0 Bft) N-NW 337 3,7 C 5,4 C 1,8 km/h (1 Bft)
05.05.2012 01:54 7,9 C 76 % 0,0 l/m 0,2 km/h (0 Bft) N-NW 337 3,9 C 5,5 C 0,0 km/h (0 Bft)
05.05.2012 01:55 7,9 C 76 % 0,0 l/m 0,2 km/h (0 Bft) N-NW 337 3,9 C 5,5 C 0,0 km/h (0 Bft)
05.05.2012 02:27 7,8 C 75 % 0,0 l/m 0,0 km/h (0 Bft) W 270 3,7 C 6,0 C 0,0 km/h (0 Bft)
05.05.2012 02:37 7,9 C 76 % 0,0 l/m 0,0 km/h (0 Bft) N 360 3,9 C 6,1 C 0,0 km/h (0 Bft)
05.05.2012 02:38 7,9 C 76 % 0,0 l/m 0,2 km/h (0 Bft) W-NW 292 3,9 C 6,2 C 0,0 km/h (0 Bft)
05.05.2012 02:39 7,9 C 76 % 0,0 l/m 0,2 km/h (0 Bft) W-NW 292 3,9 C 6,2 C 0,0 km/h (0 Bft)
05.05.2012 02:40 8,0 C 76 % 0,0 l/m 0,2 km/h (0 Bft) W-NW 292 4,0 C 6,2 C 0,0 km/h (0 Bft)
05.05.2012 02:41 8,0 C 76 % 0,0 l/m 0,2 km/h (0 Bft) W-NW 292 4,0 C 6,2 C 0,0 km/h (0 Bft)
05.05.2012 02:42 8,0 C 76 % 0,0 l/m 0,2 km/h (0 Bft) N-NW 337 4,0 C 6,3 C 0,0 km/h (0 Bft)
05.05.2012 02:43 8,0 C 76 % 0,0 l/m 0,2 km/h (0 Bft) N-NW 337 4,0 C 6,3 C 0,0 km/h (0 Bft)
05.05.2012 02:44 8,0 C 76 % 0,0 l/m 0,2 km/h (0 Bft) N-NW 337 4,0 C 6,3 C 0,0 km/h (0 Bft)
05.05.2012 02:45 8,0 C 76 % 0,0 l/m 0,2 km/h (0 Bft) N-NW 337 4,0 C 6,3 C 0,0 km/h (0 Bft)
05.05.2012 02:46 8,1 C 76 % 0,0 l/m 0,0 km/h (0 Bft) NW 315 4,1 C 6,4 C 0,0 km/h (0 Bft)
05.05.2012 02:47 8,1 C 76 % 0,0 l/m 0,0 km/h (0 Bft) NW 315 4,1 C 6,4 C 0,0 km/h (0 Bft)
05.05.2012 02:48 8,0 C 76 % 0,0 l/m 0,2 km/h (0 Bft) W-NW 292 4,0 C 6,4 C 1,8 km/h (1 Bft)
05.05.2012 02:49 8,0 C 76 % 0,0 l/m 0,2 km/h (0 Bft) W-NW 292 4,0 C 6,4 C 1,8 km/h (1 Bft)
05.05.2012 02:50 8,0 C 76 % 0,0 l/m 0,2 km/h (0 Bft) W 270 4,0 C 6,5 C 0,0 km/h (0 Bft)
05.05.2012 02:51 8,0 C 76 % 0,0 l/m 0,2 km/h (0 Bft) W 270 4,0 C 6,5 C 0,0 km/h (0 Bft)
05.05.2012 02:52 8,1 C 76 % 0,0 l/m 0,2 km/h (0 Bft) N-NO 22 4,1 C 6,6 C 0,0 km/h (0 Bft)
05.05.2012 02:53 8,1 C 76 % 0,0 l/m 0,2 km/h (0 Bft) N-NO 22 4,1 C 6,6 C 0,0 km/h (0 Bft)
05.05.2012 02:54 8,1 C 76 % 0,0 l/m 0,2 km/h (0 Bft) N-NW 337 4,1 C 6,6 C 0,0 km/h (0 Bft)
05.05.2012 02:55 8,1 C 76 % 0,0 l/m 0,2 km/h (0 Bft) N-NW 337 4,1 C 6,6 C 0,0 km/h (0 Bft)
05.05.2012 02:56 8,1 C 76 % 0,0 l/m 0,2 km/h (0 Bft) W-NW 292 4,1 C 6,6 C 0,0 km/h (0 Bft)
05.05.2012 02:57 8,1 C 76 % 0,0 l/m 0,2 km/h (0 Bft) W-NW 292 4,1 C 6,6 C 0,0 km/h (0 Bft)
05.05.2012 02:58 8,2 C 76 % 0,0 l/m 0,0 km/h (0 Bft) W-NW 292 4,2 C 6,7 C 0,0 km/h (0 Bft)
05.05.2012 02:59 8,2 C 76 % 0,0 l/m 0,0 km/h (0 Bft) W-NW 292 4,2 C 6,7 C 0,0 km/h (0 Bft)
05.05.2012 03:00 8,3 C 76 % 0,0 l/m 0,0 km/h (0 Bft) W-NW 292 4,3 C 6,7 C 0,0 km/h (0 Bft)
05.05.2012 03:01 8,3 C 76 % 0,0 l/m 0,0 km/h (0 Bft) W-NW 292 4,3 C 6,7 C 0,0 km/h (0 Bft)
05.05.2012 03:02 8,3 C 76 % 0,0 l/m 0,0 km/h (0 Bft) W-NW 292 4,3 C 6,7 C 0,0 km/h (0 Bft)
05.05.2012 03:27 8,9 C 77 % 0,0 l/m 1,4 km/h (1 Bft) O 90 5,1 C 8,0 C 3,1 km/h (1 Bft)
05.05.2012 03:34 9,1 C 76 % 0,0 l/m 2,7 km/h (1 Bft) O-NO 67 5,1 C 8,6 C 12,2 km/h (2 Bft)
05.05.2012 04:27 10,9 C 70 % 0,0 l/m 9,7 km/h (2 Bft) O-SO 112 5,6 C 7,8 C 17,1 km/h (3 Bft)
05.05.2012 04:39 11,1 C 70 % 0,0 l/m 10,1 km/h (2 Bft) SO 135 5,8 C 7,6 C 15,1 km/h (3 Bft)
05.05.2012 04:40 11,2 C 70 % 0,0 l/m 10,1 km/h (2 Bft) SO 135 5,9 C 7,6 C 15,1 km/h (3 Bft)
05.05.2012 04:41 11,2 C 70 % 0,0 l/m 10,1 km/h (2 Bft) SO 135 5,9 C 7,6 C 15,1 km/h (3 Bft)
05.05.2012 04:42 11,2 C 70 % 0,0 l/m 9,7 km/h (2 Bft) S 180 5,9 C 8,0 C 11,9 km/h (2 Bft)
05.05.2012 04:43 11,2 C 70 % 0,0 l/m 9,7 km/h (2 Bft) S 180 5,9 C 8,0 C 11,9 km/h (2 Bft)
05.05.2012 04:44 11,2 C 70 % 0,0 l/m 9,7 km/h (2 Bft) SO 135 5,9 C 8,0 C 7,9 km/h (2 Bft)
05.05.2012 04:45 11,2 C 70 % 0,0 l/m 9,7 km/h (2 Bft) SO 135 5,9 C 8,0 C 7,9 km/h (2 Bft)
05.05.2012 04:46 11,1 C 70 % 0,0 l/m 9,0 km/h (2 Bft) O-SO 112 5,8 C 8,2 C 7,4 km/h (2 Bft)
05.05.2012 04:47 11,1 C 70 % 0,0 l/m 9,0 km/h (2 Bft) O-SO 112 5,8 C 8,2 C 7,4 km/h (2 Bft)
05.05.2012 04:48 11,1 C 70 % 0,0 l/m 9,0 km/h (2 Bft) O-SO 112 5,8 C 8,2 C 8,2 km/h (2 Bft)
05.05.2012 04:49 11,1 C 70 % 0,0 l/m 9,0 km/h (2 Bft) O-SO 112 5,8 C 8,2 C 8,2 km/h (2 Bft)
05.05.2012 04:50 11,1 C 70 % 0,0 l/m 9,0 km/h (2 Bft) W-NW 292 5,8 C 8,2 C 15,3 km/h (3 Bft)
05.05.2012 04:51 11,1 C 70 % 0,0 l/m 9,0 km/h (2 Bft) W-NW 292 5,8 C 8,2 C 15,3 km/h (3 Bft)
05.05.2012 04:52 11,2 C 70 % 0,0 l/m 8,5 km/h (2 Bft) O-SO 112 5,9 C 8,4 C 15,8 km/h (3 Bft)
05.05.2012 04:53 11,2 C 70 % 0,0 l/m 8,5 km/h (2 Bft) O-SO 112 5,9 C 8,4 C 15,8 km/h (3 Bft)
05.05.2012 04:54 11,2 C 70 % 0,0 l/m 8,5 km/h (2 Bft) O 90 5,9 C 8,4 C 7,4 km/h (2 Bft)
05.05.2012 05:03 11,1 C 71 % 0,0 l/m 5,6 km/h (1 Bft) NO 45 6,0 C 10,4 C 3,5 km/h (1 Bft)
05.05.2012 05:04 11,1 C 71 % 0,0 l/m 4,3 km/h (1 Bft) S-SO 157 6,0 C 10,6 C 2,1 km/h (1 Bft)
05.05.2012 05:05 11,1 C 71 % 0,0 l/m 4,3 km/h (1 Bft) S-SO 157 6,0 C 10,6 C 2,1 km/h (1 Bft)
05.05.2012 05:06 10,9 C 71 % 0,0 l/m 4,5 km/h (1 Bft) O-SO 112 5,9 C 10,4 C 7,7 km/h (2 Bft)
05.05.2012 05:07 10,9 C 71 % 0,0 l/m 4,5 km/h (1 Bft) O-SO 112 5,9 C 10,4 C 7,7 km/h (2 Bft)
05.05.2012 05:08 10,9 C 72 % 0,0 l/m 4,5 km/h (1 Bft) O-SO 112 6,1 C 10,3 C 7,7 km/h (2 Bft)
05.05.2012 05:09 10,9 C 72 % 0,0 l/m 4,5 km/h (1 Bft) O-SO 112 6,1 C 10,3 C 7,7 km/h (2 Bft)
05.05.2012 05:10 10,9 C 72 % 0,0 l/m 4,2 km/h (1 Bft) SO 135 6,1 C 10,4 C 4,8 km/h (1 Bft)
05.05.2012 05:11 10,9 C 72 % 0,0 l/m 4,2 km/h (1 Bft) SO 135 6,1 C 10,4 C 4,8 km/h (1 Bft)
05.05.2012 05:12 10,9 C 72 % 0,0 l/m 3,7 km/h (1 Bft) N-NO 22 6,1 C 10,4 C 2,1 km/h (1 Bft)
05.05.2012 05:13 10,9 C 72 % 0,0 l/m 3,7 km/h (1 Bft) N-NO 22 6,1 C 10,4 C 2,1 km/h (1 Bft)
05.05.2012 05:14 10,9 C 72 % 0,0 l/m 3,7 km/h (1 Bft) N-NW 337 6,1 C 10,3 C 3,5 km/h (1 Bft)
05.05.2012 05:15 10,9 C 72 % 0,0 l/m 3,7 km/h (1 Bft) N-NW 337 6,1 C 10,3 C 3,5 km/h (1 Bft)
05.05.2012 05:16 10,9 C 72 % 0,0 l/m 3,4 km/h (1 Bft) N-NO 22 6,1 C 10,2 C 0,0 km/h (0 Bft)
05.05.2012 05:17 10,9 C 72 % 0,0 l/m 3,4 km/h (1 Bft) N-NO 22 6,1 C 10,2 C 0,0 km/h (0 Bft)
05.05.2012 05:18 10,8 C 72 % 0,0 l/m 2,7 km/h (1 Bft) N 360 6,0 C 10,1 C 2,7 km/h (1 Bft)
05.05.2012 05:19 10,8 C 72 % 0,0 l/m 2,7 km/h (1 Bft) N 360 6,0 C 10,1 C 2,7 km/h (1 Bft)
05.05.2012 05:20 10,8 C 72 % 0,0 l/m 2,7 km/h (1 Bft) N 360 6,0 C 10,1 C 2,7 km/h (1 Bft)
05.05.2012 05:21 10,8 C 72 % 0,0 l/m 2,7 km/h (1 Bft) N 360 6,0 C 10,1 C 2,7 km/h (1 Bft)
05.05.2012 05:22 10,8 C 73 % 0,0 l/m 1,3 km/h (1 Bft) S-SO 157 6,2 C 9,9 C 3,5 km/h (1 Bft)
05.05.2012 05:23 10,8 C 73 % 0,0 l/m 1,3 km/h (1 Bft) S-SO 157 6,2 C 9,9 C 3,5 km/h (1 Bft)
05.05.2012 05:24 10,7 C 73 % 0,0 l/m 1,1 km/h (1 Bft) NO 45 6,1 C 9,8 C 2,3 km/h (1 Bft)
05.05.2012 05:25 10,7 C 73 % 0,0 l/m 1,1 km/h (1 Bft) NO 45 6,1 C 9,8 C 2,3 km/h (1 Bft)
05.05.2012 05:26 10,7 C 73 % 0,0 l/m 1,6 km/h (1 Bft) W 270 6,1 C 9,8 C 3,7 km/h (1 Bft)
05.05.2012 05:27 10,7 C 73 % 0,0 l/m 1,6 km/h (1 Bft) W 270 6,1 C 9,8 C 3,7 km/h (1 Bft)
05.05.2012 05:28 10,7 C 73 % 0,0 l/m 1,9 km/h (1 Bft) NO 45 6,1 C 9,8 C 3,4 km/h (1 Bft)
05.05.2012 05:29 10,7 C 73 % 0,0 l/m 1,9 km/h (1 Bft) NO 45 6,1 C 9,8 C 3,4 km/h (1 Bft)
05.05.2012 05:30 10,7 C 73 % 0,0 l/m 1,9 km/h (1 Bft) S 180 6,1 C 9,8 C 0,0 km/h (0 Bft)
05.05.2012 05:31 10,7 C 73 % 0,0 l/m 1,9 km/h (1 Bft) S 180 6,1 C 9,8 C 0,0 km/h (0 Bft)
05.05.2012 05:32 10,6 C 73 % 0,0 l/m 1,9 km/h (1 Bft) SW 225 6,0 C 9,8 C 0,0 km/h (0 Bft)
05.05.2012 05:33 10,6 C 73 % 0,0 l/m 1,9 km/h (1 Bft) SW 225 6,0 C 9,8 C 0,0 km/h (0 Bft)
05.05.2012 05:34 10,7 C 74 % 0,0 l/m 1,9 km/h (1 Bft) O-NO 67 6,3 C 9,7 C 6,6 km/h (2 Bft)
05.05.2012 05:35 10,7 C 74 % 0,0 l/m 1,9 km/h (1 Bft) O-NO 67 6,3 C 9,7 C 6,6 km/h (2 Bft)
05.05.2012 05:36 10,7 C 74 % 0,0 l/m 2,4 km/h (1 Bft) O 90 6,3 C 9,6 C 4,7 km/h (1 Bft)
05.05.2012 05:37 10,7 C 74 % 0,0 l/m 2,4 km/h (1 Bft) O 90 6,3 C 9,6 C 4,7 km/h (1 Bft)
05.05.2012 05:38 10,7 C 73 % 0,0 l/m 2,4 km/h (1 Bft) SO 135 6,1 C 9,7 C 3,9 km/h (1 Bft)
05.05.2012 05:39 10,7 C 73 % 0,0 l/m 2,4 km/h (1 Bft) SO 135 6,1 C 9,7 C 3,9 km/h (1 Bft)
05.05.2012 05:40 10,6 C 74 % 0,0 l/m 2,4 km/h (1 Bft) SO 135 6,2 C 9,7 C 3,9 km/h (1 Bft)
05.05.2012 05:41 10,6 C 74 % 0,0 l/m 2,4 km/h (1 Bft) SO 135 6,2 C 9,7 C 3,9 km/h (1 Bft)
05.05.2012 05:42 10,6 C 74 % 0,0 l/m 2,4 km/h (1 Bft) O-SO 112 6,2 C 9,7 C 7,6 km/h (2 Bft)
05.05.2012 05:43 10,6 C 74 % 0,0 l/m 2,4 km/h (1 Bft) O-SO 112 6,2 C 9,7 C 7,6 km/h (2 Bft)
05.05.2012 05:44 10,7 C 74 % 0,0 l/m 3,4 km/h (1 Bft) NO 45 6,3 C 9,7 C 4,3 km/h (1 Bft)
05.05.2012 05:45 10,7 C 74 % 0,0 l/m 3,4 km/h (1 Bft) NO 45 6,3 C 9,7 C 4,3 km/h (1 Bft)
05.05.2012 05:46 10,7 C 74 % 0,0 l/m 3,5 km/h (1 Bft) S 180 6,3 C 9,7 C 2,9 km/h (1 Bft)
05.05.2012 05:47 10,7 C 74 % 0,0 l/m 3,5 km/h (1 Bft) S 180 6,3 C 9,7 C 2,9 km/h (1 Bft)
05.05.2012 05:48 10,7 C 74 % 0,0 l/m 3,5 km/h (1 Bft) SO 135 6,3 C 9,8 C 4,2 km/h (1 Bft)
05.05.2012 05:49 10,7 C 74 % 0,0 l/m 3,5 km/h (1 Bft) SO 135 6,3 C 9,8 C 4,2 km/h (1 Bft)
05.05.2012 05:50 10,7 C 74 % 0,0 l/m 3,9 km/h (1 Bft) SO 135 6,3 C 9,8 C 4,7 km/h (1 Bft)
05.05.2012 05:51 10,7 C 74 % 0,0 l/m 3,9 km/h (1 Bft) SO 135 6,3 C 9,8 C 4,7 km/h (1 Bft)
05.05.2012 05:52 10,6 C 75 % 0,0 l/m 5,0 km/h (1 Bft) O-SO 112 6,4 C 9,6 C 8,4 km/h (2 Bft)
05.05.2012 05:53 10,6 C 75 % 0,0 l/m 5,0 km/h (1 Bft) O-SO 112 6,4 C 9,6 C 8,4 km/h (2 Bft)
05.05.2012 05:54 10,7 C 74 % 0,0 l/m 4,8 km/h (1 Bft) S-SO 157 6,3 C 9,7 C 7,9 km/h (2 Bft)
05.05.2012 05:55 10,7 C 74 % 0,0 l/m 4,8 km/h (1 Bft) S-SO 157 6,3 C 9,7 C 7,9 km/h (2 Bft)
05.05.2012 05:56 10,6 C 75 % 0,0 l/m 5,5 km/h (1 Bft) O-NO 67 6,4 C 9,5 C 6,9 km/h (2 Bft)
05.05.2012 05:57 10,6 C 75 % 0,0 l/m 5,5 km/h (1 Bft) O-NO 67 6,4 C 9,5 C 6,9 km/h (2 Bft)
05.05.2012 05:58 10,7 C 75 % 0,0 l/m 6,0 km/h (2 Bft) O-SO 112 6,5 C 9,4 C 7,7 km/h (2 Bft)
05.05.2012 05:59 10,7 C 75 % 0,0 l/m 6,0 km/h (2 Bft) O-SO 112 6,5 C 9,4 C 7,7 km/h (2 Bft)
05.05.2012 06:00 10,7 C 75 % 0,0 l/m 6,0 km/h (2 Bft) O-SO 112 6,5 C 9,4 C 7,7 km/h (2 Bft)
05.05.2012 06:01 10,7 C 75 % 0,0 l/m 6,0 km/h (2 Bft) O-SO 112 6,5 C 9,4 C 7,7 km/h (2 Bft)
05.05.2012 06:02 10,8 C 74 % 0,0 l/m 6,4 km/h (2 Bft) O 90 6,4 C 9,4 C 5,5 km/h (1 Bft)
05.05.2012 06:03 10,8 C 74 % 0,0 l/m 6,4 km/h (2 Bft) O 90 6,4 C 9,4 C 5,5 km/h (1 Bft)
05.05.2012 06:04 10,9 C 74 % 0,0 l/m 5,6 km/h (1 Bft) NO 45 6,5 C 9,7 C 2,7 km/h (1 Bft)
05.05.2012 06:05 10,9 C 74 % 0,0 l/m 5,6 km/h (1 Bft) NO 45 6,5 C 9,7 C 2,7 km/h (1 Bft)
05.05.2012 06:06 10,8 C 74 % 0,0 l/m 5,5 km/h (1 Bft) O-SO 112 6,4 C 9,7 C 6,0 km/h (2 Bft)
05.05.2012 06:07 10,8 C 74 % 0,0 l/m 5,5 km/h (1 Bft) O-SO 112 6,4 C 9,7 C 6,0 km/h (2 Bft)
05.05.2012 06:08 10,9 C 74 % 0,0 l/m 5,0 km/h (1 Bft) O-SO 112 6,5 C 9,9 C 12,1 km/h (2 Bft)
05.05.2012 06:09 10,9 C 74 % 0,0 l/m 5,0 km/h (1 Bft) O-SO 112 6,5 C 9,9 C 12,1 km/h (2 Bft)
05.05.2012 06:10 10,9 C 74 % 0,0 l/m 4,8 km/h (1 Bft) O-SO 112 6,5 C 9,9 C 11,7 km/h (2 Bft)
05.05.2012 06:11 10,9 C 74 % 0,0 l/m 4,8 km/h (1 Bft) O-SO 112 6,5 C 9,9 C 11,7 km/h (2 Bft)
05.05.2012 06:12 10,8 C 74 % 0,0 l/m 4,7 km/h (1 Bft) O 90 6,4 C 9,9 C 6,6 km/h (2 Bft)
05.05.2012 06:13 10,8 C 74 % 0,0 l/m 4,7 km/h (1 Bft) O 90 6,4 C 9,9 C 6,6 km/h (2 Bft)
05.05.2012 06:14 10,8 C 74 % 0,0 l/m 5,0 km/h (1 Bft) NO 45 6,4 C 10,0 C 6,0 km/h (2 Bft)
05.05.2012 06:15 10,8 C 74 % 0,0 l/m 5,0 km/h (1 Bft) NO 45 6,4 C 10,0 C 6,0 km/h (2 Bft)
05.05.2012 06:16 10,9 C 74 % 0,0 l/m 5,5 km/h (1 Bft) S-SO 157 6,5 C 9,8 C 11,6 km/h (2 Bft)
05.05.2012 06:17 10,9 C 74 % 0,0 l/m 5,5 km/h (1 Bft) S-SO 157 6,5 C 9,8 C 11,6 km/h (2 Bft)
05.05.2012 06:18 10,9 C 74 % 0,0 l/m 5,8 km/h (2 Bft) O-SO 112 6,5 C 9,8 C 6,1 km/h (2 Bft)
05.05.2012 06:19 10,9 C 74 % 0,0 l/m 5,8 km/h (2 Bft) O-SO 112 6,5 C 9,8 C 6,1 km/h (2 Bft)
05.05.2012 06:20 10,9 C 74 % 0,0 l/m 5,8 km/h (2 Bft) O-SO 112 6,5 C 9,8 C 6,1 km/h (2 Bft)
05.05.2012 06:21 10,9 C 74 % 0,0 l/m 5,8 km/h (2 Bft) O-SO 112 6,5 C 9,8 C 6,1 km/h (2 Bft)
05.05.2012 06:22 10,8 C 74 % 0,0 l/m 5,0 km/h (1 Bft) SO 135 6,4 C 10,0 C 3,4 km/h (1 Bft)
05.05.2012 06:23 10,8 C 74 % 0,0 l/m 5,0 km/h (1 Bft) SO 135 6,4 C 10,0 C 3,4 km/h (1 Bft)
05.05.2012 06:24 10,9 C 74 % 0,0 l/m 4,8 km/h (1 Bft) SO 135 6,5 C 9,9 C 9,5 km/h (2 Bft)
05.05.2012 06:25 10,9 C 74 % 0,0 l/m 4,8 km/h (1 Bft) SO 135 6,5 C 9,9 C 9,5 km/h (2 Bft)
05.05.2012 06:26 10,8 C 74 % 0,0 l/m 5,0 km/h (1 Bft) O-SO 112 6,4 C 9,9 C 6,9 km/h (2 Bft)
05.05.2012 06:27 10,8 C 74 % 0,0 l/m 5,0 km/h (1 Bft) O-SO 112 6,4 C 9,9 C 6,9 km/h (2 Bft)
05.05.2012 06:28 10,8 C 74 % 0,0 l/m 4,7 km/h (1 Bft) O 90 6,4 C 9,9 C 3,4 km/h (1 Bft)
05.05.2012 06:29 10,8 C 74 % 0,0 l/m 4,7 km/h (1 Bft) O 90 6,4 C 9,9 C 3,4 km/h (1 Bft)
05.05.2012 06:30 10,8 C 74 % 0,0 l/m 4,0 km/h (1 Bft) O-SO 112 6,4 C 10,1 C 6,3 km/h (2 Bft)
05.05.2012 06:31 10,8 C 74 % 0,0 l/m 4,0 km/h (1 Bft) O-SO 112 6,4 C 10,1 C 6,3 km/h (2 Bft)
05.05.2012 06:32 10,8 C 74 % 0,0 l/m 4,0 km/h (1 Bft) SO 135 6,4 C 10,1 C 4,7 km/h (1 Bft)
05.05.2012 06:33 10,8 C 74 % 0,0 l/m 4,0 km/h (1 Bft) SO 135 6,4 C 10,1 C 4,7 km/h (1 Bft)
05.05.2012 06:34 10,8 C 74 % 0,0 l/m 4,2 km/h (1 Bft) NO 45 6,4 C 10,1 C 3,9 km/h (1 Bft)
05.05.2012 06:35 10,8 C 74 % 0,0 l/m 4,2 km/h (1 Bft) NO 45 6,4 C 10,1 C 3,9 km/h (1 Bft)
05.05.2012 06:36 10,8 C 74 % 0,0 l/m 3,9 km/h (1 Bft) O 90 6,4 C 10,1 C 5,0 km/h (1 Bft)
05.05.2012 06:37 10,8 C 74 % 0,0 l/m 3,9 km/h (1 Bft) O 90 6,4 C 10,1 C 5,0 km/h (1 Bft)
05.05.2012 06:38 10,8 C 74 % 0,0 l/m 3,7 km/h (1 Bft) O 90 6,4 C 10,1 C 2,4 km/h (1 Bft)
05.05.2012 06:39 10,8 C 74 % 0,0 l/m 3,7 km/h (1 Bft) O 90 6,4 C 10,1 C 2,4 km/h (1 Bft)
05.05.2012 06:40 10,8 C 74 % 0,0 l/m 3,7 km/h (1 Bft) O 90 6,4 C 10,1 C 2,4 km/h (1 Bft)
05.05.2012 06:41 10,8 C 74 % 0,0 l/m 3,7 km/h (1 Bft) O 90 6,4 C 10,1 C 2,4 km/h (1 Bft)
05.05.2012 06:42 10,8 C 74 % 0,0 l/m 3,9 km/h (1 Bft) O-SO 112 6,4 C 10,1 C 4,8 km/h (1 Bft)
05.05.2012 06:43 10,8 C 74 % 0,0 l/m 3,9 km/h (1 Bft) O-SO 112 6,4 C 10,1 C 4,8 km/h (1 Bft)
05.05.2012 06:44 10,8 C 74 % 0,0 l/m 4,0 km/h (1 Bft) NO 45 6,4 C 10,1 C 5,6 km/h (1 Bft)
05.05.2012 06:45 10,8 C 74 % 0,0 l/m 4,0 km/h (1 Bft) NO 45 6,4 C 10,1 C 5,6 km/h (1 Bft)
05.05.2012 06:46 10,9 C 74 % 0,0 l/m 3,9 km/h (1 Bft) O-SO 112 6,5 C 10,1 C 4,2 km/h (1 Bft)
05.05.2012 06:47 10,9 C 74 % 0,0 l/m 3,9 km/h (1 Bft) O-SO 112 6,5 C 10,1 C 4,2 km/h (1 Bft)
05.05.2012 06:48 10,9 C 74 % 0,0 l/m 4,0 km/h (1 Bft) O 90 6,5 C 10,1 C 8,4 km/h (2 Bft)
05.05.2012 06:49 10,9 C 74 % 0,0 l/m 4,0 km/h (1 Bft) O 90 6,5 C 10,1 C 8,4 km/h (2 Bft)
05.05.2012 06:50 10,9 C 74 % 0,0 l/m 4,0 km/h (1 Bft) O 90 6,5 C 10,2 C 2,6 km/h (1 Bft)
05.05.2012 06:51 10,9 C 74 % 0,0 l/m 4,0 km/h (1 Bft) O 90 6,5 C 10,2 C 2,6 km/h (1 Bft)
05.05.2012 06:52 11,0 C 74 % 0,0 l/m 4,3 km/h (1 Bft) O-SO 112 6,5 C 10,2 C 3,5 km/h (1 Bft)
05.05.2012 06:53 11,0 C 74 % 0,0 l/m 4,3 km/h (1 Bft) O-SO 112 6,5 C 10,2 C 3,5 km/h (1 Bft)
05.05.2012 06:54 11,1 C 74 % 0,0 l/m 4,0 km/h (1 Bft) O-SO 112 6,6 C 10,2 C 4,8 km/h (1 Bft)
05.05.2012 06:55 11,1 C 74 % 0,0 l/m 4,0 km/h (1 Bft) O-SO 112 6,6 C 10,2 C 4,8 km/h (1 Bft)
05.05.2012 06:56 11,0 C 74 % 0,0 l/m 4,2 km/h (1 Bft) O-SO 112 6,5 C 10,3 C 5,1 km/h (1 Bft)
05.05.2012 06:57 11,0 C 74 % 0,0 l/m 4,2 km/h (1 Bft) O-SO 112 6,5 C 10,3 C 5,1 km/h (1 Bft)
05.05.2012 06:58 11,0 C 74 % 0,0 l/m 4,5 km/h (1 Bft) O-SO 112 6,5 C 10,2 C 4,5 km/h (1 Bft)
05.05.2012 06:59 11,0 C 74 % 0,0 l/m 4,5 km/h (1 Bft) O-SO 112 6,5 C 10,2 C 4,5 km/h (1 Bft)
05.05.2012 07:00 11,0 C 74 % 0,0 l/m 4,5 km/h (1 Bft) O-SO 112 6,5 C 10,2 C 4,5 km/h (1 Bft)
05.05.2012 07:01 11,0 C 74 % 0,0 l/m 4,5 km/h (1 Bft) O-SO 112 6,5 C 10,2 C 4,5 km/h (1 Bft)
05.05.2012 07:02 11,1 C 74 % 0,0 l/m 3,5 km/h (1 Bft) O-SO 112 6,6 C 10,3 C 2,7 km/h (1 Bft)
05.05.2012 07:03 11,1 C 74 % 0,0 l/m 3,5 km/h (1 Bft) O-SO 112 6,6 C 10,3 C 2,7 km/h (1 Bft)
05.05.2012 07:04 11,0 C 74 % 0,0 l/m 3,2 km/h (1 Bft) O-SO 112 6,5 C 10,3 C 1,9 km/h (1 Bft)
05.05.2012 07:05 11,0 C 74 % 0,0 l/m 3,2 km/h (1 Bft) O-SO 112 6,5 C 10,3 C 1,9 km/h (1 Bft)
05.05.2012 07:06 11,1 C 74 % 0,0 l/m 3,1 km/h (1 Bft) SO 135 6,6 C 10,3 C 6,8 km/h (2 Bft)
05.05.2012 07:07 11,1 C 74 % 0,0 l/m 3,1 km/h (1 Bft) SO 135 6,6 C 10,3 C 6,8 km/h (2 Bft)
05.05.2012 07:08 11,1 C 74 % 0,0 l/m 2,7 km/h (1 Bft) S-SO 157 6,6 C 10,4 C 3,4 km/h (1 Bft)
05.05.2012 07:09 11,1 C 74 % 0,0 l/m 2,7 km/h (1 Bft) S-SO 157 6,6 C 10,4 C 3,4 km/h (1 Bft)
05.05.2012 07:10 11,1 C 74 % 0,0 l/m 2,4 km/h (1 Bft) SO 135 6,6 C 10,4 C 5,1 km/h (1 Bft)
05.05.2012 07:11 11,1 C 74 % 0,0 l/m 2,4 km/h (1 Bft) SO 135 6,6 C 10,4 C 5,1 km/h (1 Bft)
05.05.2012 07:12 11,2 C 74 % 0,0 l/m 3,1 km/h (1 Bft) SO 135 6,7 C 10,4 C 10,5 km/h (2 Bft)
05.05.2012 07:13 11,2 C 74 % 0,0 l/m 3,1 km/h (1 Bft) SO 135 6,7 C 10,4 C 10,5 km/h (2 Bft)
05.05.2012 07:14 11,2 C 74 % 0,0 l/m 3,9 km/h (1 Bft) O-SO 112 6,7 C 10,4 C 4,8 km/h (1 Bft)
05.05.2012 07:15 11,2 C 74 % 0,0 l/m 3,9 km/h (1 Bft) O-SO 112 6,7 C 10,4 C 4,8 km/h (1 Bft)
05.05.2012 07:16 11,2 C 74 % 0,0 l/m 4,8 km/h (1 Bft) O-SO 112 6,7 C 10,3 C 7,6 km/h (2 Bft)
05.05.2012 07:17 11,2 C 74 % 0,0 l/m 4,8 km/h (1 Bft) O-SO 112 6,7 C 10,3 C 7,6 km/h (2 Bft)
05.05.2012 07:18 11,3 C 74 % 0,0 l/m 5,0 km/h (1 Bft) SO 135 6,8 C 10,3 C 4,8 km/h (1 Bft)
05.05.2012 07:19 11,3 C 74 % 0,0 l/m 5,0 km/h (1 Bft) SO 135 6,8 C 10,3 C 4,8 km/h (1 Bft)
05.05.2012 07:20 11,4 C 74 % 0,0 l/m 5,0 km/h (1 Bft) SO 135 6,9 C 10,3 C 4,8 km/h (1 Bft)
05.05.2012 07:21 11,4 C 74 % 0,0 l/m 5,0 km/h (1 Bft) SO 135 6,9 C 10,3 C 4,8 km/h (1 Bft)
05.05.2012 07:22 11,5 C 74 % 0,0 l/m 5,3 km/h (1 Bft) S 180 7,0 C 10,3 C 3,5 km/h (1 Bft)
05.05.2012 07:23 11,5 C 74 % 0,0 l/m 5,3 km/h (1 Bft) S 180 7,0 C 10,3 C 3,5 km/h (1 Bft)
05.05.2012 07:24 11,5 C 74 % 0,0 l/m 4,8 km/h (1 Bft) O-SO 112 7,0 C 10,5 C 5,6 km/h (1 Bft)
05.05.2012 07:25 11,5 C 74 % 0,0 l/m 4,8 km/h (1 Bft) O-SO 112 7,0 C 10,5 C 5,6 km/h (1 Bft)
05.05.2012 07:26 11,4 C 74 % 0,0 l/m 4,3 km/h (1 Bft) SO 135 6,9 C 10,7 C 1,9 km/h (1 Bft)
05.05.2012 07:27 11,4 C 74 % 0,0 l/m 4,3 km/h (1 Bft) SO 135 6,9 C 10,7 C 1,9 km/h (1 Bft)
05.05.2012 07:28 11,5 C 74 % 0,0 l/m 3,9 km/h (1 Bft) S-SO 157 7,0 C 10,7 C 2,6 km/h (1 Bft)
05.05.2012 07:29 11,5 C 74 % 0,0 l/m 3,9 km/h (1 Bft) S-SO 157 7,0 C 10,7 C 2,6 km/h (1 Bft)
05.05.2012 07:30 11,5 C 74 % 0,0 l/m 2,9 km/h (1 Bft) O 90 7,0 C 10,8 C 3,2 km/h (1 Bft)
05.05.2012 07:31 11,5 C 74 % 0,0 l/m 2,9 km/h (1 Bft) O 90 7,0 C 10,8 C 3,2 km/h (1 Bft)
05.05.2012 07:32 11,6 C 74 % 0,0 l/m 2,4 km/h (1 Bft) SO 135 7,1 C 10,8 C 3,4 km/h (1 Bft)
05.05.2012 07:33 11,6 C 74 % 0,0 l/m 2,4 km/h (1 Bft) SO 135 7,1 C 10,8 C 3,4 km/h (1 Bft)
05.05.2012 07:34 11,6 C 74 % 0,0 l/m 3,1 km/h (1 Bft) SO 135 7,1 C 10,8 C 8,2 km/h (2 Bft)
05.05.2012 07:35 11,6 C 74 % 0,0 l/m 3,1 km/h (1 Bft) SO 135 7,1 C 10,8 C 8,2 km/h (2 Bft)
05.05.2012 07:36 11,6 C 74 % 0,0 l/m 3,1 km/h (1 Bft) SO 135 7,1 C 10,9 C 7,2 km/h (2 Bft)
05.05.2012 07:37 11,6 C 74 % 0,0 l/m 3,1 km/h (1 Bft) SO 135 7,1 C 10,9 C 7,2 km/h (2 Bft)
05.05.2012 07:38 11,7 C 73 % 0,0 l/m 3,7 km/h (1 Bft) SO 135 7,0 C 11,0 C 4,2 km/h (1 Bft)
05.05.2012 07:39 11,7 C 73 % 0,0 l/m 3,7 km/h (1 Bft) SO 135 7,0 C 11,0 C 4,2 km/h (1 Bft)
05.05.2012 07:40 11,7 C 73 % 0,0 l/m 3,7 km/h (1 Bft) SO 135 7,0 C 11,0 C 4,2 km/h (1 Bft)
05.05.2012 07:41 11,7 C 73 % 0,0 l/m 3,7 km/h (1 Bft) SO 135 7,0 C 11,0 C 4,2 km/h (1 Bft)
05.05.2012 07:42 11,9 C 73 % 0,0 l/m 4,8 km/h (1 Bft) O-SO 112 7,2 C 10,9 C 8,4 km/h (2 Bft)
05.05.2012 07:43 11,9 C 73 % 0,0 l/m 4,8 km/h (1 Bft) O-SO 112 7,2 C 10,9 C 8,4 km/h (2 Bft)
05.05.2012 07:44 11,8 C 73 % 0,0 l/m 4,7 km/h (1 Bft) S 180 7,1 C 11,1 C 3,5 km/h (1 Bft)
05.05.2012 07:45 11,8 C 73 % 0,0 l/m 4,7 km/h (1 Bft) S 180 7,1 C 11,1 C 3,5 km/h (1 Bft)
05.05.2012 07:46 11,9 C 73 % 0,0 l/m 4,5 km/h (1 Bft) SO 135 7,2 C 11,2 C 3,1 km/h (1 Bft)
05.05.2012 07:47 11,9 C 73 % 0,0 l/m 4,5 km/h (1 Bft) SO 135 7,2 C 11,2 C 3,1 km/h (1 Bft)
05.05.2012 07:48 11,9 C 73 % 0,0 l/m 4,2 km/h (1 Bft) SO 135 7,2 C 11,2 C 5,6 km/h (1 Bft)
05.05.2012 07:49 11,9 C 73 % 0,0 l/m 4,2 km/h (1 Bft) SO 135 7,2 C 11,2 C 5,6 km/h (1 Bft)
05.05.2012 07:50 12,0 C 73 % 0,0 l/m 4,5 km/h (1 Bft) SO 135 7,3 C 11,3 C 6,9 km/h (2 Bft)
05.05.2012 07:51 12,0 C 73 % 0,0 l/m 4,5 km/h (1 Bft) SO 135 7,3 C 11,3 C 6,9 km/h (2 Bft)
05.05.2012 07:52 12,0 C 73 % 0,0 l/m 4,5 km/h (1 Bft) O-SO 112 7,3 C 11,3 C 5,0 km/h (1 Bft)
05.05.2012 07:53 12,0 C 73 % 0,0 l/m 4,5 km/h (1 Bft) O-SO 112 7,3 C 11,3 C 5,0 km/h (1 Bft)
05.05.2012 07:54 12,0 C 72 % 0,0 l/m 4,5 km/h (1 Bft) S-SO 157 7,1 C 11,3 C 3,7 km/h (1 Bft)
05.05.2012 07:55 12,0 C 72 % 0,0 l/m 4,5 km/h (1 Bft) S-SO 157 7,1 C 11,3 C 3,7 km/h (1 Bft)
05.05.2012 07:56 12,1 C 72 % 0,0 l/m 4,8 km/h (1 Bft) SO 135 7,2 C 11,2 C 7,7 km/h (2 Bft)
05.05.2012 07:57 12,1 C 72 % 0,0 l/m 4,8 km/h (1 Bft) SO 135 7,2 C 11,2 C 7,7 km/h (2 Bft)
05.05.2012 07:58 12,1 C 72 % 0,0 l/m 5,1 km/h (1 Bft) O-SO 112 7,2 C 11,2 C 6,4 km/h (2 Bft)
05.05.2012 07:59 12,1 C 72 % 0,0 l/m 5,1 km/h (1 Bft) O-SO 112 7,2 C 11,2 C 6,4 km/h (2 Bft)
05.05.2012 08:00 12,1 C 72 % 0,0 l/m 5,1 km/h (1 Bft) O-SO 112 7,2 C 11,2 C 6,4 km/h (2 Bft)
05.05.2012 08:01 12,1 C 72 % 0,0 l/m 5,1 km/h (1 Bft) O-SO 112 7,2 C 11,2 C 6,4 km/h (2 Bft)
05.05.2012 08:02 12,1 C 72 % 0,0 l/m 5,3 km/h (1 Bft) O-SO 112 7,2 C 11,2 C 4,5 km/h (1 Bft)
05.05.2012 08:03 12,1 C 72 % 0,0 l/m 5,3 km/h (1 Bft) O-SO 112 7,2 C 11,2 C 4,5 km/h (1 Bft)
05.05.2012 08:04 12,3 C 72 % 0,0 l/m 5,5 km/h (1 Bft) S-SO 157 7,4 C 11,3 C 8,5 km/h (2 Bft)
05.05.2012 08:05 12,3 C 72 % 0,0 l/m 5,5 km/h (1 Bft) S-SO 157 7,4 C 11,3 C 8,5 km/h (2 Bft)
05.05.2012 08:06 12,3 C 72 % 0,0 l/m 5,1 km/h (1 Bft) SO 135 7,4 C 11,4 C 6,3 km/h (2 Bft)
05.05.2012 08:07 12,3 C 72 % 0,0 l/m 5,1 km/h (1 Bft) SO 135 7,4 C 11,4 C 6,3 km/h (2 Bft)
05.05.2012 08:08 12,2 C 72 % 0,0 l/m 5,1 km/h (1 Bft) SO 135 7,3 C 11,6 C 7,2 km/h (2 Bft)
05.05.2012 08:09 12,2 C 72 % 0,0 l/m 5,1 km/h (1 Bft) SO 135 7,3 C 11,6 C 7,2 km/h (2 Bft)
05.05.2012 08:10 12,3 C 72 % 0,0 l/m 4,5 km/h (1 Bft) O-SO 112 7,4 C 11,6 C 4,8 km/h (1 Bft)
05.05.2012 08:11 12,3 C 72 % 0,0 l/m 4,5 km/h (1 Bft) O-SO 112 7,4 C 11,6 C 4,8 km/h (1 Bft)
05.05.2012 08:12 12,5 C 72 % 0,0 l/m 4,3 km/h (1 Bft) S 180 7,6 C 11,7 C 4,3 km/h (1 Bft)
05.05.2012 08:13 12,5 C 72 % 0,0 l/m 4,3 km/h (1 Bft) S 180 7,6 C 11,7 C 4,3 km/h (1 Bft)
05.05.2012 08:14 12,5 C 72 % 0,0 l/m 4,3 km/h (1 Bft) S 180 7,6 C 11,7 C 4,0 km/h (1 Bft)
05.05.2012 08:15 12,5 C 72 % 0,0 l/m 4,3 km/h (1 Bft) S 180 7,6 C 11,7 C 4,0 km/h (1 Bft)
05.05.2012 08:16 12,5 C 72 % 0,0 l/m 4,3 km/h (1 Bft) O-SO 112 7,6 C 11,9 C 5,8 km/h (2 Bft)
05.05.2012 08:17 12,5 C 72 % 0,0 l/m 4,3 km/h (1 Bft) O-SO 112 7,6 C 11,9 C 5,8 km/h (2 Bft)
05.05.2012 08:18 12,7 C 71 % 0,0 l/m 4,8 km/h (1 Bft) O-SO 112 7,6 C 12,0 C 9,3 km/h (2 Bft)
05.05.2012 08:19 12,7 C 71 % 0,0 l/m 4,8 km/h (1 Bft) O-SO 112 7,6 C 12,0 C 9,3 km/h (2 Bft)
05.05.2012 08:20 12,6 C 71 % 0,0 l/m 4,8 km/h (1 Bft) O-SO 112 7,5 C 12,0 C 9,3 km/h (2 Bft)
05.05.2012 08:21 12,6 C 71 % 0,0 l/m 4,8 km/h (1 Bft) O-SO 112 7,5 C 12,0 C 9,3 km/h (2 Bft)
05.05.2012 08:22 12,7 C 71 % 0,0 l/m 5,5 km/h (1 Bft) NW 315 7,6 C 11,9 C 4,2 km/h (1 Bft)
05.05.2012 08:23 12,7 C 71 % 0,0 l/m 5,5 km/h (1 Bft) NW 315 7,6 C 11,9 C 4,2 km/h (1 Bft)
05.05.2012 08:24 12,9 C 71 % 0,0 l/m 5,0 km/h (1 Bft) SO 135 7,8 C 12,1 C 4,3 km/h (1 Bft)
05.05.2012 08:25 12,9 C 71 % 0,0 l/m 5,0 km/h (1 Bft) SO 135 7,8 C 12,1 C 4,3 km/h (1 Bft)
05.05.2012 08:26 12,8 C 71 % 0,0 l/m 4,7 km/h (1 Bft) SO 135 7,7 C 12,3 C 3,9 km/h (1 Bft)
05.05.2012 08:27 12,8 C 71 % 0,0 l/m 4,7 km/h (1 Bft) SO 135 7,7 C 12,3 C 3,9 km/h (1 Bft)
05.05.2012 08:28 12,9 C 71 % 0,0 l/m 4,2 km/h (1 Bft) O-SO 112 7,8 C 12,3 C 2,4 km/h (1 Bft)
05.05.2012 08:29 12,9 C 71 % 0,0 l/m 4,2 km/h (1 Bft) O-SO 112 7,8 C 12,3 C 2,4 km/h (1 Bft)
05.05.2012 08:30 13,1 C 70 % 0,0 l/m 3,7 km/h (1 Bft) S 180 7,8 C 12,5 C 3,7 km/h (1 Bft)
05.05.2012 08:31 13,1 C 70 % 0,0 l/m 3,7 km/h (1 Bft) S 180 7,8 C 12,5 C 3,7 km/h (1 Bft)
05.05.2012 08:32 13,1 C 70 % 0,0 l/m 3,4 km/h (1 Bft) O-SO 112 7,8 C 12,6 C 5,5 km/h (1 Bft)
05.05.2012 08:33 13,1 C 70 % 0,0 l/m 3,4 km/h (1 Bft) O-SO 112 7,8 C 12,6 C 5,5 km/h (1 Bft)
05.05.2012 08:34 13,1 C 70 % 0,0 l/m 3,4 km/h (1 Bft) SO 135 7,8 C 12,6 C 4,0 km/h (1 Bft)
05.05.2012 08:35 13,1 C 70 % 0,0 l/m 3,4 km/h (1 Bft) SO 135 7,8 C 12,6 C 4,0 km/h (1 Bft)
05.05.2012 08:36 13,2 C 70 % 0,0 l/m 3,9 km/h (1 Bft) O-NO 67 7,9 C 12,8 C 5,6 km/h (1 Bft)
05.05.2012 08:37 13,2 C 70 % 0,0 l/m 3,9 km/h (1 Bft) O-NO 67 7,9 C 12,8 C 5,6 km/h (1 Bft)
05.05.2012 08:38 13,2 C 70 % 0,0 l/m 4,3 km/h (1 Bft) O-SO 112 7,9 C 12,8 C 7,4 km/h (2 Bft)
05.05.2012 08:39 13,2 C 70 % 0,0 l/m 4,3 km/h (1 Bft) O-SO 112 7,9 C 12,8 C 7,4 km/h (2 Bft)
05.05.2012 08:40 13,3 C 70 % 0,0 l/m 4,3 km/h (1 Bft) O-SO 112 7,9 C 12,8 C 7,4 km/h (2 Bft)
05.05.2012 08:41 13,3 C 70 % 0,0 l/m 4,3 km/h (1 Bft) O-SO 112 7,9 C 12,8 C 7,4 km/h (2 Bft)
05.05.2012 08:42 13,5 C 70 % 0,0 l/m 5,1 km/h (1 Bft) S-SO 157 8,1 C 12,9 C 4,2 km/h (1 Bft)
05.05.2012 08:43 13,5 C 70 % 0,0 l/m 5,1 km/h (1 Bft) S-SO 157 8,1 C 12,9 C 4,2 km/h (1 Bft)
05.05.2012 08:44 13,5 C 69 % 0,0 l/m 5,1 km/h (1 Bft) SO 135 7,9 C 13,1 C 6,4 km/h (2 Bft)
05.05.2012 08:45 13,5 C 69 % 0,0 l/m 5,1 km/h (1 Bft) SO 135 7,9 C 13,1 C 6,4 km/h (2 Bft)
05.05.2012 08:46 13,6 C 69 % 0,0 l/m 5,1 km/h (1 Bft) SO 135 8,0 C 13,2 C 6,4 km/h (2 Bft)
05.05.2012 08:47 13,6 C 69 % 0,0 l/m 5,1 km/h (1 Bft) SO 135 8,0 C 13,2 C 6,4 km/h (2 Bft)
05.05.2012 08:48 13,6 C 69 % 0,0 l/m 4,8 km/h (1 Bft) NO 45 8,0 C 13,3 C 3,2 km/h (1 Bft)
05.05.2012 08:49 13,6 C 69 % 0,0 l/m 4,8 km/h (1 Bft) NO 45 8,0 C 13,3 C 3,2 km/h (1 Bft)
05.05.2012 08:50 13,9 C 69 % 0,0 l/m 4,7 km/h (1 Bft) SO 135 8,3 C 13,4 C 5,8 km/h (2 Bft)
05.05.2012 08:51 13,9 C 69 % 0,0 l/m 4,7 km/h (1 Bft) SO 135 8,3 C 13,4 C 5,8 km/h (2 Bft)
05.05.2012 08:52 13,9 C 69 % 0,0 l/m 4,8 km/h (1 Bft) SO 135 8,3 C 13,5 C 7,6 km/h (2 Bft)
05.05.2012 08:53 13,9 C 69 % 0,0 l/m 4,8 km/h (1 Bft) SO 135 8,3 C 13,5 C 7,6 km/h (2 Bft)
05.05.2012 08:54 14,0 C 69 % 0,0 l/m 4,7 km/h (1 Bft) SO 135 8,4 C 13,5 C 3,9 km/h (1 Bft)
05.05.2012 08:55 14,0 C 69 % 0,0 l/m 4,7 km/h (1 Bft) SO 135 8,4 C 13,5 C 3,9 km/h (1 Bft)
05.05.2012 08:56 14,0 C 68 % 0,0 l/m 4,7 km/h (1 Bft) SO 135 8,2 C 13,6 C 4,0 km/h (1 Bft)
05.05.2012 08:57 14,0 C 68 % 0,0 l/m 4,7 km/h (1 Bft) SO 135 8,2 C 13,6 C 4,0 km/h (1 Bft)
05.05.2012 08:58 14,2 C 68 % 0,0 l/m 5,0 km/h (1 Bft) SO 135 8,4 C 13,7 C 6,1 km/h (2 Bft)
05.05.2012 08:59 14,2 C 68 % 0,0 l/m 5,0 km/h (1 Bft) SO 135 8,4 C 13,7 C 6,1 km/h (2 Bft)
05.05.2012 09:00 14,2 C 68 % 0,0 l/m 5,0 km/h (1 Bft) SO 135 8,4 C 13,7 C 6,1 km/h (2 Bft)
05.05.2012 09:01 14,2 C 68 % 0,0 l/m 5,0 km/h (1 Bft) SO 135 8,4 C 13,7 C 6,1 km/h (2 Bft)
05.05.2012 09:02 14,3 C 68 % 0,0 l/m 5,5 km/h (1 Bft) O-SO 112 8,5 C 13,9 C 10,1 km/h (2 Bft)
05.05.2012 09:03 14,3 C 68 % 0,0 l/m 5,5 km/h (1 Bft) O-SO 112 8,5 C 13,9 C 10,1 km/h (2 Bft)
05.05.2012 09:04 14,4 C 68 % 0,0 l/m 6,3 km/h (2 Bft) O 90 8,6 C 14,0 C 22,5 km/h (4 Bft)
05.05.2012 09:05 14,4 C 68 % 0,0 l/m 6,3 km/h (2 Bft) O 90 8,6 C 14,0 C 22,5 km/h (4 Bft)
05.05.2012 09:06 14,3 C 67 % 0,0 l/m 6,9 km/h (2 Bft) W-NW 292 8,3 C 13,4 C 5,5 km/h (1 Bft)
05.05.2012 09:07 14,3 C 67 % 0,0 l/m 6,9 km/h (2 Bft) W-NW 292 8,3 C 13,4 C 5,5 km/h (1 Bft)
05.05.2012 09:08 14,3 C 67 % 0,0 l/m 6,8 km/h (2 Bft) O 90 8,3 C 13,6 C 2,9 km/h (1 Bft)
05.05.2012 09:09 14,3 C 67 % 0,0 l/m 6,8 km/h (2 Bft) O 90 8,3 C 13,6 C 2,9 km/h (1 Bft)
05.05.2012 09:10 14,4 C 67 % 0,0 l/m 6,6 km/h (2 Bft) O-SO 112 8,4 C 13,7 C 10,6 km/h (2 Bft)
05.05.2012 09:11 14,4 C 67 % 0,0 l/m 6,6 km/h (2 Bft) O-SO 112 8,4 C 13,7 C 10,6 km/h (2 Bft)
05.05.2012 09:12 14,4 C 67 % 0,0 l/m 7,4 km/h (2 Bft) O-SO 112 8,4 C 13,1 C 12,9 km/h (3 Bft)
05.05.2012 09:13 14,4 C 67 % 0,0 l/m 7,4 km/h (2 Bft) O-SO 112 8,4 C 13,1 C 12,9 km/h (3 Bft)
05.05.2012 09:14 14,3 C 66 % 0,0 l/m 7,4 km/h (2 Bft) SO 135 8,0 C 12,8 C 12,7 km/h (3 Bft)
05.05.2012 09:15 14,3 C 66 % 0,0 l/m 7,4 km/h (2 Bft) SO 135 8,0 C 12,8 C 12,7 km/h (3 Bft)
05.05.2012 09:16 14,3 C 66 % 0,0 l/m 6,4 km/h (2 Bft) SO 135 8,0 C 13,5 C 9,0 km/h (2 Bft)
05.05.2012 09:17 14,3 C 66 % 0,0 l/m 6,4 km/h (2 Bft) SO 135 8,0 C 13,5 C 9,0 km/h (2 Bft)
05.05.2012 09:18 14,2 C 66 % 0,0 l/m 6,6 km/h (2 Bft) SO 135 7,9 C 13,4 C 6,4 km/h (2 Bft)
05.05.2012 09:19 14,2 C 66 % 0,0 l/m 6,6 km/h (2 Bft) SO 135 7,9 C 13,4 C 6,4 km/h (2 Bft)
05.05.2012 09:20 14,2 C 66 % 0,0 l/m 6,6 km/h (2 Bft) SO 135 7,9 C 13,4 C 6,4 km/h (2 Bft)
05.05.2012 09:21 14,2 C 66 % 0,0 l/m 6,6 km/h (2 Bft) SO 135 7,9 C 13,4 C 6,4 km/h (2 Bft)
05.05.2012 09:22 14,3 C 66 % 0,0 l/m 7,1 km/h (2 Bft) O-SO 112 8,0 C 12,7 C 7,6 km/h (2 Bft)
05.05.2012 09:23 14,3 C 66 % 0,0 l/m 7,1 km/h (2 Bft) O-SO 112 8,0 C 12,7 C 7,6 km/h (2 Bft)
05.05.2012 09:24 14,3 C 66 % 0,0 l/m 6,6 km/h (2 Bft) O 90 8,0 C 13,1 C 5,5 km/h (1 Bft)
05.05.2012 09:25 14,3 C 66 % 0,0 l/m 6,6 km/h (2 Bft) O 90 8,0 C 13,1 C 5,5 km/h (1 Bft)
05.05.2012 09:26 14,3 C 66 % 0,0 l/m 6,9 km/h (2 Bft) O 90 8,0 C 13,0 C 8,7 km/h (2 Bft)
05.05.2012 09:27 14,3 C 66 % 0,0 l/m 6,9 km/h (2 Bft) O 90 8,0 C 13,0 C 8,7 km/h (2 Bft)
05.05.2012 09:28 14,3 C 66 % 0,0 l/m 6,8 km/h (2 Bft) SO 135 8,0 C 13,1 C 12,2 km/h (2 Bft)
05.05.2012 09:29 14,3 C 66 % 0,0 l/m 6,8 km/h (2 Bft) SO 135 8,0 C 13,1 C 12,2 km/h (2 Bft)
05.05.2012 09:30 14,2 C 66 % 0,0 l/m 6,8 km/h (2 Bft) O-SO 112 7,9 C 13,1 C 10,3 km/h (2 Bft)
05.05.2012 09:31 14,2 C 66 % 0,0 l/m 6,8 km/h (2 Bft) O-SO 112 7,9 C 13,1 C 10,3 km/h (2 Bft)
05.05.2012 09:32 14,3 C 66 % 0,0 l/m 6,9 km/h (2 Bft) O 90 8,0 C 12,9 C 9,5 km/h (2 Bft)
05.05.2012 09:33 14,3 C 66 % 0,0 l/m 6,9 km/h (2 Bft) O 90 8,0 C 12,9 C 9,5 km/h (2 Bft)
05.05.2012 09:34 14,2 C 66 % 0,0 l/m 6,8 km/h (2 Bft) SO 135 7,9 C 13,0 C 6,1 km/h (2 Bft)
05.05.2012 09:35 14,2 C 66 % 0,0 l/m 6,8 km/h (2 Bft) SO 135 7,9 C 13,0 C 6,1 km/h (2 Bft)
05.05.2012 09:36 14,3 C 66 % 0,0 l/m 6,9 km/h (2 Bft) O-SO 112 8,0 C 13,0 C 5,8 km/h (2 Bft)
05.05.2012 09:37 14,3 C 66 % 0,0 l/m 6,9 km/h (2 Bft) O-SO 112 8,0 C 13,0 C 5,8 km/h (2 Bft)
05.05.2012 09:38 14,5 C 66 % 0,0 l/m 7,1 km/h (2 Bft) O-SO 112 8,2 C 12,9 C 12,2 km/h (2 Bft)
05.05.2012 09:39 14,5 C 66 % 0,0 l/m 7,1 km/h (2 Bft) O-SO 112 8,2 C 12,9 C 12,2 km/h (2 Bft)
05.05.2012 09:40 14,4 C 66 % 0,0 l/m 7,1 km/h (2 Bft) O-SO 112 8,1 C 12,9 C 12,2 km/h (2 Bft)
05.05.2012 09:41 14,4 C 66 % 0,0 l/m 7,1 km/h (2 Bft) O-SO 112 8,1 C 12,9 C 12,2 km/h (2 Bft)
05.05.2012 09:42 14,4 C 66 % 0,0 l/m 6,8 km/h (2 Bft) SO 135 8,1 C 13,1 C 8,7 km/h (2 Bft)
05.05.2012 09:43 14,4 C 66 % 0,0 l/m 6,8 km/h (2 Bft) SO 135 8,1 C 13,1 C 8,7 km/h (2 Bft)
05.05.2012 09:44 14,5 C 66 % 0,0 l/m 6,8 km/h (2 Bft) SO 135 8,2 C 13,1 C 8,2 km/h (2 Bft)
05.05.2012 09:45 14,5 C 66 % 0,0 l/m 6,8 km/h (2 Bft) SO 135 8,2 C 13,1 C 8,2 km/h (2 Bft)
05.05.2012 09:46 14,4 C 66 % 0,0 l/m 6,9 km/h (2 Bft) SO 135 8,1 C 13,0 C 11,4 km/h (2 Bft)
05.05.2012 09:47 14,4 C 66 % 0,0 l/m 6,9 km/h (2 Bft) SO 135 8,1 C 13,0 C 11,4 km/h (2 Bft)
05.05.2012 09:48 14,4 C 66 % 0,0 l/m 7,2 km/h (2 Bft) S 180 8,1 C 12,7 C 8,0 km/h (2 Bft)
05.05.2012 09:49 14,4 C 66 % 0,0 l/m 7,2 km/h (2 Bft) S 180 8,1 C 12,7 C 8,0 km/h (2 Bft)
05.05.2012 09:50 14,4 C 66 % 0,0 l/m 6,9 km/h (2 Bft) O-SO 112 8,1 C 13,0 C 8,0 km/h (2 Bft)
05.05.2012 09:51 14,4 C 66 % 0,0 l/m 6,9 km/h (2 Bft) O-SO 112 8,1 C 13,0 C 8,0 km/h (2 Bft)
05.05.2012 09:52 14,3 C 66 % 0,0 l/m 7,1 km/h (2 Bft) S-SO 157 8,0 C 12,7 C 11,1 km/h (2 Bft)
05.05.2012 09:53 14,3 C 66 % 0,0 l/m 7,1 km/h (2 Bft) S-SO 157 8,0 C 12,7 C 11,1 km/h (2 Bft)
05.05.2012 09:54 14,3 C 66 % 0,0 l/m 7,2 km/h (2 Bft) S-SO 157 8,0 C 12,4 C 8,5 km/h (2 Bft)
05.05.2012 09:55 14,3 C 66 % 0,0 l/m 7,2 km/h (2 Bft) S-SO 157 8,0 C 12,4 C 8,5 km/h (2 Bft)
05.05.2012 09:56 14,3 C 66 % 0,0 l/m 7,4 km/h (2 Bft) O 90 8,0 C 12,3 C 12,4 km/h (3 Bft)
05.05.2012 09:57 14,3 C 66 % 0,0 l/m 7,4 km/h (2 Bft) O 90 8,0 C 12,3 C 12,4 km/h (3 Bft)
05.05.2012 09:58 14,3 C 66 % 0,0 l/m 7,7 km/h (2 Bft) O-SO 112 8,0 C 12,0 C 13,2 km/h (3 Bft)
05.05.2012 09:59 14,3 C 66 % 0,0 l/m 7,7 km/h (2 Bft) O-SO 112 8,0 C 12,0 C 13,2 km/h (3 Bft)
05.05.2012 10:00 14,3 C 66 % 0,0 l/m 7,7 km/h (2 Bft) O-SO 112 8,0 C 12,0 C 13,2 km/h (3 Bft)
05.05.2012 10:01 14,3 C 66 % 0,0 l/m 7,7 km/h (2 Bft) O-SO 112 8,0 C 12,0 C 13,2 km/h (3 Bft)
05.05.2012 10:02 14,3 C 66 % 0,0 l/m 7,6 km/h (2 Bft) S 180 8,0 C 12,0 C 7,2 km/h (2 Bft)
05.05.2012 10:03 14,3 C 66 % 0,0 l/m 7,6 km/h (2 Bft) S 180 8,0 C 12,0 C 7,2 km/h (2 Bft)
05.05.2012 10:04 14,3 C 66 % 0,0 l/m 7,6 km/h (2 Bft) S 180 8,0 C 12,0 C 11,9 km/h (2 Bft)
05.05.2012 10:05 14,3 C 66 % 0,0 l/m 7,6 km/h (2 Bft) S 180 8,0 C 12,0 C 11,9 km/h (2 Bft)
05.05.2012 10:06 14,3 C 67 % 0,0 l/m 7,4 km/h (2 Bft) O-SO 112 8,3 C 12,3 C 9,3 km/h (2 Bft)
05.05.2012 10:07 14,3 C 67 % 0,0 l/m 7,4 km/h (2 Bft) O-SO 112 8,3 C 12,3 C 9,3 km/h (2 Bft)
05.05.2012 10:08 14,4 C 67 % 0,0 l/m 6,6 km/h (2 Bft) SO 135 8,4 C 12,9 C 3,5 km/h (1 Bft)
05.05.2012 10:09 14,4 C 67 % 0,0 l/m 6,6 km/h (2 Bft) SO 135 8,4 C 12,9 C 3,5 km/h (1 Bft)
05.05.2012 10:10 14,4 C 67 % 0,0 l/m 6,0 km/h (2 Bft) SO 135 8,4 C 13,3 C 5,3 km/h (1 Bft)
05.05.2012 10:11 14,4 C 67 % 0,0 l/m 6,0 km/h (2 Bft) SO 135 8,4 C 13,3 C 5,3 km/h (1 Bft)
05.05.2012 10:12 14,4 C 67 % 0,0 l/m 5,1 km/h (1 Bft) SO 135 8,4 C 13,5 C 5,1 km/h (1 Bft)
05.05.2012 10:13 14,4 C 67 % 0,0 l/m 5,1 km/h (1 Bft) SO 135 8,4 C 13,5 C 5,1 km/h (1 Bft)
05.05.2012 10:14 14,5 C 67 % 0,0 l/m 5,3 km/h (1 Bft) SO 135 8,4 C 13,7 C 7,7 km/h (2 Bft)
05.05.2012 10:15 14,5 C 67 % 0,0 l/m 5,3 km/h (1 Bft) SO 135 8,4 C 13,7 C 7,7 km/h (2 Bft)
05.05.2012 10:16 14,6 C 67 % 0,0 l/m 5,5 km/h (1 Bft) SO 135 8,5 C 13,8 C 8,4 km/h (2 Bft)
05.05.2012 10:17 14,6 C 67 % 0,0 l/m 5,5 km/h (1 Bft) SO 135 8,5 C 13,8 C 8,4 km/h (2 Bft)
05.05.2012 10:18 14,7 C 65 % 0,0 l/m 6,0 km/h (2 Bft) SO 135 8,2 C 13,8 C 7,2 km/h (2 Bft)
05.05.2012 10:19 14,7 C 65 % 0,0 l/m 6,0 km/h (2 Bft) SO 135 8,2 C 13,8 C 7,2 km/h (2 Bft)
05.05.2012 10:20 14,5 C 66 % 0,0 l/m 6,0 km/h (2 Bft) SO 135 8,2 C 13,8 C 7,2 km/h (2 Bft)
05.05.2012 10:21 14,5 C 66 % 0,0 l/m 6,0 km/h (2 Bft) SO 135 8,2 C 13,8 C 7,2 km/h (2 Bft)
05.05.2012 10:22 14,5 C 66 % 0,0 l/m 7,9 km/h (2 Bft) SO 135 8,2 C 12,3 C 20,0 km/h (4 Bft)
05.05.2012 10:23 14,5 C 66 % 0,0 l/m 7,9 km/h (2 Bft) SO 135 8,2 C 12,3 C 20,0 km/h (4 Bft)
05.05.2012 10:24 14,5 C 65 % 0,0 l/m 9,5 km/h (2 Bft) S-SO 157 8,0 C 11,1 C 10,9 km/h (2 Bft)
05.05.2012 10:25 14,5 C 65 % 0,0 l/m 9,5 km/h (2 Bft) S-SO 157 8,0 C 11,1 C 10,9 km/h (2 Bft)
05.05.2012 10:26 14,4 C 66 % 0,0 l/m 10,0 km/h (2 Bft) O-SO 112 8,1 C 10,6 C 11,3 km/h (2 Bft)
05.05.2012 10:27 14,4 C 66 % 0,0 l/m 10,0 km/h (2 Bft) O-SO 112 8,1 C 10,6 C 11,3 km/h (2 Bft)
05.05.2012 10:28 14,5 C 66 % 0,0 l/m 10,0 km/h (2 Bft) S 180 8,2 C 10,4 C 10,5 km/h (2 Bft)
05.05.2012 10:29 14,5 C 66 % 0,0 l/m 10,0 km/h (2 Bft) S 180 8,2 C 10,4 C 10,5 km/h (2 Bft)
05.05.2012 10:30 14,4 C 66 % 0,0 l/m 10,3 km/h (2 Bft) S-SO 157 8,1 C 10,1 C 10,6 km/h (2 Bft)
05.05.2012 10:31 14,4 C 66 % 0,0 l/m 10,3 km/h (2 Bft) S-SO 157 8,1 C 10,1 C 10,6 km/h (2 Bft)
05.05.2012 10:32 14,4 C 66 % 0,0 l/m 9,8 km/h (2 Bft) S 180 8,1 C 10,5 C 8,0 km/h (2 Bft)
05.05.2012 10:33 14,4 C 66 % 0,0 l/m 9,8 km/h (2 Bft) S 180 8,1 C 10,5 C 8,0 km/h (2 Bft)
05.05.2012 10:34 14,4 C 67 % 0,0 l/m 8,4 km/h (2 Bft) S 180 8,4 C 11,6 C 6,6 km/h (2 Bft)
05.05.2012 10:35 14,4 C 67 % 0,0 l/m 8,4 km/h (2 Bft) S 180 8,4 C 11,6 C 6,6 km/h (2 Bft)
05.05.2012 10:36 14,5 C 67 % 0,0 l/m 7,4 km/h (2 Bft) S-SO 157 8,4 C 12,3 C 6,9 km/h (2 Bft)
05.05.2012 10:37 14,5 C 67 % 0,0 l/m 7,4 km/h (2 Bft) S-SO 157 8,4 C 12,3 C 6,9 km/h (2 Bft)
05.05.2012 10:38 14,4 C 67 % 0,0 l/m 6,6 km/h (2 Bft) S-SW 202 8,4 C 13,1 C 10,0 km/h (2 Bft)
05.05.2012 10:39 14,4 C 67 % 0,0 l/m 6,6 km/h (2 Bft) S-SW 202 8,4 C 13,1 C 10,0 km/h (2 Bft)
05.05.2012 10:40 14,3 C 67 % 0,0 l/m 6,6 km/h (2 Bft) S-SW 202 8,3 C 13,1 C 10,0 km/h (2 Bft)
05.05.2012 10:41 14,3 C 67 % 0,0 l/m 6,6 km/h (2 Bft) S-SW 202 8,3 C 13,1 C 10,0 km/h (2 Bft)
05.05.2012 10:42 14,1 C 67 % 0,0 l/m 6,9 km/h (2 Bft) SO 135 8,1 C 12,6 C 8,5 km/h (2 Bft)
05.05.2012 10:43 14,1 C 67 % 0,0 l/m 6,9 km/h (2 Bft) SO 135 8,1 C 12,6 C 8,5 km/h (2 Bft)
05.05.2012 10:44 13,9 C 66 % 0,0 l/m 8,0 km/h (2 Bft) SO 135 7,7 C 11,4 C 16,4 km/h (3 Bft)
05.05.2012 10:45 13,9 C 66 % 0,0 l/m 8,0 km/h (2 Bft) SO 135 7,7 C 11,4 C 16,4 km/h (3 Bft)
05.05.2012 10:46 13,7 C 66 % 0,0 l/m 8,4 km/h (2 Bft) SO 135 7,5 C 10,8 C 6,8 km/h (2 Bft)
05.05.2012 10:47 13,7 C 66 % 0,0 l/m 8,4 km/h (2 Bft) SO 135 7,5 C 10,8 C 6,8 km/h (2 Bft)
05.05.2012 10:48 13,7 C 67 % 0,0 l/m 9,3 km/h (2 Bft) O-SO 112 7,7 C 9,9 C 13,0 km/h (3 Bft)
05.05.2012 10:49 13,7 C 67 % 0,0 l/m 9,3 km/h (2 Bft) O-SO 112 7,7 C 9,9 C 13,0 km/h (3 Bft)
05.05.2012 10:50 13,5 C 67 % 0,0 l/m 9,7 km/h (2 Bft) O-SO 112 7,5 C 9,3 C 10,9 km/h (2 Bft)
05.05.2012 10:51 13,5 C 67 % 0,0 l/m 9,7 km/h (2 Bft) O-SO 112 7,5 C 9,3 C 10,9 km/h (2 Bft)
05.05.2012 10:52 13,5 C 67 % 0,0 l/m 9,5 km/h (2 Bft) SO 135 7,5 C 9,4 C 15,6 km/h (3 Bft)
05.05.2012 10:53 13,5 C 67 % 0,0 l/m 9,5 km/h (2 Bft) SO 135 7,5 C 9,4 C 15,6 km/h (3 Bft)
05.05.2012 10:54 13,5 C 67 % 0,0 l/m 9,7 km/h (2 Bft) SO 135 7,5 C 9,0 C 10,0 km/h (2 Bft)
05.05.2012 10:55 13,5 C 67 % 0,0 l/m 9,7 km/h (2 Bft) SO 135 7,5 C 9,0 C 10,0 km/h (2 Bft)
05.05.2012 10:56 13,3 C 67 % 0,0 l/m 9,3 km/h (2 Bft) NW 315 7,3 C 9,1 C 10,0 km/h (2 Bft)
05.05.2012 10:57 13,3 C 67 % 0,0 l/m 9,3 km/h (2 Bft) NW 315 7,3 C 9,1 C 10,0 km/h (2 Bft)
05.05.2012 10:58 13,3 C 67 % 0,0 l/m 9,5 km/h (2 Bft) O-SO 112 7,3 C 8,8 C 13,0 km/h (3 Bft)
05.05.2012 10:59 13,3 C 67 % 0,0 l/m 9,5 km/h (2 Bft) O-SO 112 7,3 C 8,8 C 13,0 km/h (3 Bft)
05.05.2012 11:00 13,2 C 67 % 0,0 l/m 9,5 km/h (2 Bft) O-SO 112 7,2 C 8,8 C 13,0 km/h (3 Bft)
05.05.2012 11:01 13,2 C 67 % 0,0 l/m 9,5 km/h (2 Bft) O-SO 112 7,2 C 8,8 C 13,0 km/h (3 Bft)
05.05.2012 11:02 13,3 C 68 % 0,0 l/m 8,9 km/h (2 Bft) S-SO 157 7,5 C 9,2 C 15,6 km/h (3 Bft)
05.05.2012 11:03 13,3 C 68 % 0,0 l/m 8,9 km/h (2 Bft) S-SO 157 7,5 C 9,2 C 15,6 km/h (3 Bft)
05.05.2012 11:04 13,2 C 67 % 0,0 l/m 8,4 km/h (2 Bft) SO 135 7,2 C 9,5 C 7,2 km/h (2 Bft)
05.05.2012 11:05 13,2 C 67 % 0,0 l/m 8,4 km/h (2 Bft) SO 135 7,2 C 9,5 C 7,2 km/h (2 Bft)
05.05.2012 11:06 13,1 C 68 % 0,0 l/m 8,2 km/h (2 Bft) SO 135 7,3 C 9,8 C 11,7 km/h (2 Bft)
05.05.2012 11:07 13,1 C 68 % 0,0 l/m 8,2 km/h (2 Bft) SO 135 7,3 C 9,8 C 11,7 km/h (2 Bft)
05.05.2012 11:08 13,0 C 68 % 0,0 l/m 7,7 km/h (2 Bft) SO 135 7,2 C 10,2 C 8,4 km/h (2 Bft)
05.05.2012 11:09 13,0 C 68 % 0,0 l/m 7,7 km/h (2 Bft) SO 135 7,2 C 10,2 C 8,4 km/h (2 Bft)
05.05.2012 11:10 12,9 C 68 % 0,0 l/m 7,6 km/h (2 Bft) SO 135 7,1 C 10,1 C 6,3 km/h (2 Bft)
05.05.2012 11:11 12,9 C 68 % 0,0 l/m 7,6 km/h (2 Bft) SO 135 7,1 C 10,1 C 6,3 km/h (2 Bft)
05.05.2012 11:12 12,9 C 68 % 0,0 l/m 7,6 km/h (2 Bft) S-SW 202 7,1 C 10,1 C 7,1 km/h (2 Bft)
05.05.2012 11:13 12,9 C 68 % 0,0 l/m 7,6 km/h (2 Bft) S-SW 202 7,1 C 10,1 C 7,1 km/h (2 Bft)
05.05.2012 11:14 12,9 C 69 % 0,0 l/m 7,6 km/h (2 Bft) SO 135 7,4 C 10,1 C 8,7 km/h (2 Bft)
05.05.2012 11:15 12,9 C 69 % 0,0 l/m 7,6 km/h (2 Bft) SO 135 7,4 C 10,1 C 8,7 km/h (2 Bft)
05.05.2012 11:16 12,9 C 69 % 0,0 l/m 7,1 km/h (2 Bft) S-SO 157 7,4 C 10,4 C 5,1 km/h (1 Bft)
05.05.2012 11:17 12,9 C 69 % 0,0 l/m 7,1 km/h (2 Bft) S-SO 157 7,4 C 10,4 C 5,1 km/h (1 Bft)
05.05.2012 11:18 12,8 C 69 % 0,0 l/m 6,3 km/h (2 Bft) SO 135 7,3 C 11,1 C 2,9 km/h (1 Bft)
05.05.2012 11:19 12,8 C 69 % 0,0 l/m 6,3 km/h (2 Bft) SO 135 7,3 C 11,1 C 2,9 km/h (1 Bft)
05.05.2012 11:20 12,8 C 69 % 0,0 l/m 6,3 km/h (2 Bft) SO 135 7,3 C 11,1 C 2,9 km/h (1 Bft)
05.05.2012 11:21 12,8 C 69 % 0,0 l/m 6,3 km/h (2 Bft) SO 135 7,3 C 11,1 C 2,9 km/h (1 Bft)
05.05.2012 11:22 12,9 C 69 % 0,0 l/m 4,5 km/h (1 Bft) S 180 7,4 C 11,5 C 3,7 km/h (1 Bft)
05.05.2012 11:23 12,9 C 69 % 0,0 l/m 4,5 km/h (1 Bft) S 180 7,4 C 11,5 C 3,7 km/h (1 Bft)
05.05.2012 11:24 12,9 C 70 % 0,0 l/m 4,0 km/h (1 Bft) SW 225 7,6 C 11,4 C 5,1 km/h (1 Bft)
05.05.2012 11:25 12,9 C 70 % 0,0 l/m 4,0 km/h (1 Bft) SW 225 7,6 C 11,4 C 5,1 km/h (1 Bft)
05.05.2012 11:26 12,9 C 70 % 0,0 l/m 3,9 km/h (1 Bft) SO 135 7,6 C 11,4 C 6,1 km/h (2 Bft)
05.05.2012 11:27 12,9 C 70 % 0,0 l/m 3,9 km/h (1 Bft) SO 135 7,6 C 11,4 C 6,1 km/h (2 Bft)
05.05.2012 11:28 12,9 C 70 % 0,0 l/m 4,5 km/h (1 Bft) S-SO 157 7,6 C 11,3 C 7,9 km/h (2 Bft)
05.05.2012 11:29 12,9 C 70 % 0,0 l/m 4,5 km/h (1 Bft) S-SO 157 7,6 C 11,3 C 7,9 km/h (2 Bft)
05.05.2012 11:30 12,9 C 70 % 0,0 l/m 5,0 km/h (1 Bft) SO 135 7,6 C 11,1 C 8,4 km/h (2 Bft)
05.05.2012 11:31 12,9 C 70 % 0,0 l/m 5,0 km/h (1 Bft) SO 135 7,6 C 11,1 C 8,4 km/h (2 Bft)
05.05.2012 11:32 12,8 C 70 % 0,0 l/m 5,6 km/h (1 Bft) S 180 7,5 C 10,8 C 5,6 km/h (1 Bft)
05.05.2012 11:33 12,8 C 70 % 0,0 l/m 5,6 km/h (1 Bft) S 180 7,5 C 10,8 C 5,6 km/h (1 Bft)
05.05.2012 11:34 12,8 C 70 % 0,0 l/m 6,0 km/h (2 Bft) S-SO 157 7,5 C 10,6 C 7,2 km/h (2 Bft)
05.05.2012 11:35 12,8 C 70 % 0,0 l/m 6,0 km/h (2 Bft) S-SO 157 7,5 C 10,6 C 7,2 km/h (2 Bft)
05.05.2012 11:36 12,8 C 70 % 0,0 l/m 6,0 km/h (2 Bft) S-SO 157 7,5 C 10,3 C 9,7 km/h (2 Bft)
05.05.2012 11:37 12,8 C 70 % 0,0 l/m 6,0 km/h (2 Bft) S-SO 157 7,5 C 10,3 C 9,7 km/h (2 Bft)
05.05.2012 11:38 12,7 C 70 % 0,0 l/m 6,4 km/h (2 Bft) SO 135 7,4 C 10,2 C 12,2 km/h (2 Bft)
05.05.2012 11:39 12,7 C 70 % 0,0 l/m 6,4 km/h (2 Bft) SO 135 7,4 C 10,2 C 12,2 km/h (2 Bft)
05.05.2012 11:40 12,6 C 71 % 0,0 l/m 6,4 km/h (2 Bft) SO 135 7,5 C 10,2 C 12,2 km/h (2 Bft)
05.05.2012 11:41 12,6 C 71 % 0,0 l/m 6,4 km/h (2 Bft) SO 135 7,5 C 10,2 C 12,2 km/h (2 Bft)
05.05.2012 11:42 12,7 C 71 % 0,0 l/m 6,6 km/h (2 Bft) SO 135 7,6 C 9,6 C 10,8 km/h (2 Bft)
05.05.2012 11:43 12,7 C 71 % 0,0 l/m 6,6 km/h (2 Bft) SO 135 7,6 C 9,6 C 10,8 km/h (2 Bft)
05.05.2012 11:44 12,6 C 72 % 0,0 l/m 6,8 km/h (2 Bft) O-SO 112 7,7 C 9,4 C 6,8 km/h (2 Bft)
05.05.2012 11:45 12,6 C 72 % 0,0 l/m 6,8 km/h (2 Bft) O-SO 112 7,7 C 9,4 C 6,8 km/h (2 Bft)
05.05.2012 11:46 12,5 C 72 % 0,0 l/m 6,9 km/h (2 Bft) S-SO 157 7,6 C 9,2 C 6,9 km/h (2 Bft)
05.05.2012 11:47 12,5 C 72 % 0,0 l/m 6,9 km/h (2 Bft) S-SO 157 7,6 C 9,2 C 6,9 km/h (2 Bft)
05.05.2012 11:48 12,5 C 72 % 0,0 l/m 6,4 km/h (2 Bft) S-SO 157 7,6 C 9,7 C 4,2 km/h (1 Bft)
05.05.2012 11:49 12,5 C 72 % 0,0 l/m 6,4 km/h (2 Bft) S-SO 157 7,6 C 9,7 C 4,2 km/h (1 Bft)
05.05.2012 11:50 12,6 C 73 % 0,0 l/m 5,8 km/h (2 Bft) O-SO 112 7,9 C 9,8 C 12,2 km/h (2 Bft)
05.05.2012 11:51 12,6 C 73 % 0,0 l/m 5,8 km/h (2 Bft) O-SO 112 7,9 C 9,8 C 12,2 km/h (2 Bft)
05.05.2012 11:52 12,7 C 73 % 0,0 l/m 5,6 km/h (1 Bft) O-SO 112 8,0 C 9,9 C 7,2 km/h (2 Bft)
05.05.2012 11:53 12,7 C 73 % 0,0 l/m 5,6 km/h (1 Bft) O-SO 112 8,0 C 9,9 C 7,2 km/h (2 Bft)
05.05.2012 11:54 12,5 C 72 % 0,0 l/m 5,5 km/h (1 Bft) O 90 7,6 C 9,8 C 12,9 km/h (3 Bft)
05.05.2012 11:55 12,5 C 72 % 0,0 l/m 5,5 km/h (1 Bft) O 90 7,6 C 9,8 C 12,9 km/h (3 Bft)
05.05.2012 11:56 12,4 C 72 % 0,0 l/m 6,6 km/h (2 Bft) SO 135 7,5 C 9,3 C 11,7 km/h (2 Bft)
05.05.2012 11:57 12,4 C 72 % 0,0 l/m 6,6 km/h (2 Bft) SO 135 7,5 C 9,3 C 11,7 km/h (2 Bft)
05.05.2012 11:58 12,3 C 72 % 0,0 l/m 7,1 km/h (2 Bft) O 90 7,4 C 8,8 C 10,8 km/h (2 Bft)
05.05.2012 11:59 12,3 C 72 % 0,0 l/m 7,1 km/h (2 Bft) O 90 7,4 C 8,8 C 10,8 km/h (2 Bft)
05.05.2012 12:00 12,2 C 72 % 0,0 l/m 7,1 km/h (2 Bft) O 90 7,3 C 8,8 C 10,8 km/h (2 Bft)
05.05.2012 12:01 12,2 C 72 % 0,0 l/m 7,1 km/h (2 Bft) O 90 7,3 C 8,8 C 10,8 km/h (2 Bft)
05.05.2012 12:02 12,3 C 72 % 0,0 l/m 8,9 km/h (2 Bft) O-SO 112 7,4 C 6,9 C 8,0 km/h (2 Bft)
05.05.2012 12:03 12,3 C 72 % 0,0 l/m 8,9 km/h (2 Bft) O-SO 112 7,4 C 6,9 C 8,0 km/h (2 Bft)
05.05.2012 12:04 12,2 C 72 % 0,0 l/m 8,7 km/h (2 Bft) SO 135 7,3 C 7,0 C 8,9 km/h (2 Bft)
05.05.2012 12:05 12,2 C 72 % 0,0 l/m 8,7 km/h (2 Bft) SO 135 7,3 C 7,0 C 8,9 km/h (2 Bft)
05.05.2012 12:06 12,2 C 72 % 0,0 l/m 8,4 km/h (2 Bft) O-SO 112 7,3 C 7,3 C 12,2 km/h (2 Bft)
05.05.2012 12:07 12,2 C 72 % 0,0 l/m 8,4 km/h (2 Bft) O-SO 112 7,3 C 7,3 C 12,2 km/h (2 Bft)
05.05.2012 12:08 12,2 C 72 % 0,0 l/m 8,2 km/h (2 Bft) S-SO 157 7,3 C 7,5 C 10,1 km/h (2 Bft)
05.05.2012 12:09 12,2 C 72 % 0,0 l/m 8,2 km/h (2 Bft) S-SO 157 7,3 C 7,5 C 10,1 km/h (2 Bft)
05.05.2012 12:10 12,3 C 72 % 0,0 l/m 6,9 km/h (2 Bft) SO 135 7,4 C 8,8 C 2,6 km/h (1 Bft)
05.05.2012 12:11 12,3 C 72 % 0,0 l/m 6,9 km/h (2 Bft) SO 135 7,4 C 8,8 C 2,6 km/h (1 Bft)
05.05.2012 12:12 12,4 C 72 % 0,0 l/m 6,4 km/h (2 Bft) SO 135 7,5 C 9,4 C 2,9 km/h (1 Bft)
05.05.2012 12:13 12,4 C 72 % 0,0 l/m 6,4 km/h (2 Bft) SO 135 7,5 C 9,4 C 2,9 km/h (1 Bft)
05.05.2012 12:14 12,5 C 72 % 0,0 l/m 6,3 km/h (2 Bft) SO 135 7,6 C 9,8 C 9,0 km/h (2 Bft)
05.05.2012 12:15 12,5 C 72 % 0,0 l/m 6,3 km/h (2 Bft) SO 135 7,6 C 9,8 C 9,0 km/h (2 Bft)
05.05.2012 12:16 12,6 C 71 % 0,0 l/m 6,4 km/h (2 Bft) O-NO 67 7,5 C 9,9 C 6,8 km/h (2 Bft)
05.05.2012 12:17 12,6 C 71 % 0,0 l/m 6,4 km/h (2 Bft) O-NO 67 7,5 C 9,9 C 6,8 km/h (2 Bft)
05.05.2012 12:18 12,5 C 70 % 0,0 l/m 6,8 km/h (2 Bft) SO 135 7,2 C 9,8 C 14,5 km/h (3 Bft)
05.05.2012 12:19 12,5 C 70 % 0,0 l/m 6,8 km/h (2 Bft) SO 135 7,2 C 9,8 C 14,5 km/h (3 Bft)
05.05.2012 12:20 12,5 C 71 % 0,0 l/m 6,8 km/h (2 Bft) SO 135 7,4 C 9,8 C 14,5 km/h (3 Bft)
05.05.2012 12:21 12,5 C 71 % 0,0 l/m 6,8 km/h (2 Bft) SO 135 7,4 C 9,8 C 14,5 km/h (3 Bft)
05.05.2012 12:22 12,3 C 70 % 0,0 l/m 7,7 km/h (2 Bft) S-SO 157 7,0 C 9,0 C 13,0 km/h (3 Bft)
05.05.2012 12:23 12,3 C 70 % 0,0 l/m 7,7 km/h (2 Bft) S-SO 157 7,0 C 9,0 C 13,0 km/h (3 Bft)
05.05.2012 12:24 12,1 C 71 % 0,0 l/m 9,2 km/h (2 Bft) O-SO 112 7,0 C 7,5 C 14,0 km/h (3 Bft)
05.05.2012 12:25 12,1 C 71 % 0,0 l/m 9,2 km/h (2 Bft) O-SO 112 7,0 C 7,5 C 14,0 km/h (3 Bft)
05.05.2012 12:26 12,0 C 71 % 0,0 l/m 9,3 km/h (2 Bft) S 180 6,9 C 7,1 C 10,9 km/h (2 Bft)
05.05.2012 12:27 12,0 C 71 % 0,0 l/m 9,3 km/h (2 Bft) S 180 6,9 C 7,1 C 10,9 km/h (2 Bft)
05.05.2012 12:28 11,9 C 71 % 0,0 l/m 8,7 km/h (2 Bft) O-SO 112 6,8 C 7,4 C 5,3 km/h (1 Bft)
05.05.2012 12:29 11,9 C 71 % 0,0 l/m 8,7 km/h (2 Bft) O-SO 112 6,8 C 7,4 C 5,3 km/h (1 Bft)
05.05.2012 12:30 11,7 C 71 % 0,0 l/m 8,4 km/h (2 Bft) O-NO 67 6,6 C 7,4 C 13,4 km/h (3 Bft)
05.05.2012 12:31 11,7 C 71 % 0,0 l/m 8,4 km/h (2 Bft) O-NO 67 6,6 C 7,4 C 13,4 km/h (3 Bft)
05.05.2012 12:32 11,7 C 71 % 0,0 l/m 8,7 km/h (2 Bft) S-SO 157 6,6 C 7,0 C 13,2 km/h (3 Bft)
05.05.2012 12:33 11,7 C 71 % 0,0 l/m 8,7 km/h (2 Bft) S-SO 157 6,6 C 7,0 C 13,2 km/h (3 Bft)
05.05.2012 12:34 11,6 C 72 % 0,0 l/m 8,9 km/h (2 Bft) SO 135 6,7 C 6,5 C 7,7 km/h (2 Bft)
05.05.2012 12:35 11,6 C 72 % 0,0 l/m 8,9 km/h (2 Bft) SO 135 6,7 C 6,5 C 7,7 km/h (2 Bft)
05.05.2012 12:36 11,5 C 72 % 0,0 l/m 8,4 km/h (2 Bft) SO 135 6,6 C 6,7 C 12,7 km/h (3 Bft)
05.05.2012 12:37 11,5 C 72 % 0,0 l/m 8,4 km/h (2 Bft) SO 135 6,6 C 6,7 C 12,7 km/h (3 Bft)
05.05.2012 12:38 11,4 C 73 % 0,0 l/m 8,2 km/h (2 Bft) S 180 6,7 C 6,7 C 4,0 km/h (1 Bft)
05.05.2012 12:39 11,4 C 73 % 0,0 l/m 8,2 km/h (2 Bft) S 180 6,7 C 6,7 C 4,0 km/h (1 Bft)
05.05.2012 12:40 11,3 C 73 % 0,0 l/m 8,2 km/h (2 Bft) S 180 6,6 C 6,7 C 4,0 km/h (1 Bft)
05.05.2012 12:41 11,3 C 73 % 0,0 l/m 8,2 km/h (2 Bft) S 180 6,6 C 6,7 C 4,0 km/h (1 Bft)
05.05.2012 12:42 11,2 C 74 % 0,0 l/m 7,2 km/h (2 Bft) S-SO 157 6,7 C 7,1 C 6,1 km/h (2 Bft)
05.05.2012 12:43 11,2 C 74 % 0,0 l/m 7,2 km/h (2 Bft) S-SO 157 6,7 C 7,1 C 6,1 km/h (2 Bft)
05.05.2012 12:44 11,3 C 74 % 0,0 l/m 6,0 km/h (2 Bft) O-SO 112 6,8 C 8,0 C 6,8 km/h (2 Bft)
05.05.2012 12:45 11,3 C 74 % 0,0 l/m 6,0 km/h (2 Bft) O-SO 112 6,8 C 8,0 C 6,8 km/h (2 Bft)
05.05.2012 12:46 11,3 C 75 % 0,0 l/m 5,6 km/h (1 Bft) O-SO 112 7,0 C 7,9 C 4,8 km/h (1 Bft)
05.05.2012 12:47 11,3 C 75 % 0,0 l/m 5,6 km/h (1 Bft) O-SO 112 7,0 C 7,9 C 4,8 km/h (1 Bft)
05.05.2012 12:48 11,3 C 76 % 0,0 l/m 5,1 km/h (1 Bft) O 90 7,2 C 8,1 C 10,1 km/h (2 Bft)
05.05.2012 12:49 11,3 C 76 % 0,0 l/m 5,1 km/h (1 Bft) O 90 7,2 C 8,1 C 10,1 km/h (2 Bft)
05.05.2012 12:50 11,3 C 76 % 0,0 l/m 5,5 km/h (1 Bft) SO 135 7,2 C 8,0 C 5,8 km/h (2 Bft)
05.05.2012 12:51 11,3 C 76 % 0,0 l/m 5,5 km/h (1 Bft) SO 135 7,2 C 8,0 C 5,8 km/h (2 Bft)
05.05.2012 12:52 11,3 C 76 % 0,0 l/m 4,8 km/h (1 Bft) O-SO 112 7,2 C 8,3 C 7,7 km/h (2 Bft)
05.05.2012 12:53 11,3 C 76 % 0,0 l/m 4,8 km/h (1 Bft) O-SO 112 7,2 C 8,3 C 7,7 km/h (2 Bft)
05.05.2012 12:54 11,5 C 76 % 0,0 l/m 6,0 km/h (2 Bft) SO 135 7,4 C 8,1 C 16,4 km/h (3 Bft)
05.05.2012 12:55 11,5 C 76 % 0,0 l/m 6,0 km/h (2 Bft) SO 135 7,4 C 8,1 C 16,4 km/h (3 Bft)
05.05.2012 12:56 11,5 C 76 % 0,0 l/m 7,1 km/h (2 Bft) SO 135 7,4 C 7,2 C 15,6 km/h (3 Bft)
05.05.2012 12:57 11,5 C 76 % 0,0 l/m 7,1 km/h (2 Bft) SO 135 7,4 C 7,2 C 15,6 km/h (3 Bft)
05.05.2012 12:58 11,4 C 76 % 0,0 l/m 7,6 km/h (2 Bft) O 90 7,3 C 6,8 C 9,7 km/h (2 Bft)
05.05.2012 12:59 11,4 C 76 % 0,0 l/m 7,6 km/h (2 Bft) O 90 7,3 C 6,8 C 9,7 km/h (2 Bft)
05.05.2012 13:00 11,5 C 76 % 0,0 l/m 7,6 km/h (2 Bft) O 90 7,4 C 6,8 C 9,7 km/h (2 Bft)
05.05.2012 13:01 11,5 C 76 % 0,0 l/m 7,6 km/h (2 Bft) O 90 7,4 C 6,8 C 9,7 km/h (2 Bft)
05.05.2012 13:02 11,5 C 76 % 0,0 l/m 7,7 km/h (2 Bft) O-SO 112 7,4 C 6,9 C 8,7 km/h (2 Bft)
05.05.2012 13:03 11,5 C 76 % 0,0 l/m 7,7 km/h (2 Bft) O-SO 112 7,4 C 6,9 C 8,7 km/h (2 Bft)
05.05.2012 13:04 11,5 C 76 % 0,0 l/m 7,4 km/h (2 Bft) SO 135 7,4 C 7,1 C 9,7 km/h (2 Bft)
05.05.2012 13:05 11,5 C 76 % 0,0 l/m 7,4 km/h (2 Bft) SO 135 7,4 C 7,1 C 9,7 km/h (2 Bft)
05.05.2012 13:06 11,5 C 76 % 0,0 l/m 6,8 km/h (2 Bft) O-SO 112 7,4 C 7,9 C 8,7 km/h (2 Bft)
05.05.2012 13:07 11,5 C 76 % 0,0 l/m 6,8 km/h (2 Bft) O-SO 112 7,4 C 7,9 C 8,7 km/h (2 Bft)
05.05.2012 13:08 11,5 C 76 % 0,0 l/m 6,1 km/h (2 Bft) O-SO 112 7,4 C 8,4 C 11,3 km/h (2 Bft)
05.05.2012 13:09 11,5 C 76 % 0,0 l/m 6,1 km/h (2 Bft) O-SO 112 7,4 C 8,4 C 11,3 km/h (2 Bft)
05.05.2012 13:10 11,5 C 76 % 0,0 l/m 6,0 km/h (2 Bft) O-SO 112 7,4 C 8,6 C 4,2 km/h (1 Bft)
05.05.2012 13:11 11,5 C 76 % 0,0 l/m 6,0 km/h (2 Bft) O-SO 112 7,4 C 8,6 C 4,2 km/h (1 Bft)
05.05.2012 13:12 11,5 C 76 % 0,0 l/m 5,3 km/h (1 Bft) O-SO 112 7,4 C 8,8 C 5,3 km/h (1 Bft)
05.05.2012 13:13 11,5 C 76 % 0,0 l/m 5,3 km/h (1 Bft) O-SO 112 7,4 C 8,8 C 5,3 km/h (1 Bft)
05.05.2012 13:14 11,6 C 76 % 0,0 l/m 5,6 km/h (1 Bft) O-SO 112 7,5 C 8,8 C 7,1 km/h (2 Bft)
05.05.2012 13:15 11,6 C 76 % 0,0 l/m 5,6 km/h (1 Bft) O-SO 112 7,5 C 8,8 C 7,1 km/h (2 Bft)
05.05.2012 13:16 11,6 C 76 % 0,0 l/m 5,3 km/h (1 Bft) O-SO 112 7,5 C 8,9 C 11,7 km/h (2 Bft)
05.05.2012 13:17 11,6 C 76 % 0,0 l/m 5,3 km/h (1 Bft) O-SO 112 7,5 C 8,9 C 11,7 km/h (2 Bft)
05.05.2012 13:18 11,6 C 76 % 0,0 l/m 5,1 km/h (1 Bft) SO 135 7,5 C 9,1 C 5,1 km/h (1 Bft)
05.05.2012 13:19 11,6 C 76 % 0,0 l/m 5,1 km/h (1 Bft) SO 135 7,5 C 9,1 C 5,1 km/h (1 Bft)
05.05.2012 13:20 11,6 C 76 % 0,0 l/m 5,1 km/h (1 Bft) SO 135 7,5 C 9,1 C 5,1 km/h (1 Bft)
05.05.2012 13:21 11,6 C 76 % 0,0 l/m 5,1 km/h (1 Bft) SO 135 7,5 C 9,1 C 5,1 km/h (1 Bft)
05.05.2012 13:22 11,6 C 75 % 0,0 l/m 5,1 km/h (1 Bft) SO 135 7,3 C 9,4 C 8,2 km/h (2 Bft)
05.05.2012 13:23 11,6 C 75 % 0,0 l/m 5,1 km/h (1 Bft) SO 135 7,3 C 9,4 C 8,2 km/h (2 Bft)
05.05.2012 13:24 11,8 C 75 % 0,0 l/m 5,3 km/h (1 Bft) O 90 7,5 C 9,4 C 4,3 km/h (1 Bft)
05.05.2012 13:25 11,8 C 75 % 0,0 l/m 5,3 km/h (1 Bft) O 90 7,5 C 9,4 C 4,3 km/h (1 Bft)
05.05.2012 13:26 11,9 C 75 % 0,0 l/m 5,1 km/h (1 Bft) O-SO 112 7,6 C 9,6 C 2,7 km/h (1 Bft)
05.05.2012 13:27 11,9 C 75 % 0,0 l/m 5,1 km/h (1 Bft) O-SO 112 7,6 C 9,6 C 2,7 km/h (1 Bft)
05.05.2012 13:28 12,1 C 75 % 0,0 l/m 4,2 km/h (1 Bft) O-SO 112 7,8 C 10,2 C 2,9 km/h (1 Bft)
05.05.2012 13:29 12,1 C 75 % 0,0 l/m 4,2 km/h (1 Bft) O-SO 112 7,8 C 10,2 C 2,9 km/h (1 Bft)
05.05.2012 13:30 12,2 C 75 % 0,0 l/m 3,7 km/h (1 Bft) W-NW 292 7,9 C 10,6 C 0,0 km/h (0 Bft)
05.05.2012 13:31 12,2 C 75 % 0,0 l/m 3,7 km/h (1 Bft) W-NW 292 7,9 C 10,6 C 0,0 km/h (0 Bft)
05.05.2012 13:32 12,4 C 75 % 0,0 l/m 3,1 km/h (1 Bft) O 90 8,1 C 10,8 C 4,7 km/h (1 Bft)
05.05.2012 13:33 12,4 C 75 % 0,0 l/m 3,1 km/h (1 Bft) O 90 8,1 C 10,8 C 4,7 km/h (1 Bft)
05.05.2012 13:34 12,7 C 75 % 0,0 l/m 2,6 km/h (1 Bft) O 90 8,4 C 11,3 C 4,7 km/h (1 Bft)
05.05.2012 13:35 12,7 C 75 % 0,0 l/m 2,6 km/h (1 Bft) O 90 8,4 C 11,3 C 4,7 km/h (1 Bft)
05.05.2012 13:36 12,8 C 74 % 0,0 l/m 2,1 km/h (1 Bft) O 90 8,3 C 11,6 C 0,0 km/h (0 Bft)
05.05.2012 13:37 12,8 C 74 % 0,0 l/m 2,1 km/h (1 Bft) O 90 8,3 C 11,6 C 0,0 km/h (0 Bft)
05.05.2012 13:38 13,1 C 74 % 0,0 l/m 2,1 km/h (1 Bft) O-SO 112 8,6 C 11,7 C 3,2 km/h (1 Bft)
05.05.2012 13:39 13,1 C 74 % 0,0 l/m 2,1 km/h (1 Bft) O-SO 112 8,6 C 11,7 C 3,2 km/h (1 Bft)
05.05.2012 13:40 13,1 C 74 % 0,0 l/m 2,1 km/h (1 Bft) O-SO 112 8,6 C 11,7 C 3,2 km/h (1 Bft)
05.05.2012 13:41 13,1 C 74 % 0,0 l/m 2,1 km/h (1 Bft) O-SO 112 8,6 C 11,7 C 3,2 km/h (1 Bft)
05.05.2012 13:42 13,3 C 73 % 0,0 l/m 2,3 km/h (1 Bft) SO 135 8,6 C 12,3 C 0,0 km/h (0 Bft)
05.05.2012 13:43 13,3 C 73 % 0,0 l/m 2,3 km/h (1 Bft) SO 135 8,6 C 12,3 C 0,0 km/h (0 Bft)
05.05.2012 13:44 13,3 C 73 % 0,0 l/m 2,3 km/h (1 Bft) SO 135 8,6 C 12,5 C 4,7 km/h (1 Bft)
05.05.2012 13:45 13,3 C 73 % 0,0 l/m 2,3 km/h (1 Bft) SO 135 8,6 C 12,5 C 4,7 km/h (1 Bft)
05.05.2012 13:46 13,3 C 72 % 0,0 l/m 2,4 km/h (1 Bft) O 90 8,4 C 12,5 C 3,9 km/h (1 Bft)
05.05.2012 13:47 13,3 C 72 % 0,0 l/m 2,4 km/h (1 Bft) O 90 8,4 C 12,5 C 3,9 km/h (1 Bft)
05.05.2012 13:48 13,5 C 71 % 0,0 l/m 2,7 km/h (1 Bft) O-SO 112 8,3 C 12,5 C 5,0 km/h (1 Bft)
05.05.2012 13:49 13,5 C 71 % 0,0 l/m 2,7 km/h (1 Bft) O-SO 112 8,3 C 12,5 C 5,0 km/h (1 Bft)
05.05.2012 13:50 13,5 C 72 % 0,0 l/m 2,7 km/h (1 Bft) O-SO 112 8,6 C 12,5 C 5,0 km/h (1 Bft)
05.05.2012 13:51 13,5 C 72 % 0,0 l/m 2,9 km/h (1 Bft) NO 45 8,6 C 12,6 C 2,6 km/h (1 Bft)
05.05.2012 13:52 13,4 C 71 % 0,0 l/m 2,4 km/h (1 Bft) NW 315 8,3 C 12,7 C 0,0 km/h (0 Bft)
05.05.2012 13:53 13,4 C 71 % 0,0 l/m 2,4 km/h (1 Bft) NW 315 8,3 C 12,7 C 0,0 km/h (0 Bft)
05.05.2012 13:54 13,6 C 71 % 0,0 l/m 2,4 km/h (1 Bft) NW 315 8,4 C 12,7 C 0,0 km/h (0 Bft)
05.05.2012 13:55 13,6 C 71 % 0,0 l/m 2,7 km/h (1 Bft) S-SO 157 8,4 C 12,8 C 2,4 km/h (1 Bft)
05.05.2012 13:56 13,7 C 70 % 0,0 l/m 2,7 km/h (1 Bft) S-SO 157 8,3 C 12,8 C 2,4 km/h (1 Bft)
05.05.2012 13:57 13,7 C 70 % 0,0 l/m 2,7 km/h (1 Bft) S 180 8,3 C 12,9 C 4,0 km/h (1 Bft)
05.05.2012 13:58 13,7 C 70 % 0,0 l/m 2,7 km/h (1 Bft) S 180 8,3 C 12,9 C 4,0 km/h (1 Bft)
05.05.2012 13:59 13,7 C 70 % 0,0 l/m 2,9 km/h (1 Bft) SO 135 8,3 C 12,9 C 2,6 km/h (1 Bft)
05.05.2012 14:00 13,9 C 69 % 0,0 l/m 2,9 km/h (1 Bft) SO 135 8,3 C 12,9 C 2,6 km/h (1 Bft)
05.05.2012 14:01 13,9 C 69 % 0,0 l/m 2,9 km/h (1 Bft) SO 135 8,3 C 12,9 C 2,6 km/h (1 Bft)
05.05.2012 14:02 14,3 C 69 % 0,0 l/m 3,1 km/h (1 Bft) S-SW 202 8,7 C 13,2 C 3,7 km/h (1 Bft)
05.05.2012 14:03 14,3 C 69 % 0,0 l/m 3,1 km/h (1 Bft) S-SW 202 8,7 C 13,2 C 3,7 km/h (1 Bft)
05.05.2012 14:04 14,6 C 69 % 0,0 l/m 3,9 km/h (1 Bft) SO 135 9,0 C 13,5 C 5,8 km/h (2 Bft)
05.05.2012 14:05 14,6 C 69 % 0,0 l/m 3,9 km/h (1 Bft) SO 135 9,0 C 13,5 C 5,8 km/h (2 Bft)
05.05.2012 14:06 14,9 C 68 % 0,0 l/m 4,2 km/h (1 Bft) S-SO 157 9,0 C 13,8 C 7,9 km/h (2 Bft)
05.05.2012 14:07 14,9 C 68 % 0,0 l/m 4,2 km/h (1 Bft) S-SO 157 9,0 C 13,8 C 7,9 km/h (2 Bft)
05.05.2012 14:08 14,8 C 67 % 0,0 l/m 4,5 km/h (1 Bft) SO 135 8,7 C 14,1 C 8,2 km/h (2 Bft)
05.05.2012 14:09 14,8 C 67 % 0,0 l/m 4,5 km/h (1 Bft) SO 135 8,7 C 14,1 C 8,2 km/h (2 Bft)
05.05.2012 14:10 14,8 C 66 % 0,0 l/m 5,0 km/h (1 Bft) O-SO 112 8,5 C 14,1 C 10,8 km/h (2 Bft)
05.05.2012 14:11 14,8 C 66 % 0,0 l/m 5,0 km/h (1 Bft) O-SO 112 8,5 C 14,1 C 10,8 km/h (2 Bft)
05.05.2012 14:12 14,9 C 67 % 0,0 l/m 6,1 km/h (2 Bft) O-SO 112 8,8 C 13,9 C 10,1 km/h (2 Bft)
05.05.2012 14:13 14,9 C 67 % 0,0 l/m 6,1 km/h (2 Bft) O-SO 112 8,8 C 13,9 C 10,1 km/h (2 Bft)
05.05.2012 14:14 14,9 C 67 % 0,0 l/m 6,0 km/h (2 Bft) SO 135 8,8 C 13,6 C 9,7 km/h (2 Bft)
05.05.2012 14:15 14,9 C 67 % 0,0 l/m 6,0 km/h (2 Bft) SO 135 8,8 C 13,6 C 9,7 km/h (2 Bft)
05.05.2012 14:16 14,7 C 67 % 0,0 l/m 5,8 km/h (2 Bft) O-SO 112 8,6 C 13,6 C 4,8 km/h (1 Bft)
05.05.2012 14:17 14,7 C 67 % 0,0 l/m 5,8 km/h (2 Bft) O-SO 112 8,6 C 13,6 C 4,8 km/h (1 Bft)
05.05.2012 14:18 14,7 C 67 % 0,0 l/m 5,8 km/h (2 Bft) SO 135 8,6 C 13,7 C 5,3 km/h (1 Bft)
05.05.2012 14:19 14,7 C 67 % 0,0 l/m 5,8 km/h (2 Bft) SO 135 8,6 C 13,7 C 5,3 km/h (1 Bft)
05.05.2012 14:20 14,6 C 67 % 0,0 l/m 5,8 km/h (2 Bft) SO 135 8,5 C 13,7 C 5,3 km/h (1 Bft)
05.05.2012 14:21 14,6 C 67 % 0,0 l/m 5,8 km/h (2 Bft) SO 135 8,5 C 13,7 C 5,3 km/h (1 Bft)
05.05.2012 14:22 14,6 C 66 % 0,0 l/m 5,3 km/h (1 Bft) SO 135 8,3 C 13,6 C 6,8 km/h (2 Bft)
05.05.2012 14:23 14,6 C 66 % 0,0 l/m 5,3 km/h (1 Bft) SO 135 8,3 C 13,6 C 6,8 km/h (2 Bft)
05.05.2012 14:24 14,5 C 67 % 0,0 l/m 5,0 km/h (1 Bft) SO 135 8,4 C 13,5 C 5,0 km/h (1 Bft)
05.05.2012 14:25 14,5 C 67 % 0,0 l/m 5,0 km/h (1 Bft) SO 135 8,4 C 13,5 C 5,0 km/h (1 Bft)
05.05.2012 14:26 14,5 C 66 % 0,0 l/m 5,0 km/h (1 Bft) SO 135 8,2 C 13,5 C 5,0 km/h (1 Bft)
05.05.2012 14:27 14,5 C 66 % 0,0 l/m 5,0 km/h (1 Bft) SO 135 8,2 C 13,5 C 5,0 km/h (1 Bft)
05.05.2012 14:28 14,5 C 66 % 0,0 l/m 4,5 km/h (1 Bft) O-SO 112 8,2 C 13,5 C 4,0 km/h (1 Bft)
05.05.2012 14:29 14,5 C 66 % 0,0 l/m 4,5 km/h (1 Bft) O-SO 112 8,2 C 13,5 C 4,0 km/h (1 Bft)
05.05.2012 14:30 14,5 C 66 % 0,0 l/m 4,5 km/h (1 Bft) SO 135 8,2 C 13,5 C 7,4 km/h (2 Bft)
05.05.2012 14:31 14,5 C 66 % 0,0 l/m 4,5 km/h (1 Bft) SO 135 8,2 C 13,5 C 7,4 km/h (2 Bft)
05.05.2012 14:32 14,5 C 65 % 0,0 l/m 4,3 km/h (1 Bft) SO 135 8,0 C 13,5 C 7,9 km/h (2 Bft)
05.05.2012 14:33 14,5 C 65 % 0,0 l/m 4,3 km/h (1 Bft) SO 135 8,0 C 13,5 C 7,9 km/h (2 Bft)
05.05.2012 14:34 14,7 C 65 % 0,0 l/m 4,5 km/h (1 Bft) O-SO 112 8,2 C 13,5 C 9,2 km/h (2 Bft)
05.05.2012 14:35 14,7 C 65 % 0,0 l/m 4,5 km/h (1 Bft) O-SO 112 8,2 C 13,5 C 9,2 km/h (2 Bft)
05.05.2012 14:36 14,6 C 65 % 0,0 l/m 4,7 km/h (1 Bft) O-SO 112 8,1 C 13,6 C 4,7 km/h (1 Bft)
05.05.2012 14:37 14,6 C 65 % 0,0 l/m 4,7 km/h (1 Bft) O-SO 112 8,1 C 13,6 C 4,7 km/h (1 Bft)
05.05.2012 14:38 14,8 C 65 % 0,0 l/m 4,5 km/h (1 Bft) SO 135 8,3 C 13,6 C 4,5 km/h (1 Bft)
05.05.2012 14:39 14,8 C 65 % 0,0 l/m 4,5 km/h (1 Bft) SO 135 8,3 C 13,6 C 4,5 km/h (1 Bft)
05.05.2012 14:40 14,9 C 65 % 0,0 l/m 4,5 km/h (1 Bft) SO 135 8,4 C 13,6 C 4,5 km/h (1 Bft)
05.05.2012 14:41 14,9 C 65 % 0,0 l/m 4,5 km/h (1 Bft) SO 135 8,4 C 13,6 C 4,5 km/h (1 Bft)
05.05.2012 14:42 15,0 C 66 % 0,0 l/m 4,3 km/h (1 Bft) SO 135 8,7 C 14,1 C 5,5 km/h (1 Bft)
05.05.2012 14:43 15,0 C 66 % 0,0 l/m 4,3 km/h (1 Bft) SO 135 8,7 C 14,1 C 5,5 km/h (1 Bft)
05.05.2012 14:44 15,2 C 65 % 0,0 l/m 4,3 km/h (1 Bft) SO 135 8,7 C 14,1 C 5,5 km/h (1 Bft)
05.05.2012 14:45 15,2 C 65 % 0,0 l/m 3,9 km/h (1 Bft) O-SO 112 8,7 C 14,4 C 6,6 km/h (2 Bft)
05.05.2012 14:46 15,3 C 64 % 0,0 l/m 3,9 km/h (1 Bft) O-SO 112 8,5 C 14,4 C 6,6 km/h (2 Bft)
05.05.2012 14:47 15,3 C 64 % 0,0 l/m 3,4 km/h (1 Bft) O-SO 112 8,5 C 14,6 C 5,3 km/h (1 Bft)
05.05.2012 14:48 15,3 C 64 % 0,0 l/m 3,4 km/h (1 Bft) O-SO 112 8,5 C 14,6 C 5,3 km/h (1 Bft)
05.05.2012 14:49 15,3 C 64 % 0,0 l/m 3,4 km/h (1 Bft) SO 135 8,5 C 14,7 C 2,9 km/h (1 Bft)
05.05.2012 14:50 15,5 C 64 % 0,0 l/m 3,4 km/h (1 Bft) SO 135 8,7 C 14,7 C 2,9 km/h (1 Bft)
05.05.2012 14:51 15,5 C 64 % 0,0 l/m 3,5 km/h (1 Bft) SO 135 8,7 C 14,9 C 6,0 km/h (2 Bft)
05.05.2012 14:52 15,7 C 63 % 0,0 l/m 3,5 km/h (1 Bft) SO 135 8,7 C 14,9 C 6,0 km/h (2 Bft)
05.05.2012 14:53 15,7 C 63 % 0,0 l/m 3,5 km/h (1 Bft) SO 135 8,7 C 15,2 C 3,9 km/h (1 Bft)
05.05.2012 14:54 16,0 C 63 % 0,0 l/m 3,5 km/h (1 Bft) SO 135 9,0 C 15,2 C 3,9 km/h (1 Bft)
05.05.2012 14:55 16,0 C 63 % 0,0 l/m 3,5 km/h (1 Bft) S-SO 157 9,0 C 15,3 C 4,5 km/h (1 Bft)
05.05.2012 14:56 16,0 C 63 % 0,0 l/m 3,5 km/h (1 Bft) S-SO 157 9,0 C 15,3 C 4,5 km/h (1 Bft)
05.05.2012 14:57 16,0 C 63 % 0,0 l/m 3,7 km/h (1 Bft) SO 135 9,0 C 15,6 C 3,9 km/h (1 Bft)
05.05.2012 14:58 16,3 C 63 % 0,0 l/m 3,4 km/h (1 Bft) S 180 9,2 C 15,8 C 1,8 km/h (1 Bft)
05.05.2012 14:59 16,3 C 63 % 0,0 l/m 3,4 km/h (1 Bft) S 180 9,2 C 15,8 C 1,8 km/h (1 Bft)
05.05.2012 15:00 16,2 C 62 % 0,0 l/m 3,4 km/h (1 Bft) S 180 8,9 C 15,8 C 1,8 km/h (1 Bft)
05.05.2012 15:01 16,2 C 62 % 0,0 l/m 3,4 km/h (1 Bft) S 180 8,9 C 15,8 C 1,8 km/h (1 Bft)
05.05.2012 15:02 16,3 C 63 % 0,0 l/m 3,4 km/h (1 Bft) O-SO 112 9,2 C 16,4 C 3,9 km/h (1 Bft)
05.05.2012 15:03 16,3 C 63 % 0,0 l/m 3,4 km/h (1 Bft) O-SO 112 9,2 C 16,4 C 3,9 km/h (1 Bft)
05.05.2012 15:04 16,5 C 62 % 0,0 l/m 3,4 km/h (1 Bft) O-SO 112 9,2 C 16,4 C 3,9 km/h (1 Bft)
05.05.2012 15:05 16,5 C 62 % 0,0 l/m 3,4 km/h (1 Bft) S 180 9,2 C 16,4 C 2,6 km/h (1 Bft)
05.05.2012 15:06 16,7 C 61 % 0,0 l/m 3,4 km/h (1 Bft) S 180 9,1 C 16,4 C 2,6 km/h (1 Bft)
05.05.2012 15:07 16,7 C 61 % 0,0 l/m 2,7 km/h (1 Bft) S 180 9,1 C 16,6 C 2,3 km/h (1 Bft)
05.05.2012 15:08 17,0 C 62 % 0,0 l/m 2,7 km/h (1 Bft) S 180 9,7 C 16,6 C 2,3 km/h (1 Bft)
05.05.2012 15:09 17,0 C 62 % 0,0 l/m 2,7 km/h (1 Bft) SO 135 9,7 C 17,0 C 7,2 km/h (2 Bft)
05.05.2012 15:10 17,3 C 61 % 0,0 l/m 2,7 km/h (1 Bft) SO 135 9,7 C 17,0 C 7,2 km/h (2 Bft)
05.05.2012 15:11 17,3 C 61 % 0,0 l/m 3,1 km/h (1 Bft) SO 135 9,7 C 17,2 C 3,4 km/h (1 Bft)
05.05.2012 15:12 17,7 C 61 % 0,0 l/m 3,1 km/h (1 Bft) SO 135 10,1 C 17,2 C 3,4 km/h (1 Bft)
05.05.2012 15:13 17,7 C 61 % 0,0 l/m 2,9 km/h (1 Bft) S-SW 202 10,1 C 17,5 C 3,1 km/h (1 Bft)
05.05.2012 15:14 17,5 C 59 % 0,0 l/m 2,9 km/h (1 Bft) S-SW 202 9,4 C 17,5 C 3,1 km/h (1 Bft)
05.05.2012 15:15 17,5 C 59 % 0,0 l/m 3,1 km/h (1 Bft) S-SW 202 9,4 C 18,0 C 7,2 km/h (2 Bft)
05.05.2012 15:16 17,4 C 57 % 0,0 l/m 3,1 km/h (1 Bft) S-SW 202 8,8 C 18,0 C 7,2 km/h (2 Bft)
05.05.2012 15:17 17,4 C 57 % 0,0 l/m 3,4 km/h (1 Bft) S-SW 202 8,8 C 18,2 C 3,7 km/h (1 Bft)
05.05.2012 15:18 17,1 C 58 % 0,0 l/m 3,4 km/h (1 Bft) S-SW 202 8,8 C 18,2 C 3,7 km/h (1 Bft)
05.05.2012 15:19 17,1 C 58 % 0,0 l/m 4,0 km/h (1 Bft) S 180 8,8 C 17,9 C 8,0 km/h (2 Bft)
05.05.2012 15:20 16,9 C 57 % 0,0 l/m 4,0 km/h (1 Bft) S 180 8,3 C 17,9 C 8,0 km/h (2 Bft)
05.05.2012 15:21 16,9 C 57 % 0,0 l/m 4,0 km/h (1 Bft) S 180 8,3 C 17,9 C 8,0 km/h (2 Bft)
05.05.2012 15:22 16,7 C 57 % 0,0 l/m 4,0 km/h (1 Bft) S 180 8,1 C 17,9 C 8,0 km/h (2 Bft)
05.05.2012 15:23 16,7 C 57 % 0,0 l/m 4,8 km/h (1 Bft) S 180 8,1 C 17,2 C 6,4 km/h (2 Bft)
05.05.2012 15:24 16,4 C 58 % 0,0 l/m 4,8 km/h (1 Bft) S 180 8,1 C 17,2 C 6,4 km/h (2 Bft)
05.05.2012 15:25 16,4 C 58 % 0,0 l/m 5,3 km/h (1 Bft) O-SO 112 8,1 C 16,8 C 4,5 km/h (1 Bft)
05.05.2012 15:26 16,4 C 57 % 0,0 l/m 5,3 km/h (1 Bft) O-SO 112 7,9 C 16,8 C 4,5 km/h (1 Bft)
05.05.2012 15:27 16,4 C 57 % 0,0 l/m 6,0 km/h (2 Bft) SO 135 7,9 C 16,4 C 8,9 km/h (2 Bft)
05.05.2012 15:28 16,4 C 58 % 0,0 l/m 6,0 km/h (2 Bft) SO 135 8,1 C 16,4 C 8,9 km/h (2 Bft)
05.05.2012 15:29 16,4 C 58 % 0,0 l/m 6,3 km/h (2 Bft) S 180 8,1 C 16,1 C 4,8 km/h (1 Bft)
05.05.2012 15:30 16,6 C 59 % 0,0 l/m 6,3 km/h (2 Bft) S 180 8,6 C 16,1 C 4,8 km/h (1 Bft)
05.05.2012 15:31 16,6 C 59 % 0,0 l/m 6,4 km/h (2 Bft) S 180 8,6 C 16,0 C 7,2 km/h (2 Bft)
05.05.2012 15:32 16,5 C 58 % 0,0 l/m 6,4 km/h (2 Bft) S 180 8,2 C 16,0 C 7,2 km/h (2 Bft)
05.05.2012 15:33 16,5 C 58 % 0,0 l/m 6,4 km/h (2 Bft) SO 135 8,2 C 16,0 C 4,3 km/h (1 Bft)
05.05.2012 15:34 16,7 C 59 % 0,0 l/m 6,4 km/h (2 Bft) SO 135 8,6 C 16,0 C 4,3 km/h (1 Bft)
05.05.2012 15:35 16,7 C 59 % 0,0 l/m 6,1 km/h (2 Bft) SO 135 8,6 C 16,0 C 9,8 km/h (2 Bft)
05.05.2012 15:36 16,5 C 59 % 0,0 l/m 6,1 km/h (2 Bft) SO 135 8,5 C 16,0 C 9,8 km/h (2 Bft)
05.05.2012 15:37 16,5 C 59 % 0,0 l/m 6,8 km/h (2 Bft) S 180 8,5 C 15,8 C 10,1 km/h (2 Bft)
05.05.2012 15:38 16,4 C 58 % 0,0 l/m 6,8 km/h (2 Bft) S 180 8,1 C 15,8 C 10,1 km/h (2 Bft)
05.05.2012 15:39 16,4 C 58 % 0,0 l/m 6,6 km/h (2 Bft) S 180 8,1 C 15,7 C 10,9 km/h (2 Bft)
05.05.2012 15:40 16,3 C 58 % 0,0 l/m 6,6 km/h (2 Bft) S 180 8,0 C 15,7 C 10,9 km/h (2 Bft)
05.05.2012 15:41 16,3 C 58 % 0,0 l/m 6,6 km/h (2 Bft) S 180 8,0 C 15,7 C 10,9 km/h (2 Bft)
05.05.2012 15:42 16,1 C 58 % 0,0 l/m 6,6 km/h (2 Bft) S 180 7,8 C 15,7 C 10,9 km/h (2 Bft)
05.05.2012 15:43 16,1 C 58 % 0,0 l/m 6,9 km/h (2 Bft) N-NW 337 7,8 C 15,2 C 8,7 km/h (2 Bft)
05.05.2012 15:44 16,1 C 58 % 0,0 l/m 6,9 km/h (2 Bft) N-NW 337 7,8 C 15,2 C 8,7 km/h (2 Bft)
05.05.2012 15:45 16,1 C 58 % 0,0 l/m 7,4 km/h (2 Bft) S 180 7,8 C 14,8 C 9,8 km/h (2 Bft)
05.05.2012 15:46 16,1 C 59 % 0,0 l/m 7,4 km/h (2 Bft) S 180 8,1 C 14,8 C 9,8 km/h (2 Bft)
05.05.2012 15:47 16,1 C 59 % 0,0 l/m 7,1 km/h (2 Bft) S-SO 157 8,1 C 14,8 C 11,6 km/h (2 Bft)
05.05.2012 15:48 16,0 C 59 % 0,0 l/m 7,1 km/h (2 Bft) S-SO 157 8,0 C 14,8 C 11,6 km/h (2 Bft)
05.05.2012 15:49 16,0 C 59 % 0,0 l/m 6,9 km/h (2 Bft) S-SO 157 8,0 C 14,9 C 9,5 km/h (2 Bft)
05.05.2012 15:50 15,9 C 59 % 0,0 l/m 6,9 km/h (2 Bft) S-SO 157 7,9 C 14,9 C 9,5 km/h (2 Bft)
05.05.2012 15:51 15,9 C 59 % 0,0 l/m 6,9 km/h (2 Bft) O-SO 112 7,9 C 14,8 C 6,9 km/h (2 Bft)
05.05.2012 15:52 15,9 C 59 % 0,0 l/m 6,9 km/h (2 Bft) O-SO 112 7,9 C 14,8 C 6,9 km/h (2 Bft)
05.05.2012 15:53 15,9 C 59 % 0,0 l/m 7,1 km/h (2 Bft) O-SO 112 7,9 C 14,6 C 6,9 km/h (2 Bft)
05.05.2012 15:54 15,9 C 59 % 0,0 l/m 7,1 km/h (2 Bft) O-SO 112 7,9 C 14,6 C 6,9 km/h (2 Bft)
05.05.2012 15:55 15,9 C 59 % 0,0 l/m 8,0 km/h (2 Bft) SO 135 7,9 C 13,9 C 21,2 km/h (4 Bft)
05.05.2012 15:56 15,9 C 58 % 0,0 l/m 8,0 km/h (2 Bft) SO 135 7,6 C 13,9 C 21,2 km/h (4 Bft)
05.05.2012 15:57 15,9 C 58 % 0,0 l/m 8,2 km/h (2 Bft) O-SO 112 7,6 C 13,7 C 11,1 km/h (2 Bft)
05.05.2012 15:58 15,7 C 58 % 0,0 l/m 8,2 km/h (2 Bft) O-SO 112 7,5 C 13,7 C 11,1 km/h (2 Bft)
05.05.2012 15:59 15,7 C 58 % 0,0 l/m 8,2 km/h (2 Bft) SO 135 7,5 C 13,5 C 7,4 km/h (2 Bft)
05.05.2012 16:00 15,6 C 58 % 0,0 l/m 8,2 km/h (2 Bft) SO 135 7,4 C 13,5 C 7,4 km/h (2 Bft)
05.05.2012 16:01 15,6 C 58 % 0,0 l/m 8,2 km/h (2 Bft) SO 135 7,4 C 13,5 C 7,4 km/h (2 Bft)
05.05.2012 16:02 15,4 C 58 % 0,0 l/m 7,9 km/h (2 Bft) SO 135 7,2 C 13,4 C 7,2 km/h (2 Bft)
05.05.2012 16:03 15,4 C 58 % 0,0 l/m 7,9 km/h (2 Bft) SO 135 7,2 C 13,4 C 7,2 km/h (2 Bft)
05.05.2012 16:04 15,4 C 58 % 0,0 l/m 7,9 km/h (2 Bft) SO 135 7,2 C 13,4 C 7,2 km/h (2 Bft)
05.05.2012 16:05 15,4 C 58 % 0,0 l/m 8,0 km/h (2 Bft) SO 135 7,2 C 13,1 C 13,2 km/h (3 Bft)
05.05.2012 16:06 15,2 C 58 % 0,0 l/m 8,5 km/h (2 Bft) O-SO 112 7,0 C 12,5 C 17,1 km/h (3 Bft)
05.05.2012 16:07 15,2 C 58 % 0,0 l/m 8,5 km/h (2 Bft) O-SO 112 7,0 C 12,5 C 17,1 km/h (3 Bft)
05.05.2012 16:08 14,9 C 59 % 0,0 l/m 8,5 km/h (2 Bft) O-SO 112 7,0 C 12,5 C 17,1 km/h (3 Bft)
05.05.2012 16:09 14,9 C 59 % 0,0 l/m 9,2 km/h (2 Bft) O-SO 112 7,0 C 11,7 C 14,0 km/h (3 Bft)
05.05.2012 16:10 14,8 C 59 % 0,0 l/m 9,2 km/h (2 Bft) O-SO 112 6,9 C 11,7 C 14,0 km/h (3 Bft)
05.05.2012 16:11 14,8 C 59 % 0,0 l/m 10,0 km/h (2 Bft) S-SO 157 6,9 C 10,7 C 14,2 km/h (3 Bft)
05.05.2012 16:12 14,7 C 59 % 0,0 l/m 10,0 km/h (2 Bft) S-SO 157 6,8 C 10,7 C 14,2 km/h (3 Bft)
05.05.2012 16:13 14,7 C 59 % 0,0 l/m 10,5 km/h (2 Bft) SO 135 6,8 C 10,0 C 5,5 km/h (1 Bft)
05.05.2012 16:14 14,5 C 60 % 0,0 l/m 10,5 km/h (2 Bft) SO 135 6,8 C 10,0 C 5,5 km/h (1 Bft)
05.05.2012 16:15 14,5 C 60 % 0,0 l/m 10,9 km/h (2 Bft) S 180 6,8 C 9,6 C 15,8 km/h (3 Bft)
05.05.2012 16:16 14,4 C 60 % 0,0 l/m 10,9 km/h (2 Bft) S 180 6,7 C 9,6 C 15,8 km/h (3 Bft)
05.05.2012 16:17 14,4 C 60 % 0,0 l/m 10,9 km/h (2 Bft) SO 135 6,7 C 9,2 C 13,2 km/h (3 Bft)
05.05.2012 16:18 14,2 C 61 % 0,0 l/m 10,9 km/h (2 Bft) SO 135 6,8 C 9,2 C 13,2 km/h (3 Bft)
05.05.2012 16:19 14,2 C 61 % 0,0 l/m 10,3 km/h (2 Bft) SO 135 6,8 C 9,4 C 9,8 km/h (2 Bft)
05.05.2012 16:20 14,0 C 62 % 0,0 l/m 10,3 km/h (2 Bft) SO 135 6,8 C 9,4 C 9,8 km/h (2 Bft)
05.05.2012 16:21 14,0 C 62 % 0,0 l/m 10,3 km/h (2 Bft) SO 135 6,8 C 9,4 C 9,8 km/h (2 Bft)
05.05.2012 16:22 14,0 C 63 % 0,0 l/m 10,3 km/h (2 Bft) SO 135 7,1 C 9,4 C 9,8 km/h (2 Bft)
05.05.2012 16:23 14,0 C 63 % 0,0 l/m 9,8 km/h (2 Bft) O-SO 112 7,1 C 8,9 C 10,6 km/h (2 Bft)
05.05.2012 16:24 13,9 C 63 % 0,0 l/m 9,8 km/h (2 Bft) O-SO 112 7,0 C 8,9 C 10,6 km/h (2 Bft)
05.05.2012 16:25 13,9 C 63 % 0,0 l/m 9,5 km/h (2 Bft) SO 135 7,0 C 8,5 C 6,8 km/h (2 Bft)
05.05.2012 16:26 13,7 C 65 % 0,0 l/m 9,5 km/h (2 Bft) SO 135 7,2 C 8,5 C 6,8 km/h (2 Bft)
05.05.2012 16:27 13,7 C 65 % 0,0 l/m 8,9 km/h (2 Bft) O 90 7,2 C 8,6 C 11,1 km/h (2 Bft)
05.05.2012 16:28 13,6 C 67 % 0,0 l/m 8,9 km/h (2 Bft) O 90 7,6 C 8,6 C 11,1 km/h (2 Bft)
05.05.2012 16:29 13,6 C 67 % 0,0 l/m 8,4 km/h (2 Bft) O-NO 67 7,6 C 8,7 C 14,3 km/h (3 Bft)
05.05.2012 16:30 13,3 C 68 % 0,0 l/m 8,4 km/h (2 Bft) O-NO 67 7,5 C 8,7 C 14,3 km/h (3 Bft)
05.05.2012 16:31 13,3 C 68 % 0,0 l/m 9,2 km/h (2 Bft) O-SO 112 7,5 C 7,4 C 13,5 km/h (3 Bft)
05.05.2012 16:32 13,1 C 69 % 0,0 l/m 9,2 km/h (2 Bft) O-SO 112 7,5 C 7,4 C 13,5 km/h (3 Bft)
05.05.2012 16:33 13,1 C 69 % 0,7 l/m 9,2 km/h (2 Bft) SO 135 7,5 C 6,9 C 11,6 km/h (2 Bft)
05.05.2012 16:34 12,8 C 69 % 0,0 l/m 9,2 km/h (2 Bft) SO 135 7,3 C 6,9 C 11,6 km/h (2 Bft)
05.05.2012 16:35 12,8 C 69 % 0,0 l/m 9,5 km/h (2 Bft) SO 135 7,3 C 6,4 C 12,2 km/h (2 Bft)
05.05.2012 16:36 12,7 C 71 % 0,0 l/m 9,5 km/h (2 Bft) SO 135 7,6 C 6,4 C 12,2 km/h (2 Bft)
05.05.2012 16:37 12,7 C 71 % 0,0 l/m 10,0 km/h (2 Bft) O-SO 112 7,6 C 5,6 C 13,4 km/h (3 Bft)
05.05.2012 16:38 12,5 C 72 % 0,0 l/m 10,0 km/h (2 Bft) O-SO 112 7,6 C 5,6 C 13,4 km/h (3 Bft)
05.05.2012 16:39 12,5 C 72 % 0,7 l/m 9,5 km/h (2 Bft) SO 135 7,6 C 5,7 C 10,0 km/h (2 Bft)
05.05.2012 16:40 12,5 C 72 % 0,0 l/m 9,5 km/h (2 Bft) SO 135 7,6 C 5,7 C 10,0 km/h (2 Bft)
05.05.2012 16:41 12,5 C 72 % 0,0 l/m 9,5 km/h (2 Bft) SO 135 7,6 C 5,7 C 10,0 km/h (2 Bft)
05.05.2012 16:42 12,4 C 73 % 0,0 l/m 9,5 km/h (2 Bft) SO 135 7,7 C 5,7 C 10,0 km/h (2 Bft)
05.05.2012 16:43 12,4 C 73 % 0,0 l/m 7,4 km/h (2 Bft) S-SO 157 7,7 C 7,1 C 6,1 km/h (2 Bft)
05.05.2012 16:44 12,3 C 74 % 0,0 l/m 7,4 km/h (2 Bft) S-SO 157 7,8 C 7,1 C 6,1 km/h (2 Bft)
05.05.2012 16:45 12,3 C 74 % 0,0 l/m 7,1 km/h (2 Bft) O-SO 112 7,8 C 7,4 C 9,3 km/h (2 Bft)
05.05.2012 16:46 12,1 C 74 % 0,0 l/m 7,1 km/h (2 Bft) O-SO 112 7,6 C 7,4 C 9,3 km/h (2 Bft)
05.05.2012 16:47 12,1 C 74 % 0,0 l/m 7,2 km/h (2 Bft) SO 135 7,6 C 7,2 C 11,6 km/h (2 Bft)
05.05.2012 16:48 12,0 C 74 % 0,0 l/m 7,2 km/h (2 Bft) SO 135 7,5 C 7,2 C 11,6 km/h (2 Bft)
05.05.2012 16:49 12,0 C 74 % 0,0 l/m 7,4 km/h (2 Bft) SO 135 7,5 C 7,0 C 12,2 km/h (2 Bft)
05.05.2012 16:50 12,0 C 74 % 0,0 l/m 7,4 km/h (2 Bft) SO 135 7,5 C 7,0 C 12,2 km/h (2 Bft)
05.05.2012 16:51 12,0 C 74 % 0,0 l/m 7,6 km/h (2 Bft) O-SO 112 7,5 C 6,8 C 5,8 km/h (2 Bft)
05.05.2012 16:52 12,1 C 74 % 0,0 l/m 7,6 km/h (2 Bft) O-SO 112 7,6 C 6,8 C 5,8 km/h (2 Bft)
05.05.2012 16:53 12,1 C 74 % 0,0 l/m 8,2 km/h (2 Bft) O-SO 112 7,6 C 6,3 C 10,9 km/h (2 Bft)
05.05.2012 16:54 12,0 C 75 % 0,0 l/m 8,2 km/h (2 Bft) O-SO 112 7,7 C 6,3 C 10,9 km/h (2 Bft)
05.05.2012 16:55 12,0 C 75 % 0,0 l/m 8,4 km/h (2 Bft) SO 135 7,7 C 6,2 C 6,8 km/h (2 Bft)
05.05.2012 16:56 12,1 C 75 % 0,0 l/m 8,4 km/h (2 Bft) SO 135 7,8 C 6,2 C 6,8 km/h (2 Bft)
05.05.2012 16:57 12,1 C 75 % 0,0 l/m 8,0 km/h (2 Bft) O-SO 112 7,8 C 6,6 C 6,6 km/h (2 Bft)
05.05.2012 16:58 12,3 C 75 % 0,0 l/m 8,0 km/h (2 Bft) O-SO 112 8,0 C 6,6 C 6,6 km/h (2 Bft)
05.05.2012 16:59 12,3 C 75 % 0,0 l/m 7,4 km/h (2 Bft) O 90 8,0 C 7,6 C 2,9 km/h (1 Bft)
05.05.2012 17:00 12,4 C 75 % 0,0 l/m 7,4 km/h (2 Bft) O 90 8,1 C 7,6 C 2,9 km/h (1 Bft)
05.05.2012 17:01 12,4 C 75 % 0,0 l/m 7,4 km/h (2 Bft) O 90 8,1 C 7,6 C 2,9 km/h (1 Bft)
05.05.2012 17:02 12,8 C 76 % 0,0 l/m 7,4 km/h (2 Bft) O 90 8,7 C 7,6 C 2,9 km/h (1 Bft)
05.05.2012 17:03 12,8 C 76 % 0,0 l/m 5,8 km/h (2 Bft) O-SO 112 8,7 C 9,8 C 6,9 km/h (2 Bft)
05.05.2012 17:04 13,1 C 76 % 0,0 l/m 5,8 km/h (2 Bft) O-SO 112 9,0 C 9,8 C 6,9 km/h (2 Bft)
05.05.2012 17:05 13,1 C 76 % 0,0 l/m 6,0 km/h (2 Bft) SO 135 9,0 C 10,3 C 6,8 km/h (2 Bft)
05.05.2012 17:06 13,3 C 75 % 0,0 l/m 6,0 km/h (2 Bft) SO 135 9,0 C 10,3 C 6,8 km/h (2 Bft)
05.05.2012 17:07 13,3 C 75 % 0,0 l/m 6,0 km/h (2 Bft) O-SO 112 9,0 C 10,6 C 7,4 km/h (2 Bft)
05.05.2012 17:08 13,7 C 74 % 0,0 l/m 6,0 km/h (2 Bft) O-SO 112 9,2 C 10,6 C 7,4 km/h (2 Bft)
05.05.2012 17:09 13,7 C 74 % 0,0 l/m 6,0 km/h (2 Bft) SO 135 9,2 C 11,2 C 4,7 km/h (1 Bft)
05.05.2012 17:10 13,9 C 74 % 0,0 l/m 6,0 km/h (2 Bft) SO 135 9,3 C 11,2 C 4,7 km/h (1 Bft)
05.05.2012 17:11 13,9 C 74 % 0,0 l/m 7,6 km/h (2 Bft) SO 135 9,3 C 10,9 C 13,5 km/h (3 Bft)
05.05.2012 17:12 14,1 C 74 % 0,0 l/m 7,6 km/h (2 Bft) SO 135 9,5 C 10,9 C 13,5 km/h (3 Bft)
05.05.2012 17:13 14,1 C 74 % 0,0 l/m 7,6 km/h (2 Bft) SO 135 9,5 C 11,5 C 6,1 km/h (2 Bft)
05.05.2012 17:14 14,5 C 73 % 0,0 l/m 7,6 km/h (2 Bft) SO 135 9,7 C 11,5 C 6,1 km/h (2 Bft)
05.05.2012 17:15 14,5 C 73 % 0,0 l/m 8,0 km/h (2 Bft) O-SO 112 9,7 C 12,2 C 16,7 km/h (3 Bft)
05.05.2012 17:16 14,8 C 71 % 0,0 l/m 8,0 km/h (2 Bft) O-SO 112 9,6 C 12,2 C 16,7 km/h (3 Bft)
05.05.2012 17:17 14,8 C 71 % 0,0 l/m 8,9 km/h (2 Bft) O-SO 112 9,6 C 12,7 C 14,3 km/h (3 Bft)
05.05.2012 17:18 14,8 C 71 % 0,0 l/m 8,9 km/h (2 Bft) O-SO 112 9,6 C 12,7 C 14,3 km/h (3 Bft)
05.05.2012 17:19 14,8 C 71 % 0,0 l/m 8,7 km/h (2 Bft) S 180 9,6 C 13,2 C 8,9 km/h (2 Bft)
05.05.2012 17:20 14,7 C 69 % 0,0 l/m 8,7 km/h (2 Bft) S 180 9,1 C 13,2 C 8,9 km/h (2 Bft)
05.05.2012 17:21 14,7 C 69 % 0,0 l/m 8,7 km/h (2 Bft) S 180 9,1 C 13,2 C 8,9 km/h (2 Bft)
05.05.2012 17:22 14,7 C 68 % 0,0 l/m 8,7 km/h (2 Bft) S 180 8,9 C 13,2 C 8,9 km/h (2 Bft)
05.05.2012 17:23 14,7 C 68 % 0,0 l/m 8,5 km/h (2 Bft) O-SO 112 8,9 C 14,2 C 10,0 km/h (2 Bft)
05.05.2012 17:24 14,7 C 68 % 0,0 l/m 8,5 km/h (2 Bft) O-SO 112 8,9 C 14,2 C 10,0 km/h (2 Bft)
05.05.2012 17:25 14,7 C 68 % 0,0 l/m 9,2 km/h (2 Bft) O-SO 112 8,9 C 13,4 C 11,4 km/h (2 Bft)
05.05.2012 17:26 14,4 C 67 % 0,0 l/m 9,2 km/h (2 Bft) O-SO 112 8,4 C 13,4 C 11,4 km/h (2 Bft)
05.05.2012 17:27 14,4 C 67 % 0,0 l/m 8,2 km/h (2 Bft) N-NW 337 8,4 C 13,7 C 7,4 km/h (2 Bft)
05.05.2012 17:28 14,4 C 67 % 0,0 l/m 8,2 km/h (2 Bft) N-NW 337 8,4 C 13,7 C 7,4 km/h (2 Bft)
05.05.2012 17:29 14,4 C 67 % 0,0 l/m 8,0 km/h (2 Bft) O-SO 112 8,4 C 13,5 C 9,7 km/h (2 Bft)
05.05.2012 17:30 14,3 C 67 % 0,0 l/m 8,0 km/h (2 Bft) O-SO 112 8,3 C 13,5 C 9,7 km/h (2 Bft)
05.05.2012 17:31 14,3 C 67 % 0,0 l/m 7,7 km/h (2 Bft) O 90 8,3 C 13,0 C 5,6 km/h (1 Bft)
05.05.2012 17:32 14,2 C 68 % 0,0 l/m 7,7 km/h (2 Bft) O 90 8,4 C 13,0 C 5,6 km/h (1 Bft)
05.05.2012 17:33 14,2 C 68 % 0,0 l/m 7,2 km/h (2 Bft) O 90 8,4 C 13,1 C 5,3 km/h (1 Bft)
05.05.2012 17:34 14,0 C 67 % 0,0 l/m 7,2 km/h (2 Bft) O 90 8,0 C 13,1 C 5,3 km/h (1 Bft)
05.05.2012 17:35 14,0 C 67 % 0,0 l/m 6,8 km/h (2 Bft) O-SO 112 8,0 C 13,2 C 5,5 km/h (1 Bft)
05.05.2012 17:36 13,9 C 67 % 0,0 l/m 6,8 km/h (2 Bft) O-SO 112 7,9 C 13,2 C 5,5 km/h (1 Bft)
05.05.2012 17:37 13,9 C 67 % 0,0 l/m 6,1 km/h (2 Bft) S-SO 157 7,9 C 13,1 C 4,0 km/h (1 Bft)
05.05.2012 17:38 13,8 C 67 % 0,0 l/m 6,1 km/h (2 Bft) S-SO 157 7,8 C 13,1 C 4,0 km/h (1 Bft)
05.05.2012 17:39 13,8 C 67 % 0,0 l/m 5,5 km/h (1 Bft) O 90 7,8 C 12,9 C 6,0 km/h (2 Bft)
05.05.2012 17:40 13,6 C 65 % 0,0 l/m 5,5 km/h (1 Bft) O 90 7,1 C 12,9 C 6,0 km/h (2 Bft)
05.05.2012 17:41 13,6 C 65 % 0,0 l/m 5,5 km/h (1 Bft) O 90 7,1 C 12,9 C 6,0 km/h (2 Bft)
05.05.2012 17:42 13,5 C 66 % 0,0 l/m 5,5 km/h (1 Bft) O 90 7,3 C 12,9 C 6,0 km/h (2 Bft)
05.05.2012 17:43 13,5 C 66 % 0,0 l/m 5,5 km/h (1 Bft) O-SO 112 7,3 C 12,2 C 8,5 km/h (2 Bft)
05.05.2012 17:44 13,3 C 66 % 0,0 l/m 5,5 km/h (1 Bft) O-SO 112 7,1 C 12,2 C 8,5 km/h (2 Bft)
05.05.2012 17:45 13,3 C 66 % 0,0 l/m 5,5 km/h (1 Bft) O 90 7,1 C 11,9 C 6,9 km/h (2 Bft)
05.05.2012 17:46 13,3 C 66 % 0,0 l/m 5,5 km/h (1 Bft) O 90 7,1 C 11,9 C 6,9 km/h (2 Bft)
05.05.2012 17:47 13,3 C 66 % 0,0 l/m 5,3 km/h (1 Bft) O-SO 112 7,1 C 11,6 C 6,0 km/h (2 Bft)
05.05.2012 17:48 13,1 C 67 % 0,0 l/m 5,3 km/h (1 Bft) O-SO 112 7,1 C 11,6 C 6,0 km/h (2 Bft)
05.05.2012 17:49 13,1 C 67 % 0,0 l/m 5,5 km/h (1 Bft) O-SO 112 7,1 C 11,2 C 4,5 km/h (1 Bft)
05.05.2012 17:50 13,0 C 67 % 0,0 l/m 5,5 km/h (1 Bft) O-SO 112 7,0 C 11,2 C 4,5 km/h (1 Bft)
05.05.2012 17:51 13,0 C 67 % 0,0 l/m 5,1 km/h (1 Bft) O-SO 112 7,0 C 11,1 C 3,7 km/h (1 Bft)
05.05.2012 17:52 12,9 C 67 % 0,0 l/m 5,1 km/h (1 Bft) O-SO 112 6,9 C 11,1 C 3,7 km/h (1 Bft)
05.05.2012 17:53 12,9 C 67 % 0,0 l/m 4,8 km/h (1 Bft) O 90 6,9 C 10,9 C 7,2 km/h (2 Bft)
05.05.2012 17:54 12,8 C 66 % 0,0 l/m 4,8 km/h (1 Bft) O 90 6,6 C 10,9 C 7,2 km/h (2 Bft)
05.05.2012 17:55 12,8 C 66 % 0,0 l/m 5,1 km/h (1 Bft) W 270 6,6 C 10,3 C 6,8 km/h (2 Bft)
05.05.2012 17:56 12,6 C 67 % 0,0 l/m 5,1 km/h (1 Bft) W 270 6,6 C 10,3 C 6,8 km/h (2 Bft)
05.05.2012 17:57 12,6 C 67 % 0,0 l/m 5,0 km/h (1 Bft) O-SO 112 6,6 C 10,1 C 4,5 km/h (1 Bft)
05.05.2012 17:58 12,4 C 67 % 0,0 l/m 5,0 km/h (1 Bft) O-SO 112 6,4 C 10,1 C 4,5 km/h (1 Bft)
05.05.2012 17:59 12,4 C 67 % 0,0 l/m 4,2 km/h (1 Bft) S 180 6,4 C 9,7 C 3,2 km/h (1 Bft)
05.05.2012 18:00 12,2 C 69 % 0,0 l/m 4,2 km/h (1 Bft) S 180 6,7 C 9,7 C 3,2 km/h (1 Bft)
05.05.2012 18:01 12,2 C 69 % 0,0 l/m 4,2 km/h (1 Bft) S 180 6,7 C 9,7 C 3,2 km/h (1 Bft)
05.05.2012 18:02 12,0 C 71 % 0,0 l/m 4,2 km/h (1 Bft) S 180 6,9 C 9,7 C 3,2 km/h (1 Bft)
05.05.2012 18:03 12,0 C 71 % 0,0 l/m 3,2 km/h (1 Bft) N-NO 22 6,9 C 9,2 C 0,0 km/h (0 Bft)
05.05.2012 18:04 11,8 C 72 % 0,0 l/m 3,2 km/h (1 Bft) N-NO 22 6,9 C 9,2 C 0,0 km/h (0 Bft)
05.05.2012 18:05 11,8 C 72 % 0,7 l/m 2,4 km/h (1 Bft) N-NO 22 6,9 C 9,0 C 0,0 km/h (0 Bft)
05.05.2012 18:06 11,7 C 72 % 0,0 l/m 2,4 km/h (1 Bft) N-NO 22 6,8 C 9,0 C 0,0 km/h (0 Bft)
05.05.2012 18:07 11,7 C 72 % 0,0 l/m 1,3 km/h (1 Bft) S-SW 202 6,8 C 9,0 C 0,0 km/h (0 Bft)
05.05.2012 18:08 11,7 C 73 % 0,0 l/m 1,3 km/h (1 Bft) S-SW 202 7,0 C 9,0 C 0,0 km/h (0 Bft)
05.05.2012 18:09 11,7 C 73 % 0,0 l/m 0,8 km/h (0 Bft) SO 135 7,0 C 8,9 C 2,9 km/h (1 Bft)
05.05.2012 18:10 12,0 C 73 % 0,0 l/m 0,8 km/h (0 Bft) SO 135 7,3 C 8,9 C 2,9 km/h (1 Bft)
05.05.2012 18:11 12,0 C 73 % 0,0 l/m 1,0 km/h (0 Bft) S 180 7,3 C 9,2 C 3,7 km/h (1 Bft)
05.05.2012 18:12 12,3 C 73 % 0,0 l/m 1,0 km/h (0 Bft) S 180 7,6 C 9,2 C 3,7 km/h (1 Bft)
05.05.2012 18:13 12,3 C 73 % 0,0 l/m 1,4 km/h (1 Bft) O-SO 112 7,6 C 9,8 C 6,3 km/h (2 Bft)
05.05.2012 18:14 12,5 C 73 % 0,0 l/m 1,4 km/h (1 Bft) O-SO 112 7,8 C 9,8 C 6,3 km/h (2 Bft)
05.05.2012 18:15 12,5 C 73 % 0,0 l/m 2,1 km/h (1 Bft) SO 135 7,8 C 10,4 C 2,7 km/h (1 Bft)
05.05.2012 18:16 12,5 C 73 % 0,0 l/m 2,1 km/h (1 Bft) SO 135 7,8 C 10,4 C 2,7 km/h (1 Bft)
05.05.2012 18:17 12,5 C 73 % 0,0 l/m 2,4 km/h (1 Bft) O-SO 112 7,8 C 11,0 C 3,4 km/h (1 Bft)
05.05.2012 18:18 12,6 C 73 % 0,0 l/m 2,4 km/h (1 Bft) O-SO 112 7,9 C 11,0 C 3,4 km/h (1 Bft)
05.05.2012 18:19 12,6 C 73 % 0,0 l/m 2,6 km/h (1 Bft) SO 135 7,9 C 11,2 C 4,2 km/h (1 Bft)
05.05.2012 18:20 12,7 C 72 % 0,0 l/m 2,6 km/h (1 Bft) SO 135 7,8 C 11,2 C 4,2 km/h (1 Bft)
05.05.2012 18:21 12,7 C 72 % 0,0 l/m 2,6 km/h (1 Bft) SO 135 7,8 C 11,2 C 4,2 km/h (1 Bft)
05.05.2012 18:22 12,8 C 73 % 0,0 l/m 2,6 km/h (1 Bft) SO 135 8,1 C 11,2 C 4,2 km/h (1 Bft)
05.05.2012 18:23 12,8 C 73 % 0,0 l/m 2,6 km/h (1 Bft) O 90 8,1 C 11,5 C 1,9 km/h (1 Bft)
05.05.2012 18:24 12,8 C 72 % 0,0 l/m 2,6 km/h (1 Bft) O 90 7,9 C 11,5 C 1,9 km/h (1 Bft)
05.05.2012 18:25 12,8 C 72 % 0,0 l/m 2,3 km/h (1 Bft) NO 45 7,9 C 11,6 C 0,0 km/h (0 Bft)
05.05.2012 18:26 12,8 C 73 % 0,0 l/m 2,3 km/h (1 Bft) NO 45 8,1 C 11,6 C 0,0 km/h (0 Bft)
05.05.2012 18:27 12,8 C 73 % 0,0 l/m 1,8 km/h (1 Bft) NO 45 8,1 C 11,7 C 0,0 km/h (0 Bft)
05.05.2012 18:28 12,7 C 72 % 0,0 l/m 1,8 km/h (1 Bft) NO 45 7,8 C 11,7 C 0,0 km/h (0 Bft)
05.05.2012 18:29 12,7 C 72 % 0,0 l/m 1,8 km/h (1 Bft) S-SO 157 7,8 C 11,7 C 6,0 km/h (2 Bft)
05.05.2012 18:30 12,6 C 71 % 0,0 l/m 1,8 km/h (1 Bft) S-SO 157 7,5 C 11,7 C 6,0 km/h (2 Bft)
05.05.2012 18:31 12,6 C 71 % 0,0 l/m 1,8 km/h (1 Bft) S-SO 157 7,5 C 11,6 C 1,8 km/h (1 Bft)
05.05.2012 18:32 12,7 C 71 % 0,0 l/m 1,8 km/h (1 Bft) S-SO 157 7,6 C 11,6 C 1,8 km/h (1 Bft)
05.05.2012 18:33 12,7 C 71 % 0,0 l/m 1,6 km/h (1 Bft) S 180 7,6 C 11,5 C 0,0 km/h (0 Bft)
05.05.2012 18:34 12,7 C 71 % 0,0 l/m 1,6 km/h (1 Bft) S 180 7,6 C 11,5 C 0,0 km/h (0 Bft)
05.05.2012 18:35 12,7 C 71 % 0,0 l/m 1,8 km/h (1 Bft) SO 135 7,6 C 11,5 C 2,3 km/h (1 Bft)
05.05.2012 18:36 12,7 C 72 % 0,0 l/m 1,8 km/h (1 Bft) SO 135 7,8 C 11,5 C 2,3 km/h (1 Bft)
05.05.2012 18:37 12,7 C 72 % 0,0 l/m 1,8 km/h (1 Bft) NO 45 7,8 C 11,6 C 0,0 km/h (0 Bft)
05.05.2012 18:38 12,9 C 73 % 0,0 l/m 1,8 km/h (1 Bft) NO 45 8,2 C 11,6 C 0,0 km/h (0 Bft)
05.05.2012 18:39 12,9 C 73 % 0,0 l/m 1,4 km/h (1 Bft) NW 315 8,2 C 11,9 C 0,0 km/h (0 Bft)
05.05.2012 18:40 13,1 C 73 % 0,0 l/m 1,4 km/h (1 Bft) NW 315 8,4 C 11,9 C 0,0 km/h (0 Bft)
05.05.2012 18:41 13,1 C 73 % 0,0 l/m 1,4 km/h (1 Bft) NW 315 8,4 C 11,9 C 0,0 km/h (0 Bft)
05.05.2012 18:42 13,1 C 72 % 0,0 l/m 1,4 km/h (1 Bft) NW 315 8,2 C 11,9 C 0,0 km/h (0 Bft)
05.05.2012 18:43 13,1 C 72 % 0,0 l/m 1,0 km/h (0 Bft) O-SO 112 8,2 C 13,4 C 2,1 km/h (1 Bft)
05.05.2012 18:44 13,2 C 71 % 0,0 l/m 1,0 km/h (0 Bft) O-SO 112 8,1 C 13,4 C 2,1 km/h (1 Bft)
05.05.2012 18:45 13,2 C 71 % 0,0 l/m 1,0 km/h (0 Bft) SO 135 8,1 C 14,2 C 1,8 km/h (1 Bft)
05.05.2012 18:46 13,2 C 70 % 0,0 l/m 1,0 km/h (0 Bft) SO 135 7,9 C 14,2 C 1,8 km/h (1 Bft)
05.05.2012 18:47 13,2 C 70 % 0,0 l/m 1,0 km/h (0 Bft) W 270 7,9 C 14,8 C 2,6 km/h (1 Bft)
05.05.2012 18:48 13,3 C 70 % 0,0 l/m 1,0 km/h (0 Bft) W 270 7,9 C 14,8 C 2,6 km/h (1 Bft)
05.05.2012 18:49 13,3 C 70 % 0,0 l/m 1,6 km/h (1 Bft) O-SO 112 7,9 C 15,5 C 6,9 km/h (2 Bft)
05.05.2012 18:50 13,2 C 67 % 0,0 l/m 1,6 km/h (1 Bft) O-SO 112 7,2 C 15,5 C 6,9 km/h (2 Bft)
05.05.2012 18:51 13,2 C 67 % 0,0 l/m 2,4 km/h (1 Bft) SO 135 7,2 C 15,8 C 5,8 km/h (2 Bft)
05.05.2012 18:52 13,3 C 67 % 0,0 l/m 2,4 km/h (1 Bft) SO 135 7,3 C 15,8 C 5,8 km/h (2 Bft)
05.05.2012 18:53 13,3 C 67 % 0,0 l/m 2,7 km/h (1 Bft) O-SO 112 7,3 C 16,0 C 4,7 km/h (1 Bft)
05.05.2012 18:54 13,3 C 67 % 0,0 l/m 2,7 km/h (1 Bft) O-SO 112 7,3 C 16,0 C 4,7 km/h (1 Bft)
05.05.2012 18:55 13,3 C 67 % 0,0 l/m 3,2 km/h (1 Bft) SO 135 7,3 C 16,1 C 5,5 km/h (1 Bft)
05.05.2012 18:56 13,3 C 67 % 0,0 l/m 3,2 km/h (1 Bft) SO 135 7,3 C 16,1 C 5,5 km/h (1 Bft)
05.05.2012 18:57 13,3 C 67 % 0,0 l/m 3,5 km/h (1 Bft) O-SO 112 7,3 C 16,2 C 4,8 km/h (1 Bft)
05.05.2012 18:58 13,3 C 67 % 0,0 l/m 3,5 km/h (1 Bft) O-SO 112 7,3 C 16,2 C 4,8 km/h (1 Bft)
05.05.2012 18:59 13,3 C 67 % 0,0 l/m 3,9 km/h (1 Bft) S 180 7,3 C 16,3 C 2,6 km/h (1 Bft)
05.05.2012 19:00 13,3 C 67 % 0,0 l/m 3,9 km/h (1 Bft) S 180 7,3 C 16,3 C 2,6 km/h (1 Bft)
05.05.2012 19:01 13,3 C 67 % 0,0 l/m 3,9 km/h (1 Bft) S 180 7,3 C 16,3 C 2,6 km/h (1 Bft)
05.05.2012 19:02 13,2 C 66 % 0,0 l/m 3,9 km/h (1 Bft) S 180 7,0 C 16,3 C 2,6 km/h (1 Bft)
05.05.2012 19:03 13,2 C 66 % 0,0 l/m 3,2 km/h (1 Bft) O-SO 112 7,0 C 16,5 C 7,4 km/h (2 Bft)
05.05.2012 19:04 13,2 C 66 % 0,0 l/m 3,2 km/h (1 Bft) O-SO 112 7,0 C 16,5 C 7,4 km/h (2 Bft)
05.05.2012 19:05 13,2 C 66 % 0,0 l/m 3,1 km/h (1 Bft) NO 45 7,0 C 16,4 C 2,6 km/h (1 Bft)
05.05.2012 19:06 13,3 C 66 % 0,0 l/m 3,1 km/h (1 Bft) NO 45 7,1 C 16,4 C 2,6 km/h (1 Bft)
05.05.2012 19:07 13,3 C 66 % 0,0 l/m 2,7 km/h (1 Bft) N-NO 22 7,1 C 16,5 C 3,2 km/h (1 Bft)
05.05.2012 19:08 13,2 C 66 % 0,0 l/m 2,7 km/h (1 Bft) N-NO 22 7,0 C 16,5 C 3,2 km/h (1 Bft)
05.05.2012 19:09 13,2 C 66 % 0,0 l/m 2,7 km/h (1 Bft) SO 135 7,0 C 16,5 C 3,1 km/h (1 Bft)
05.05.2012 19:10 13,1 C 67 % 0,0 l/m 2,7 km/h (1 Bft) SO 135 7,1 C 16,5 C 3,1 km/h (1 Bft)
05.05.2012 19:11 13,1 C 67 % 0,0 l/m 2,4 km/h (1 Bft) N-NO 22 7,1 C 16,5 C 0,0 km/h (0 Bft)
05.05.2012 19:12 13,1 C 67 % 0,0 l/m 2,4 km/h (1 Bft) N-NO 22 7,1 C 16,5 C 0,0 km/h (0 Bft)
05.05.2012 19:13 13,1 C 67 % 0,0 l/m 2,3 km/h (1 Bft) O-SO 112 7,1 C 16,6 C 2,9 km/h (1 Bft)
05.05.2012 19:14 12,9 C 69 % 0,0 l/m 2,3 km/h (1 Bft) O-SO 112 7,4 C 16,6 C 2,9 km/h (1 Bft)
05.05.2012 19:15 12,9 C 69 % 0,0 l/m 1,4 km/h (1 Bft) N-NO 22 7,4 C 16,6 C 3,4 km/h (1 Bft)
05.05.2012 19:16 12,8 C 68 % 0,0 l/m 1,4 km/h (1 Bft) N-NO 22 7,0 C 16,6 C 3,4 km/h (1 Bft)
05.05.2012 19:17 12,8 C 68 % 0,0 l/m 1,3 km/h (1 Bft) O-NO 67 7,0 C 16,6 C 0,0 km/h (0 Bft)
05.05.2012 19:18 12,8 C 69 % 0,0 l/m 1,3 km/h (1 Bft) O-NO 67 7,3 C 16,6 C 0,0 km/h (0 Bft)
05.05.2012 19:19 12,8 C 69 % 0,0 l/m 1,0 km/h (0 Bft) O-NO 67 7,3 C 16,5 C 0,0 km/h (0 Bft)
05.05.2012 19:20 12,6 C 69 % 0,0 l/m 1,0 km/h (0 Bft) O-NO 67 7,1 C 16,5 C 0,0 km/h (0 Bft)
05.05.2012 19:21 12,6 C 69 % 0,0 l/m 1,0 km/h (0 Bft) O-NO 67 7,1 C 16,5 C 0,0 km/h (0 Bft)
05.05.2012 19:22 12,7 C 69 % 0,0 l/m 1,0 km/h (0 Bft) O-NO 67 7,2 C 16,5 C 0,0 km/h (0 Bft)
05.05.2012 19:23 12,7 C 69 % 0,0 l/m 0,5 km/h (0 Bft) N-NO 22 7,2 C 16,8 C 0,0 km/h (0 Bft)
05.05.2012 19:24 12,7 C 69 % 0,0 l/m 0,5 km/h (0 Bft) N-NO 22 7,2 C 16,8 C 0,0 km/h (0 Bft)
05.05.2012 19:25 12,7 C 69 % 0,0 l/m 0,3 km/h (0 Bft) NO 45 7,2 C 16,8 C 0,0 km/h (0 Bft)
05.05.2012 19:26 12,5 C 70 % 0,0 l/m 0,3 km/h (0 Bft) NO 45 7,2 C 16,8 C 0,0 km/h (0 Bft)
05.05.2012 19:27 12,5 C 70 % 0,0 l/m 0,0 km/h (0 Bft) N-NO 22 7,2 C 16,9 C 0,0 km/h (0 Bft)
05.05.2012 19:28 12,5 C 68 % 0,0 l/m 0,0 km/h (0 Bft) N-NO 22 6,8 C 16,9 C 0,0 km/h (0 Bft)
05.05.2012 19:29 12,5 C 68 % 0,0 l/m 0,0 km/h (0 Bft) N-NO 22 6,8 C 17,0 C 0,0 km/h (0 Bft)
05.05.2012 19:30 12,4 C 69 % 0,0 l/m 0,0 km/h (0 Bft) N-NO 22 6,9 C 17,0 C 0,0 km/h (0 Bft)
05.05.2012 19:31 12,4 C 69 % 0,0 l/m 0,0 km/h (0 Bft) NO 45 6,9 C 17,2 C 0,0 km/h (0 Bft)
05.05.2012 19:32 12,4 C 70 % 0,0 l/m 0,0 km/h (0 Bft) NO 45 7,1 C 17,2 C 0,0 km/h (0 Bft)
05.05.2012 19:33 12,4 C 70 % 0,0 l/m 0,2 km/h (0 Bft) O-SO 112 7,1 C 17,2 C 3,9 km/h (1 Bft)
05.05.2012 19:34 12,4 C 70 % 0,0 l/m 0,2 km/h (0 Bft) O-SO 112 7,1 C 17,2 C 3,9 km/h (1 Bft)
05.05.2012 19:35 12,4 C 70 % 0,0 l/m 0,3 km/h (0 Bft) N-NO 22 7,1 C 17,0 C 0,0 km/h (0 Bft)
05.05.2012 19:36 12,3 C 70 % 0,0 l/m 0,3 km/h (0 Bft) N-NO 22 7,0 C 17,0 C 0,0 km/h (0 Bft)
05.05.2012 19:37 12,3 C 70 % 0,0 l/m 0,6 km/h (0 Bft) N-NO 22 7,0 C 16,8 C 3,1 km/h (1 Bft)
05.05.2012 19:38 12,3 C 70 % 0,0 l/m 0,6 km/h (0 Bft) N-NO 22 7,0 C 16,8 C 3,1 km/h (1 Bft)
05.05.2012 19:39 12,3 C 70 % 0,0 l/m 0,8 km/h (0 Bft) N-NO 22 7,0 C 16,4 C 2,1 km/h (1 Bft)
05.05.2012 19:40 12,0 C 70 % 0,0 l/m 0,8 km/h (0 Bft) N-NO 22 6,7 C 16,4 C 2,1 km/h (1 Bft)
05.05.2012 19:41 12,0 C 70 % 0,0 l/m 0,8 km/h (0 Bft) N-NO 22 6,7 C 16,4 C 2,1 km/h (1 Bft)
05.05.2012 19:42 12,0 C 70 % 0,0 l/m 0,8 km/h (0 Bft) N-NO 22 6,7 C 16,4 C 2,1 km/h (1 Bft)
05.05.2012 19:43 12,0 C 70 % 0,0 l/m 1,0 km/h (0 Bft) NO 45 6,7 C 16,0 C 0,0 km/h (0 Bft)
05.05.2012 19:44 11,9 C 71 % 0,0 l/m 1,0 km/h (0 Bft) NO 45 6,8 C 16,0 C 0,0 km/h (0 Bft)
05.05.2012 19:45 11,9 C 71 % 0,0 l/m 0,8 km/h (0 Bft) W 270 6,8 C 15,8 C 2,4 km/h (1 Bft)
05.05.2012 19:46 11,9 C 71 % 0,0 l/m 0,8 km/h (0 Bft) W 270 6,8 C 15,8 C 2,4 km/h (1 Bft)
05.05.2012 19:47 11,9 C 71 % 0,0 l/m 0,8 km/h (0 Bft) NO 45 6,8 C 15,7 C 0,0 km/h (0 Bft)
05.05.2012 19:48 11,9 C 71 % 0,0 l/m 0,8 km/h (0 Bft) NO 45 6,8 C 15,7 C 0,0 km/h (0 Bft)
05.05.2012 19:49 11,9 C 71 % 0,0 l/m 0,5 km/h (0 Bft) N 360 6,8 C 15,5 C 1,6 km/h (1 Bft)
05.05.2012 19:50 11,9 C 72 % 0,0 l/m 0,5 km/h (0 Bft) N 360 7,0 C 15,5 C 1,6 km/h (1 Bft)
05.05.2012 19:51 11,9 C 72 % 0,0 l/m 0,5 km/h (0 Bft) N 360 7,0 C 15,3 C 0,0 km/h (0 Bft)
05.05.2012 19:52 11,7 C 72 % 0,0 l/m 0,5 km/h (0 Bft) N 360 6,8 C 15,3 C 0,0 km/h (0 Bft)
05.05.2012 19:53 11,7 C 72 % 0,0 l/m 0,3 km/h (0 Bft) N-NO 22 6,8 C 15,3 C 0,0 km/h (0 Bft)
05.05.2012 19:54 11,6 C 72 % 0,0 l/m 0,3 km/h (0 Bft) N-NO 22 6,7 C 15,3 C 0,0 km/h (0 Bft)
05.05.2012 19:55 11,6 C 72 % 0,0 l/m 0,3 km/h (0 Bft) NO 45 6,7 C 14,9 C 0,0 km/h (0 Bft)
05.05.2012 19:56 11,7 C 72 % 0,0 l/m 0,3 km/h (0 Bft) NO 45 6,8 C 14,9 C 0,0 km/h (0 Bft)
05.05.2012 19:57 11,7 C 72 % 0,0 l/m 0,2 km/h (0 Bft) N-NO 22 6,8 C 14,6 C 1,8 km/h (1 Bft)
05.05.2012 19:58 11,5 C 72 % 0,0 l/m 0,2 km/h (0 Bft) N-NO 22 6,6 C 14,6 C 1,8 km/h (1 Bft)
05.05.2012 19:59 11,5 C 72 % 0,0 l/m 0,8 km/h (0 Bft) N 360 6,6 C 14,3 C 4,2 km/h (1 Bft)
05.05.2012 20:00 11,4 C 73 % 0,0 l/m 0,8 km/h (0 Bft) N 360 6,7 C 14,3 C 4,2 km/h (1 Bft)
05.05.2012 20:01 11,4 C 73 % 0,0 l/m 0,8 km/h (0 Bft) N 360 6,7 C 14,3 C 4,2 km/h (1 Bft)
05.05.2012 20:02 11,3 C 73 % 0,0 l/m 0,8 km/h (0 Bft) N 360 6,6 C 14,3 C 4,2 km/h (1 Bft)
05.05.2012 20:03 11,3 C 73 % 0,0 l/m 1,1 km/h (1 Bft) NO 45 6,6 C 13,7 C 0,0 km/h (0 Bft)
05.05.2012 20:05 11,2 C 73 % 0,0 l/m 1,1 km/h (1 Bft) N-NO 22 6,5 C 13,4 C 2,3 km/h (1 Bft)
05.05.2012 20:06 11,1 C 74 % 0,0 l/m 1,1 km/h (1 Bft) N-NO 22 6,6 C 13,4 C 2,3 km/h (1 Bft)
05.05.2012 20:07 11,1 C 74 % 0,0 l/m 1,3 km/h (1 Bft) NO 45 6,6 C 12,9 C 0,0 km/h (0 Bft)
05.05.2012 20:08 11,0 C 74 % 0,0 l/m 1,3 km/h (1 Bft) N-NO 22 6,5 C 12,7 C 0,0 km/h (0 Bft)
05.05.2012 20:09 11,0 C 74 % 0,0 l/m 1,3 km/h (1 Bft) N-NO 22 6,5 C 12,7 C 0,0 km/h (0 Bft)
05.05.2012 20:10 10,7 C 75 % 0,0 l/m 1,3 km/h (1 Bft) N-NO 22 6,5 C 12,7 C 0,0 km/h (0 Bft)
05.05.2012 20:11 10,7 C 75 % 0,0 l/m 0,8 km/h (0 Bft) N-NO 22 6,5 C 12,2 C 1,9 km/h (1 Bft)
05.05.2012 20:12 10,6 C 75 % 0,0 l/m 0,8 km/h (0 Bft) N-NO 22 6,4 C 12,2 C 1,9 km/h (1 Bft)
05.05.2012 20:13 10,6 C 75 % 0,0 l/m 0,6 km/h (0 Bft) NO 45 6,4 C 11,7 C 0,0 km/h (0 Bft)
05.05.2012 20:14 10,6 C 75 % 0,0 l/m 0,6 km/h (0 Bft) NO 45 6,4 C 11,7 C 0,0 km/h (0 Bft)
05.05.2012 20:15 10,6 C 75 % 0,0 l/m 1,0 km/h (0 Bft) N-NO 22 6,4 C 11,3 C 3,2 km/h (1 Bft)
05.05.2012 20:16 10,4 C 75 % 0,0 l/m 1,0 km/h (0 Bft) N-NO 22 6,2 C 11,3 C 3,2 km/h (1 Bft)
05.05.2012 20:17 10,4 C 75 % 0,0 l/m 1,1 km/h (1 Bft) O 90 6,2 C 10,7 C 1,6 km/h (1 Bft)
05.05.2012 20:18 10,4 C 75 % 0,0 l/m 1,1 km/h (1 Bft) O 90 6,2 C 10,7 C 1,6 km/h (1 Bft)
05.05.2012 20:19 10,4 C 75 % 0,0 l/m 1,1 km/h (1 Bft) N 360 6,2 C 10,3 C 2,3 km/h (1 Bft)
05.05.2012 20:20 10,3 C 76 % 0,0 l/m 1,1 km/h (1 Bft) N 360 6,3 C 10,3 C 2,3 km/h (1 Bft)
05.05.2012 20:21 10,3 C 76 % 0,0 l/m 1,1 km/h (1 Bft) N 360 6,3 C 10,3 C 2,3 km/h (1 Bft)
05.05.2012 20:22 10,1 C 76 % 0,0 l/m 1,1 km/h (1 Bft) N 360 6,1 C 10,3 C 2,3 km/h (1 Bft)
05.05.2012 20:23 10,1 C 76 % 0,0 l/m 1,0 km/h (0 Bft) N-NO 22 6,1 C 9,5 C 0,0 km/h (0 Bft)
05.05.2012 20:24 10,0 C 76 % 0,0 l/m 1,0 km/h (0 Bft) N-NO 22 6,0 C 9,5 C 0,0 km/h (0 Bft)
05.05.2012 20:25 10,0 C 76 % 0,0 l/m 1,0 km/h (0 Bft) SO 135 6,0 C 9,2 C 0,0 km/h (0 Bft)
05.05.2012 20:26 10,0 C 76 % 0,0 l/m 1,0 km/h (0 Bft) SO 135 6,0 C 9,2 C 0,0 km/h (0 Bft)
05.05.2012 20:27 10,0 C 76 % 0,0 l/m 0,5 km/h (0 Bft) N 360 6,0 C 8,8 C 0,0 km/h (0 Bft)
05.05.2012 20:28 9,9 C 76 % 0,0 l/m 0,5 km/h (0 Bft) N 360 5,9 C 8,8 C 0,0 km/h (0 Bft)
05.05.2012 20:29 9,9 C 76 % 0,0 l/m 0,5 km/h (0 Bft) W-NW 292 5,9 C 8,4 C 2,6 km/h (1 Bft)
05.05.2012 20:30 9,8 C 76 % 0,0 l/m 0,5 km/h (0 Bft) W-NW 292 5,8 C 8,4 C 2,6 km/h (1 Bft)
05.05.2012 20:31 9,8 C 76 % 0,0 l/m 0,3 km/h (0 Bft) S 180 5,8 C 8,2 C 0,0 km/h (0 Bft)
05.05.2012 20:32 9,9 C 76 % 0,0 l/m 0,3 km/h (0 Bft) S 180 5,9 C 8,2 C 0,0 km/h (0 Bft)
05.05.2012 20:33 9,9 C 76 % 0,0 l/m 0,3 km/h (0 Bft) N-NO 22 5,9 C 8,0 C 0,0 km/h (0 Bft)
05.05.2012 20:34 9,7 C 76 % 0,0 l/m 0,3 km/h (0 Bft) N-NO 22 5,7 C 8,0 C 0,0 km/h (0 Bft)
05.05.2012 20:35 9,7 C 76 % 0,0 l/m 0,3 km/h (0 Bft) S-SW 202 5,7 C 7,8 C 0,0 km/h (0 Bft)
05.05.2012 20:36 9,6 C 76 % 0,0 l/m 0,3 km/h (0 Bft) S-SW 202 5,6 C 7,8 C 0,0 km/h (0 Bft)
05.05.2012 20:37 9,6 C 76 % 0,0 l/m 0,5 km/h (0 Bft) S-SO 157 5,6 C 7,6 C 2,3 km/h (1 Bft)
05.05.2012 20:38 9,6 C 76 % 0,0 l/m 0,5 km/h (0 Bft) S-SO 157 5,6 C 7,6 C 2,3 km/h (1 Bft)
05.05.2012 20:39 9,6 C 76 % 0,0 l/m 0,5 km/h (0 Bft) N-NO 22 5,6 C 7,4 C 0,0 km/h (0 Bft)
05.05.2012 20:40 9,6 C 77 % 0,0 l/m 0,5 km/h (0 Bft) N-NO 22 5,8 C 7,4 C 0,0 km/h (0 Bft)
05.05.2012 20:41 9,6 C 77 % 0,0 l/m 0,5 km/h (0 Bft) N-NO 22 5,8 C 7,4 C 0,0 km/h (0 Bft)
05.05.2012 20:42 9,5 C 77 % 0,0 l/m 0,5 km/h (0 Bft) N-NO 22 5,7 C 7,4 C 0,0 km/h (0 Bft)
05.05.2012 20:43 9,5 C 77 % 0,0 l/m 0,5 km/h (0 Bft) SW 225 5,7 C 7,2 C 2,6 km/h (1 Bft)
05.05.2012 20:44 9,5 C 77 % 0,0 l/m 0,5 km/h (0 Bft) SW 225 5,7 C 7,2 C 2,6 km/h (1 Bft)
05.05.2012 20:45 9,5 C 77 % 0,0 l/m 0,6 km/h (0 Bft) N-NW 337 5,7 C 7,0 C 0,0 km/h (0 Bft)
05.05.2012 20:46 9,4 C 78 % 0,0 l/m 0,6 km/h (0 Bft) N-NW 337 5,8 C 7,0 C 0,0 km/h (0 Bft)
05.05.2012 20:47 9,4 C 78 % 0,0 l/m 0,6 km/h (0 Bft) N 360 5,8 C 6,9 C 0,0 km/h (0 Bft)
05.05.2012 20:48 9,2 C 78 % 0,0 l/m 0,6 km/h (0 Bft) N 360 5,6 C 6,9 C 0,0 km/h (0 Bft)
05.05.2012 20:49 9,2 C 78 % 0,0 l/m 0,3 km/h (0 Bft) S-SW 202 5,6 C 6,9 C 0,0 km/h (0 Bft)
05.05.2012 20:50 9,2 C 78 % 0,0 l/m 0,3 km/h (0 Bft) S-SW 202 5,6 C 6,9 C 0,0 km/h (0 Bft)
05.05.2012 20:51 9,2 C 78 % 0,0 l/m 0,5 km/h (0 Bft) SO 135 5,6 C 6,8 C 0,0 km/h (0 Bft)
05.05.2012 20:52 9,3 C 78 % 0,0 l/m 0,5 km/h (0 Bft) SO 135 5,7 C 6,8 C 0,0 km/h (0 Bft)
05.05.2012 20:53 9,3 C 78 % 0,0 l/m 0,3 km/h (0 Bft) S-SO 157 5,7 C 6,7 C 0,0 km/h (0 Bft)
05.05.2012 20:54 9,2 C 78 % 0,0 l/m 0,3 km/h (0 Bft) S-SO 157 5,6 C 6,7 C 0,0 km/h (0 Bft)
05.05.2012 20:55 9,2 C 78 % 0,0 l/m 0,2 km/h (0 Bft) W-SW 247 5,6 C 6,6 C 0,0 km/h (0 Bft)
05.05.2012 20:56 9,1 C 78 % 0,0 l/m 0,2 km/h (0 Bft) W-SW 247 5,5 C 6,6 C 0,0 km/h (0 Bft)
05.05.2012 20:57 9,1 C 78 % 0,0 l/m 0,2 km/h (0 Bft) N 360 5,5 C 6,5 C 0,0 km/h (0 Bft)
05.05.2012 20:58 9,1 C 78 % 0,0 l/m 0,2 km/h (0 Bft) N 360 5,5 C 6,5 C 0,0 km/h (0 Bft)
05.05.2012 20:59 9,1 C 78 % 0,0 l/m 0,2 km/h (0 Bft) N 360 5,5 C 6,5 C 0,0 km/h (0 Bft)
05.05.2012 21:00 9,0 C 78 % 0,0 l/m 0,2 km/h (0 Bft) N 360 5,4 C 6,5 C 0,0 km/h (0 Bft)
05.05.2012 21:01 9,0 C 78 % 0,0 l/m 0,2 km/h (0 Bft) N 360 5,4 C 6,5 C 0,0 km/h (0 Bft)
05.05.2012 21:02 8,9 C 78 % 0,0 l/m 0,2 km/h (0 Bft) N 360 5,3 C 6,5 C 0,0 km/h (0 Bft)
05.05.2012 21:03 8,9 C 78 % 0,0 l/m 0,0 km/h (0 Bft) N-NO 22 5,3 C 6,2 C 0,0 km/h (0 Bft)
05.05.2012 21:04 8,8 C 78 % 0,0 l/m 0,0 km/h (0 Bft) N-NO 22 5,2 C 6,2 C 0,0 km/h (0 Bft)
05.05.2012 21:05 8,8 C 78 % 0,0 l/m 0,0 km/h (0 Bft) NO 45 5,2 C 6,2 C 0,0 km/h (0 Bft)
05.05.2012 21:06 8,8 C 78 % 0,0 l/m 0,0 km/h (0 Bft) NO 45 5,2 C 6,2 C 0,0 km/h (0 Bft)
05.05.2012 21:07 8,8 C 78 % 0,0 l/m 0,0 km/h (0 Bft) NO 45 5,2 C 6,1 C 0,0 km/h (0 Bft)
05.05.2012 21:08 8,7 C 78 % 0,0 l/m 0,0 km/h (0 Bft) NO 45 5,1 C 6,1 C 0,0 km/h (0 Bft)
05.05.2012 21:09 8,7 C 78 % 0,0 l/m 0,0 km/h (0 Bft) N 360 5,1 C 6,0 C 0,0 km/h (0 Bft)
05.05.2012 21:10 8,7 C 78 % 0,0 l/m 0,0 km/h (0 Bft) N-NO 22 5,1 C 6,0 C 0,0 km/h (0 Bft)
05.05.2012 21:11 8,7 C 78 % 0,0 l/m 0,0 km/h (0 Bft) N-NO 22 5,1 C 6,0 C 0,0 km/h (0 Bft)
05.05.2012 21:13 8,7 C 78 % 0,0 l/m 0,0 km/h (0 Bft) O-SO 112 5,1 C 5,9 C 0,0 km/h (0 Bft)
05.05.2012 21:14 8,7 C 78 % 0,0 l/m 0,0 km/h (0 Bft) O-SO 112 5,1 C 5,9 C 0,0 km/h (0 Bft)
05.05.2012 21:15 8,7 C 78 % 0,0 l/m 0,0 km/h (0 Bft) N 360 5,1 C 5,9 C 0,0 km/h (0 Bft)
05.05.2012 21:16 8,5 C 79 % 0,0 l/m 0,0 km/h (0 Bft) N 360 5,1 C 5,9 C 0,0 km/h (0 Bft)
05.05.2012 21:17 8,5 C 79 % 0,0 l/m 0,0 km/h (0 Bft) N 360 5,1 C 5,8 C 0,0 km/h (0 Bft)
05.05.2012 21:18 8,5 C 79 % 0,0 l/m 0,0 km/h (0 Bft) N 360 5,1 C 5,8 C 0,0 km/h (0 Bft)
05.05.2012 21:19 8,5 C 79 % 0,0 l/m 0,0 km/h (0 Bft) N-NW 337 5,1 C 5,8 C 0,0 km/h (0 Bft)
05.05.2012 21:20 8,4 C 79 % 0,0 l/m 0,0 km/h (0 Bft) N-NW 337 5,0 C 5,8 C 0,0 km/h (0 Bft)
05.05.2012 21:21 8,4 C 79 % 0,0 l/m 0,0 km/h (0 Bft) N-NW 337 5,0 C 5,8 C 0,0 km/h (0 Bft)
05.05.2012 21:22 8,5 C 79 % 0,0 l/m 0,0 km/h (0 Bft) N-NW 337 5,1 C 5,8 C 0,0 km/h (0 Bft)
05.05.2012 21:23 8,5 C 79 % 0,0 l/m 0,0 km/h (0 Bft) N 360 5,1 C 5,8 C 0,0 km/h (0 Bft)
05.05.2012 21:24 8,4 C 79 % 0,0 l/m 0,0 km/h (0 Bft) N 360 5,0 C 5,8 C 0,0 km/h (0 Bft)
05.05.2012 21:25 8,4 C 79 % 0,0 l/m 0,0 km/h (0 Bft) N-NW 337 5,0 C 5,8 C 1,8 km/h (1 Bft)
05.05.2012 21:26 8,4 C 80 % 0,0 l/m 0,0 km/h (0 Bft) N-NW 337 5,2 C 5,8 C 1,8 km/h (1 Bft)
05.05.2012 21:27 8,4 C 80 % 0,0 l/m 0,2 km/h (0 Bft) NO 45 5,2 C 5,8 C 3,2 km/h (1 Bft)
05.05.2012 21:28 8,4 C 80 % 0,0 l/m 0,2 km/h (0 Bft) O-NO 67 5,2 C 5,8 C 0,0 km/h (0 Bft)
05.05.2012 21:29 8,4 C 80 % 0,0 l/m 0,2 km/h (0 Bft) O-NO 67 5,2 C 5,8 C 0,0 km/h (0 Bft)
05.05.2012 21:30 8,3 C 80 % 0,0 l/m 0,2 km/h (0 Bft) O-NO 67 5,1 C 5,8 C 0,0 km/h (0 Bft)
05.05.2012 21:31 8,3 C 80 % 0,0 l/m 0,3 km/h (0 Bft) N-NW 337 5,1 C 5,8 C 3,1 km/h (1 Bft)
05.05.2012 21:32 8,3 C 80 % 0,0 l/m 0,3 km/h (0 Bft) N-NW 337 5,1 C 5,8 C 3,1 km/h (1 Bft)
05.05.2012 21:33 8,3 C 80 % 0,0 l/m 0,5 km/h (0 Bft) W-NW 292 5,1 C 5,9 C 0,0 km/h (0 Bft)
05.05.2012 21:34 8,3 C 80 % 0,0 l/m 0,5 km/h (0 Bft) W-NW 292 5,1 C 5,9 C 0,0 km/h (0 Bft)
05.05.2012 21:35 8,3 C 80 % 0,0 l/m 0,5 km/h (0 Bft) N 360 5,1 C 5,9 C 0,0 km/h (0 Bft)
05.05.2012 21:36 8,3 C 80 % 0,0 l/m 0,5 km/h (0 Bft) N 360 5,1 C 5,9 C 0,0 km/h (0 Bft)
05.05.2012 21:37 8,3 C 80 % 0,0 l/m 0,6 km/h (0 Bft) S-SO 157 5,1 C 5,9 C 1,8 km/h (1 Bft)
05.05.2012 21:38 8,1 C 80 % 0,0 l/m 0,6 km/h (0 Bft) S-SO 157 4,9 C 5,9 C 1,8 km/h (1 Bft)
05.05.2012 21:39 8,1 C 80 % 0,0 l/m 0,5 km/h (0 Bft) N-NO 22 4,9 C 5,9 C 1,6 km/h (1 Bft)
05.05.2012 21:40 8,1 C 80 % 0,0 l/m 0,5 km/h (0 Bft) N-NO 22 4,9 C 5,9 C 1,6 km/h (1 Bft)
05.05.2012 21:41 8,1 C 80 % 0,0 l/m 0,5 km/h (0 Bft) N-NO 22 4,9 C 5,9 C 1,6 km/h (1 Bft)
05.05.2012 21:42 8,0 C 80 % 0,0 l/m 0,5 km/h (0 Bft) N-NO 22 4,8 C 5,9 C 1,6 km/h (1 Bft)
05.05.2012 21:43 8,0 C 80 % 0,0 l/m 0,3 km/h (0 Bft) N 360 4,8 C 5,9 C 0,0 km/h (0 Bft)
05.05.2012 21:44 8,1 C 80 % 0,0 l/m 0,3 km/h (0 Bft) N 360 4,9 C 5,9 C 0,0 km/h (0 Bft)
05.05.2012 21:45 8,1 C 80 % 0,0 l/m 0,3 km/h (0 Bft) N-NW 337 4,9 C 5,8 C 0,0 km/h (0 Bft)
05.05.2012 21:46 8,0 C 80 % 0,0 l/m 0,3 km/h (0 Bft) N-NW 337 4,8 C 5,8 C 0,0 km/h (0 Bft)
05.05.2012 21:47 8,0 C 80 % 0,0 l/m 0,3 km/h (0 Bft) O 90 4,8 C 5,8 C 0,0 km/h (0 Bft)
05.05.2012 21:48 8,0 C 80 % 0,0 l/m 0,3 km/h (0 Bft) O 90 4,8 C 5,8 C 0,0 km/h (0 Bft)
05.05.2012 21:49 8,0 C 80 % 0,0 l/m 0,3 km/h (0 Bft) S-SO 157 4,8 C 5,8 C 5,0 km/h (1 Bft)
05.05.2012 21:50 8,0 C 81 % 0,0 l/m 0,5 km/h (0 Bft) S-SW 202 4,9 C 5,9 C 0,0 km/h (0 Bft)
05.05.2012 21:51 8,0 C 81 % 0,0 l/m 0,5 km/h (0 Bft) S-SW 202 4,9 C 5,9 C 0,0 km/h (0 Bft)
05.05.2012 21:52 8,0 C 81 % 0,0 l/m 0,5 km/h (0 Bft) S-SW 202 4,9 C 5,9 C 0,0 km/h (0 Bft)
05.05.2012 21:53 8,0 C 81 % 0,0 l/m 0,5 km/h (0 Bft) SW 225 4,9 C 5,9 C 0,0 km/h (0 Bft)
05.05.2012 21:54 8,0 C 81 % 0,0 l/m 0,5 km/h (0 Bft) SW 225 4,9 C 5,9 C 0,0 km/h (0 Bft)
05.05.2012 21:55 8,0 C 81 % 0,0 l/m 0,6 km/h (0 Bft) S 180 4,9 C 5,9 C 0,0 km/h (0 Bft)
05.05.2012 21:56 8,0 C 81 % 0,0 l/m 0,6 km/h (0 Bft) S 180 4,9 C 5,9 C 0,0 km/h (0 Bft)
05.05.2012 21:57 8,0 C 81 % 0,0 l/m 0,8 km/h (0 Bft) N 360 4,9 C 5,9 C 1,6 km/h (1 Bft)
05.05.2012 21:58 8,0 C 81 % 0,0 l/m 0,8 km/h (0 Bft) N 360 4,9 C 5,9 C 1,6 km/h (1 Bft)
05.05.2012 21:59 8,0 C 81 % 0,0 l/m 0,8 km/h (0 Bft) S 180 4,9 C 6,0 C 1,6 km/h (1 Bft)
05.05.2012 22:00 8,0 C 81 % 0,0 l/m 0,8 km/h (0 Bft) S 180 4,9 C 6,0 C 1,6 km/h (1 Bft)
05.05.2012 22:01 8,0 C 81 % 0,0 l/m 0,8 km/h (0 Bft) S 180 4,9 C 6,0 C 1,6 km/h (1 Bft)
05.05.2012 22:02 7,9 C 82 % 0,0 l/m 0,8 km/h (0 Bft) S 180 5,0 C 6,0 C 1,6 km/h (1 Bft)
05.05.2012 22:03 7,9 C 82 % 0,0 l/m 0,8 km/h (0 Bft) NO 45 5,0 C 6,0 C 0,0 km/h (0 Bft)
05.05.2012 22:04 7,9 C 82 % 0,0 l/m 0,8 km/h (0 Bft) NO 45 5,0 C 6,0 C 0,0 km/h (0 Bft)
05.05.2012 22:05 7,9 C 82 % 0,0 l/m 1,0 km/h (0 Bft) N-NO 22 5,0 C 6,0 C 2,3 km/h (1 Bft)
05.05.2012 22:06 7,9 C 82 % 0,0 l/m 1,0 km/h (0 Bft) N-NO 22 5,0 C 6,0 C 2,3 km/h (1 Bft)
05.05.2012 22:07 7,9 C 82 % 0,0 l/m 0,8 km/h (0 Bft) S-SW 202 5,0 C 6,0 C 0,0 km/h (0 Bft)
05.05.2012 22:08 8,0 C 82 % 0,0 l/m 0,8 km/h (0 Bft) S-SW 202 5,1 C 6,0 C 0,0 km/h (0 Bft)
05.05.2012 22:09 8,0 C 82 % 0,0 l/m 1,0 km/h (0 Bft) N-NW 337 5,1 C 6,0 C 1,9 km/h (1 Bft)
05.05.2012 22:10 8,0 C 82 % 0,0 l/m 1,0 km/h (0 Bft) N-NW 337 5,1 C 6,0 C 1,9 km/h (1 Bft)
05.05.2012 22:11 8,0 C 82 % 0,0 l/m 1,0 km/h (0 Bft) S 180 5,1 C 6,0 C 1,6 km/h (1 Bft)
05.05.2012 22:12 8,0 C 82 % 0,0 l/m 1,0 km/h (0 Bft) S 180 5,1 C 6,0 C 1,6 km/h (1 Bft)
05.05.2012 22:13 8,0 C 82 % 0,0 l/m 0,6 km/h (0 Bft) W-SW 247 5,1 C 6,1 C 0,0 km/h (0 Bft)
05.05.2012 22:14 8,0 C 82 % 0,0 l/m 0,6 km/h (0 Bft) W-SW 247 5,1 C 6,1 C 0,0 km/h (0 Bft)
05.05.2012 22:15 8,0 C 82 % 0,0 l/m 0,5 km/h (0 Bft) O-SO 112 5,1 C 6,1 C 2,4 km/h (1 Bft)
05.05.2012 22:16 8,0 C 82 % 0,0 l/m 0,5 km/h (0 Bft) O-SO 112 5,1 C 6,1 C 2,4 km/h (1 Bft)
05.05.2012 22:17 8,0 C 82 % 0,0 l/m 0,5 km/h (0 Bft) O-NO 67 5,1 C 6,2 C 0,0 km/h (0 Bft)
05.05.2012 22:18 8,0 C 82 % 0,0 l/m 0,5 km/h (0 Bft) O-NO 67 5,1 C 6,2 C 0,0 km/h (0 Bft)
05.05.2012 22:19 8,0 C 82 % 0,0 l/m 0,6 km/h (0 Bft) N-NW 337 5,1 C 6,2 C 1,8 km/h (1 Bft)
05.05.2012 22:20 8,0 C 82 % 0,0 l/m 0,6 km/h (0 Bft) N-NW 337 5,1 C 6,2 C 1,8 km/h (1 Bft)
05.05.2012 22:21 8,0 C 82 % 0,0 l/m 0,6 km/h (0 Bft) N-NW 337 5,1 C 6,2 C 1,8 km/h (1 Bft)
05.05.2012 22:22 8,1 C 82 % 0,0 l/m 0,6 km/h (0 Bft) N-NW 337 5,2 C 6,2 C 1,8 km/h (1 Bft)
05.05.2012 22:23 8,1 C 82 % 0,0 l/m 1,0 km/h (0 Bft) S-SW 202 5,2 C 6,2 C 0,0 km/h (0 Bft)
05.05.2012 22:24 8,0 C 82 % 0,0 l/m 1,0 km/h (0 Bft) S-SW 202 5,1 C 6,2 C 0,0 km/h (0 Bft)
05.05.2012 22:25 8,0 C 82 % 0,0 l/m 1,1 km/h (1 Bft) S 180 5,1 C 6,3 C 3,4 km/h (1 Bft)
05.05.2012 22:26 8,0 C 82 % 0,0 l/m 1,1 km/h (1 Bft) S 180 5,1 C 6,3 C 3,4 km/h (1 Bft)
05.05.2012 22:27 8,0 C 82 % 0,0 l/m 1,3 km/h (1 Bft) N-NO 22 5,1 C 6,3 C 2,9 km/h (1 Bft)
05.05.2012 22:28 8,0 C 82 % 0,0 l/m 1,6 km/h (1 Bft) N 360 5,1 C 6,3 C 1,9 km/h (1 Bft)
05.05.2012 22:29 8,0 C 82 % 0,0 l/m 1,6 km/h (1 Bft) N 360 5,1 C 6,3 C 1,9 km/h (1 Bft)
05.05.2012 22:30 8,0 C 82 % 0,0 l/m 1,6 km/h (1 Bft) N 360 5,1 C 6,3 C 1,9 km/h (1 Bft)
05.05.2012 22:31 8,0 C 82 % 0,0 l/m 1,4 km/h (1 Bft) O-SO 112 5,1 C 6,3 C 0,0 km/h (0 Bft)
05.05.2012 22:32 8,0 C 82 % 0,0 l/m 1,4 km/h (1 Bft) O-SO 112 5,1 C 6,3 C 0,0 km/h (0 Bft)
05.05.2012 22:33 8,0 C 82 % 0,0 l/m 1,1 km/h (1 Bft) S-SO 157 5,1 C 6,3 C 0,0 km/h (0 Bft)
05.05.2012 22:34 8,1 C 82 % 0,0 l/m 1,1 km/h (1 Bft) S-SO 157 5,2 C 6,3 C 0,0 km/h (0 Bft)
05.05.2012 22:35 8,1 C 82 % 0,0 l/m 1,0 km/h (0 Bft) S 180 5,2 C 6,3 C 0,0 km/h (0 Bft)
05.05.2012 22:36 8,0 C 82 % 0,0 l/m 1,0 km/h (0 Bft) S 180 5,1 C 6,3 C 0,0 km/h (0 Bft)
05.05.2012 22:37 8,0 C 82 % 0,0 l/m 0,6 km/h (0 Bft) SO 135 5,1 C 6,3 C 0,0 km/h (0 Bft)
05.05.2012 22:38 8,0 C 82 % 0,0 l/m 0,6 km/h (0 Bft) SO 135 5,1 C 6,3 C 0,0 km/h (0 Bft)
05.05.2012 22:39 8,0 C 82 % 0,0 l/m 0,3 km/h (0 Bft) W 270 5,1 C 6,2 C 0,0 km/h (0 Bft)
05.05.2012 22:40 7,9 C 82 % 0,0 l/m 0,3 km/h (0 Bft) W 270 5,0 C 6,2 C 0,0 km/h (0 Bft)
05.05.2012 22:41 7,9 C 82 % 0,0 l/m 0,3 km/h (0 Bft) W 270 5,0 C 6,2 C 0,0 km/h (0 Bft)
05.05.2012 22:42 7,9 C 82 % 0,0 l/m 0,3 km/h (0 Bft) W 270 5,0 C 6,2 C 0,0 km/h (0 Bft)
05.05.2012 22:43 7,9 C 82 % 0,0 l/m 0,0 km/h (0 Bft) O 90 5,0 C 6,1 C 0,0 km/h (0 Bft)
05.05.2012 22:44 7,9 C 82 % 0,0 l/m 0,0 km/h (0 Bft) O 90 5,0 C 6,1 C 0,0 km/h (0 Bft)
05.05.2012 22:45 7,9 C 82 % 0,0 l/m 0,2 km/h (0 Bft) S-SW 202 5,0 C 6,1 C 0,0 km/h (0 Bft)
05.05.2012 22:46 7,9 C 82 % 0,0 l/m 0,2 km/h (0 Bft) S-SW 202 5,0 C 6,1 C 0,0 km/h (0 Bft)
05.05.2012 22:47 7,9 C 82 % 0,0 l/m 0,0 km/h (0 Bft) O-SO 112 5,0 C 6,1 C 0,0 km/h (0 Bft)
05.05.2012 22:48 7,9 C 82 % 0,0 l/m 0,0 km/h (0 Bft) O-SO 112 5,0 C 6,1 C 0,0 km/h (0 Bft)
05.05.2012 22:49 7,9 C 82 % 0,0 l/m 0,0 km/h (0 Bft) S-SW 202 5,0 C 6,0 C 1,6 km/h (1 Bft)
05.05.2012 22:50 7,8 C 82 % 0,0 l/m 0,0 km/h (0 Bft) S-SW 202 4,9 C 6,0 C 1,6 km/h (1 Bft)
05.05.2012 22:51 7,8 C 82 % 0,0 l/m 0,3 km/h (0 Bft) SO 135 4,9 C 6,0 C 3,1 km/h (1 Bft)
05.05.2012 22:52 7,8 C 82 % 0,0 l/m 0,3 km/h (0 Bft) SO 135 4,9 C 6,0 C 3,1 km/h (1 Bft)
05.05.2012 22:53 7,8 C 82 % 0,0 l/m 0,6 km/h (0 Bft) S-SO 157 4,9 C 6,1 C 2,1 km/h (1 Bft)
05.05.2012 22:54 7,9 C 82 % 0,0 l/m 0,6 km/h (0 Bft) S 180 5,0 C 6,1 C 0,0 km/h (0 Bft)
05.05.2012 22:55 7,9 C 82 % 0,0 l/m 0,6 km/h (0 Bft) S 180 5,0 C 6,1 C 0,0 km/h (0 Bft)
05.05.2012 22:56 7,8 C 82 % 0,0 l/m 0,6 km/h (0 Bft) S 180 4,9 C 6,1 C 0,0 km/h (0 Bft)
05.05.2012 22:57 7,8 C 82 % 0,0 l/m 0,8 km/h (0 Bft) N 360 4,9 C 6,2 C 0,0 km/h (0 Bft)
05.05.2012 22:58 7,9 C 82 % 0,0 l/m 0,8 km/h (0 Bft) N 360 5,0 C 6,2 C 0,0 km/h (0 Bft)
05.05.2012 22:59 7,9 C 82 % 0,0 l/m 0,8 km/h (0 Bft) W-NW 292 5,0 C 6,2 C 2,3 km/h (1 Bft)
05.05.2012 23:00 7,9 C 82 % 0,0 l/m 0,8 km/h (0 Bft) W-NW 292 5,0 C 6,2 C 2,3 km/h (1 Bft)
05.05.2012 23:01 7,9 C 82 % 0,0 l/m 0,8 km/h (0 Bft) W-NW 292 5,0 C 6,2 C 2,3 km/h (1 Bft)
05.05.2012 23:02 7,8 C 82 % 0,0 l/m 0,8 km/h (0 Bft) W-NW 292 4,9 C 6,2 C 2,3 km/h (1 Bft)
05.05.2012 23:03 7,8 C 82 % 0,0 l/m 0,3 km/h (0 Bft) S-SW 202 4,9 C 6,1 C 0,0 km/h (0 Bft)
05.05.2012 23:04 7,9 C 82 % 0,0 l/m 0,3 km/h (0 Bft) S-SW 202 5,0 C 6,1 C 0,0 km/h (0 Bft)
05.05.2012 23:05 7,9 C 82 % 0,0 l/m 0,2 km/h (0 Bft) S-SW 202 5,0 C 6,1 C 0,0 km/h (0 Bft)
05.05.2012 23:06 7,8 C 82 % 0,0 l/m 0,2 km/h (0 Bft) S-SW 202 4,9 C 6,1 C 0,0 km/h (0 Bft)
05.05.2012 23:07 7,8 C 82 % 0,0 l/m 0,2 km/h (0 Bft) N-NO 22 4,9 C 6,0 C 0,0 km/h (0 Bft)
05.05.2012 23:08 7,8 C 82 % 0,0 l/m 0,2 km/h (0 Bft) N-NO 22 4,9 C 6,0 C 0,0 km/h (0 Bft)
05.05.2012 23:09 7,8 C 82 % 0,0 l/m 0,0 km/h (0 Bft) S 180 4,9 C 6,0 C 0,0 km/h (0 Bft)
05.05.2012 23:10 7,8 C 82 % 0,0 l/m 0,0 km/h (0 Bft) W-NW 292 4,9 C 6,0 C 0,0 km/h (0 Bft)
05.05.2012 23:11 7,8 C 82 % 0,0 l/m 0,0 km/h (0 Bft) W-NW 292 4,9 C 6,0 C 0,0 km/h (0 Bft)
05.05.2012 23:12 7,7 C 82 % 0,0 l/m 0,0 km/h (0 Bft) W-NW 292 4,8 C 6,0 C 0,0 km/h (0 Bft)
05.05.2012 23:13 7,7 C 82 % 0,0 l/m 0,0 km/h (0 Bft) SW 225 4,8 C 5,9 C 0,0 km/h (0 Bft)
05.05.2012 23:14 7,7 C 82 % 0,0 l/m 0,0 km/h (0 Bft) SW 225 4,8 C 5,9 C 0,0 km/h (0 Bft)
05.05.2012 23:15 7,7 C 82 % 0,0 l/m 0,0 km/h (0 Bft) SW 225 4,8 C 5,9 C 0,0 km/h (0 Bft)
05.05.2012 23:16 7,7 C 81 % 0,0 l/m 0,0 km/h (0 Bft) SW 225 4,7 C 5,9 C 0,0 km/h (0 Bft)
05.05.2012 23:17 7,7 C 81 % 0,0 l/m 0,0 km/h (0 Bft) SW 225 4,7 C 5,8 C 0,0 km/h (0 Bft)
05.05.2012 23:18 7,7 C 81 % 0,0 l/m 0,0 km/h (0 Bft) SW 225 4,7 C 5,8 C 0,0 km/h (0 Bft)
05.05.2012 23:19 7,7 C 81 % 0,0 l/m 0,0 km/h (0 Bft) N-NW 337 4,7 C 5,8 C 0,0 km/h (0 Bft)
05.05.2012 23:20 7,7 C 82 % 0,0 l/m 0,0 km/h (0 Bft) N-NW 337 4,8 C 5,8 C 0,0 km/h (0 Bft)
05.05.2012 23:21 7,7 C 82 % 0,0 l/m 0,0 km/h (0 Bft) N-NW 337 4,8 C 5,8 C 0,0 km/h (0 Bft)
05.05.2012 23:22 7,7 C 82 % 0,0 l/m 0,0 km/h (0 Bft) N-NW 337 4,8 C 5,8 C 0,0 km/h (0 Bft)
05.05.2012 23:23 7,7 C 82 % 0,0 l/m 0,0 km/h (0 Bft) N-NW 337 4,8 C 5,7 C 0,0 km/h (0 Bft)
05.05.2012 23:24 7,7 C 82 % 0,0 l/m 0,0 km/h (0 Bft) N-NW 337 4,8 C 5,7 C 0,0 km/h (0 Bft)
05.05.2012 23:25 7,7 C 82 % 0,0 l/m 0,0 km/h (0 Bft) N-NW 337 4,8 C 5,8 C 0,0 km/h (0 Bft)
05.05.2012 23:26 7,6 C 82 % 0,0 l/m 0,0 km/h (0 Bft) N-NW 337 4,7 C 5,8 C 0,0 km/h (0 Bft)
05.05.2012 23:27 7,6 C 82 % 0,0 l/m 0,0 km/h (0 Bft) N 360 4,7 C 5,8 C 0,0 km/h (0 Bft)
05.05.2012 23:28 7,6 C 82 % 0,0 l/m 0,0 km/h (0 Bft) N 360 4,7 C 5,8 C 0,0 km/h (0 Bft)
05.05.2012 23:29 7,6 C 82 % 0,0 l/m 0,0 km/h (0 Bft) SW 225 4,7 C 5,8 C 0,0 km/h (0 Bft)
05.05.2012 23:30 7,6 C 82 % 0,0 l/m 0,0 km/h (0 Bft) SW 225 4,7 C 5,8 C 0,0 km/h (0 Bft)
05.05.2012 23:31 7,6 C 82 % 0,0 l/m 0,0 km/h (0 Bft) N 360 4,7 C 5,7 C 0,0 km/h (0 Bft)
05.05.2012 23:32 7,6 C 82 % 0,0 l/m 0,0 km/h (0 Bft) N 360 4,7 C 5,7 C 0,0 km/h (0 Bft)
05.05.2012 23:33 7,6 C 82 % 0,0 l/m 0,0 km/h (0 Bft) N-NO 22 4,7 C 5,7 C 0,0 km/h (0 Bft)
05.05.2012 23:34 7,7 C 82 % 0,0 l/m 0,0 km/h (0 Bft) N-NO 22 4,8 C 5,7 C 0,0 km/h (0 Bft)
05.05.2012 23:35 7,7 C 82 % 0,0 l/m 0,0 km/h (0 Bft) S-SW 202 4,8 C 5,7 C 2,1 km/h (1 Bft)
05.05.2012 23:36 7,6 C 82 % 0,0 l/m 0,0 km/h (0 Bft) S-SW 202 4,7 C 5,7 C 2,1 km/h (1 Bft)
05.05.2012 23:37 7,6 C 82 % 0,0 l/m 0,2 km/h (0 Bft) S 180 4,7 C 5,7 C 0,0 km/h (0 Bft)
05.05.2012 23:38 7,6 C 82 % 0,0 l/m 0,2 km/h (0 Bft) S 180 4,7 C 5,7 C 0,0 km/h (0 Bft)
05.05.2012 23:39 7,6 C 82 % 0,0 l/m 0,2 km/h (0 Bft) N-NO 22 4,7 C 5,7 C 0,0 km/h (0 Bft)
05.05.2012 23:40 7,6 C 82 % 0,0 l/m 0,2 km/h (0 Bft) N-NO 22 4,7 C 5,7 C 0,0 km/h (0 Bft)
05.05.2012 23:41 7,6 C 82 % 0,0 l/m 0,2 km/h (0 Bft) N-NO 22 4,7 C 5,7 C 0,0 km/h (0 Bft)
05.05.2012 23:42 7,6 C 82 % 0,0 l/m 0,2 km/h (0 Bft) N-NO 22 4,7 C 5,7 C 0,0 km/h (0 Bft)
05.05.2012 23:43 7,6 C 82 % 0,0 l/m 0,3 km/h (0 Bft) NO 45 4,7 C 5,6 C 3,9 km/h (1 Bft)
05.05.2012 23:44 7,5 C 83 % 0,0 l/m 0,3 km/h (0 Bft) NO 45 4,8 C 5,6 C 3,9 km/h (1 Bft)
05.05.2012 23:45 7,5 C 83 % 0,0 l/m 0,6 km/h (0 Bft) SO 135 4,8 C 5,7 C 0,0 km/h (0 Bft)
05.05.2012 23:46 7,5 C 82 % 0,0 l/m 0,6 km/h (0 Bft) SO 135 4,6 C 5,7 C 0,0 km/h (0 Bft)
05.05.2012 23:47 7,5 C 82 % 0,0 l/m 0,6 km/h (0 Bft) NO 45 4,6 C 5,7 C 0,0 km/h (0 Bft)
05.05.2012 23:48 7,5 C 82 % 0,0 l/m 0,6 km/h (0 Bft) NO 45 4,6 C 5,7 C 0,0 km/h (0 Bft)
05.05.2012 23:49 7,5 C 82 % 0,0 l/m 0,6 km/h (0 Bft) SW 225 4,6 C 5,8 C 0,0 km/h (0 Bft)
05.05.2012 23:50 7,4 C 82 % 0,0 l/m 0,6 km/h (0 Bft) SW 225 4,5 C 5,8 C 0,0 km/h (0 Bft)
05.05.2012 23:51 7,4 C 82 % 0,0 l/m 0,8 km/h (0 Bft) O 90 4,5 C 5,8 C 0,0 km/h (0 Bft)
05.05.2012 23:52 7,4 C 82 % 0,0 l/m 0,8 km/h (0 Bft) O 90 4,5 C 5,8 C 0,0 km/h (0 Bft)
05.05.2012 23:53 7,4 C 82 % 0,0 l/m 1,0 km/h (0 Bft) S-SO 157 4,5 C 5,7 C 2,9 km/h (1 Bft)
05.05.2012 23:54 7,5 C 82 % 0,0 l/m 1,0 km/h (0 Bft) S-SO 157 4,6 C 5,7 C 2,9 km/h (1 Bft)
05.05.2012 23:55 7,5 C 82 % 0,0 l/m 0,6 km/h (0 Bft) S-SW 202 4,6 C 5,7 C 0,0 km/h (0 Bft)
05.05.2012 23:56 7,4 C 83 % 0,0 l/m 0,6 km/h (0 Bft) S-SW 202 4,7 C 5,7 C 0,0 km/h (0 Bft)
05.05.2012 23:57 7,4 C 83 % 0,0 l/m 0,6 km/h (0 Bft) N 360 4,7 C 5,8 C 3,1 km/h (1 Bft)
05.05.2012 23:58 7,3 C 83 % 0,0 l/m 0,6 km/h (0 Bft) N 360 4,6 C 5,8 C 3,1 km/h (1 Bft)
05.05.2012 23:59 7,3 C 83 % 0,0 l/m 0,6 km/h (0 Bft) W-SW 247 4,6 C 5,8 C 0,0 km/h (0 Bft)
_ Min-Zeit 23:58 15:16 - 00:10 - - 01:44 01:42 00:03
Minimum _ 7,3 C 57 % - 0,0 km/h (0 Bft) - - 3,4 C 5,0 C 0,0 km/h (0 Bft)
_ Max-Zeit 15:12 23:44 16:33 16:15 - - 15:12 15:17 09:04
Maximum _ 17,7 C 83 % 0,7 l/m 10,9 km/h
S (2 Bft)
- - 10,1 C 18,2 C 22,5 km/h
O (4 Bft)
Durchschnitt _ 11,5 C 72 % #2,1 l/m 3,9 km/h (1 Bft) SO - 6,5 C 9,8 C 5,2 km/h (1 Bft)